<?xml version="1.0" encoding="UTF-8" standalone="no" ?><gpx xmlns="http://www.topografix.com/GPX/1/1" xmlns:gpxx="http://www.garmin.com/xmlschemas/GpxExtensions/v3" xmlns:wptx1="http://www.garmin.com/xmlschemas/WaypointExtension/v1" xmlns:gpxtpx="http://www.garmin.com/xmlschemas/TrackPointExtension/v1" creator="Astro 320" version="1.1" xmlns:xsi="http://www.w3.org/2001/XMLSchema-instance" xsi:schemaLocation="http://www.topografix.com/GPX/1/1 http://www.topografix.com/GPX/1/1/gpx.xsd http://www.garmin.com/xmlschemas/GpxExtensions/v3 http://www8.garmin.com/xmlschemas/GpxExtensionsv3.xsd http://www.garmin.com/xmlschemas/WaypointExtension/v1 http://www8.garmin.com/xmlschemas/WaypointExtensionv1.xsd http://www.garmin.com/xmlschemas/TrackPointExtension/v1 http://www.garmin.com/xmlschemas/TrackPointExtensionv1.xsd"><metadata><link href="http://www.garmin.com"><text>Garmin International</text></link><time>2026-08-29T13:35:08Z</time></metadata><trk><name>2026-08-29 16:35:02</name><extensions><gpxx:TrackExtension><gpxx:DisplayColor>Black</gpxx:DisplayColor></gpxx:TrackExtension></extensions><trkseg><trkpt lat="60.1015161909" lon="30.1223003212"><ele>41.47</ele><time>2026-08-11T19:24:54Z</time></trkpt><trkpt lat="60.1014078129" lon="30.1221362874"><ele>38.59</ele><time>2026-08-11T19:25:14Z</time></trkpt><trkpt lat="60.1014032029" lon="30.1221432444"><ele>35.71</ele><time>2026-08-11T19:25:21Z</time></trkpt><trkpt lat="60.1013953239" lon="30.1221171767"><ele>32.34</ele><time>2026-08-11T19:25:34Z</time></trkpt><trkpt lat="60.1014278457" lon="30.1221406460"><ele>31.38</ele><time>2026-08-11T19:25:47Z</time></trkpt><trkpt lat="60.1014606189" lon="30.1223545521"><ele>30.90</ele><time>2026-08-11T19:26:03Z</time></trkpt><trkpt lat="60.1014516503" lon="30.1223885827"><ele>30.90</ele><time>2026-08-11T19:26:18Z</time></trkpt><trkpt lat="60.1014544163" lon="30.1223637722"><ele>30.90</ele><time>2026-08-11T19:26:37Z</time></trkpt><trkpt lat="60.1014589425" lon="30.1223222818"><ele>30.90</ele><time>2026-08-11T19:26:58Z</time></trkpt><trkpt lat="60.1014634687" lon="30.1223529596"><ele>30.90</ele><time>2026-08-11T19:27:23Z</time></trkpt><trkpt lat="60.1014625467" lon="30.1223512832"><ele>30.90</ele><time>2026-08-11T19:27:26Z</time></trkpt><trkpt lat="60.1014623791" lon="30.1222601719"><ele>30.90</ele><time>2026-08-11T19:27:39Z</time></trkpt><trkpt lat="60.1014780533" lon="30.1222737506"><ele>30.90</ele><time>2026-08-11T19:27:59Z</time></trkpt><trkpt lat="60.1014940627" lon="30.1222812105"><ele>30.90</ele><time>2026-08-11T19:28:23Z</time></trkpt><trkpt lat="60.1014800649" lon="30.1222792827"><ele>31.38</ele><time>2026-08-11T19:28:38Z</time></trkpt><trkpt lat="60.1014744490" lon="30.1223869901"><ele>31.38</ele><time>2026-08-11T19:28:48Z</time></trkpt><trkpt lat="60.1014432684" lon="30.1224469207"><ele>31.38</ele><time>2026-08-11T19:29:01Z</time></trkpt><trkpt lat="60.1014337130" lon="30.1224170811"><ele>31.38</ele><time>2026-08-11T19:29:19Z</time></trkpt><trkpt lat="60.1014098246" lon="30.1223990601"><ele>31.38</ele><time>2026-08-11T19:29:33Z</time></trkpt><trkpt lat="60.1014379039" lon="30.1224727370"><ele>31.38</ele><time>2026-08-11T19:29:49Z</time></trkpt><trkpt lat="60.1014160272" lon="30.1224661153"><ele>31.86</ele><time>2026-08-11T19:30:04Z</time></trkpt><trkpt lat="60.1014301088" lon="30.1224055141"><ele>31.86</ele><time>2026-08-11T19:30:22Z</time></trkpt><trkpt lat="60.1014272589" lon="30.1224042568"><ele>31.86</ele><time>2026-08-11T19:30:23Z</time></trkpt><trkpt lat="60.1014347188" lon="30.1223390456"><ele>31.86</ele><time>2026-08-11T19:30:35Z</time></trkpt><trkpt lat="60.1013958268" lon="30.1223118883"><ele>31.86</ele><time>2026-08-11T19:30:42Z</time></trkpt><trkpt lat="60.1013628859" lon="30.1222675480"><ele>32.34</ele><time>2026-08-11T19:30:52Z</time></trkpt><trkpt lat="60.1013622154" lon="30.1223096251"><ele>32.34</ele><time>2026-08-11T19:31:08Z</time></trkpt><trkpt lat="60.1013630535" lon="30.1222926099"><ele>32.34</ele><time>2026-08-11T19:31:26Z</time></trkpt><trkpt lat="60.1013755426" lon="30.1222779416"><ele>32.34</ele><time>2026-08-11T19:31:43Z</time></trkpt><trkpt lat="60.1013735309" lon="30.1222963817"><ele>32.82</ele><time>2026-08-11T19:31:56Z</time></trkpt><trkpt lat="60.1013611257" lon="30.1222780254"><ele>32.82</ele><time>2026-08-11T19:32:12Z</time></trkpt><trkpt lat="60.1013599522" lon="30.1222543046"><ele>32.82</ele><time>2026-08-11T19:32:24Z</time></trkpt><trkpt lat="60.1013422664" lon="30.1222650334"><ele>33.30</ele><time>2026-08-11T19:32:48Z</time></trkpt><trkpt lat="60.1013389975" lon="30.1222583279"><ele>33.30</ele><time>2026-08-11T19:33:03Z</time></trkpt><trkpt lat="60.1013215631" lon="30.1222161669"><ele>33.30</ele><time>2026-08-11T19:33:16Z</time></trkpt><trkpt lat="60.1012890413" lon="30.1221665461"><ele>33.30</ele><time>2026-08-11T19:33:27Z</time></trkpt><trkpt lat="60.1012703497" lon="30.1221493632"><ele>32.82</ele><time>2026-08-11T19:33:42Z</time></trkpt><trkpt lat="60.1012560166" lon="30.1221412327"><ele>32.82</ele><time>2026-08-11T19:33:48Z</time></trkpt><trkpt lat="60.1011548471" lon="30.1219464373"><ele>32.82</ele><time>2026-08-11T19:33:58Z</time></trkpt><trkpt lat="60.1011038851" lon="30.1218794659"><ele>32.82</ele><time>2026-08-11T19:34:11Z</time></trkpt><trkpt lat="60.1010973472" lon="30.1217373926"><ele>32.82</ele><time>2026-08-11T19:34:30Z</time></trkpt><trkpt lat="60.1010370813" lon="30.1216321159"><ele>33.30</ele><time>2026-08-11T19:34:43Z</time></trkpt><trkpt lat="60.1010084152" lon="30.1214960776"><ele>34.26</ele><time>2026-08-11T19:35:00Z</time></trkpt><trkpt lat="60.1009992789" lon="30.1213565189"><ele>34.74</ele><time>2026-08-11T19:35:20Z</time></trkpt><trkpt lat="60.1009711996" lon="30.1212890446"><ele>35.23</ele><time>2026-08-11T19:35:33Z</time></trkpt><trkpt lat="60.1008819323" lon="30.1211593766"><ele>35.23</ele><time>2026-08-11T19:35:48Z</time></trkpt><trkpt lat="60.1007916592" lon="30.1209612284"><ele>35.23</ele><time>2026-08-11T19:36:01Z</time></trkpt><trkpt lat="60.1008383464" lon="30.1206899900"><ele>35.71</ele><time>2026-08-11T19:36:16Z</time></trkpt><trkpt lat="60.1008251030" lon="30.1206919178"><ele>35.71</ele><time>2026-08-11T19:36:28Z</time></trkpt><trkpt lat="60.1008027233" lon="30.1207129564"><ele>36.19</ele><time>2026-08-11T19:36:41Z</time></trkpt><trkpt lat="60.1007875521" lon="30.1207456458"><ele>36.19</ele><time>2026-08-11T19:36:53Z</time></trkpt><trkpt lat="60.1008345746" lon="30.1208730508"><ele>35.71</ele><time>2026-08-11T19:37:08Z</time></trkpt><trkpt lat="60.1008775737" lon="30.1209232584"><ele>35.71</ele><time>2026-08-11T19:37:21Z</time></trkpt><trkpt lat="60.1009979378" lon="30.1209857874"><ele>35.71</ele><time>2026-08-11T19:37:36Z</time></trkpt><trkpt lat="60.1010999456" lon="30.1211156230"><ele>35.71</ele><time>2026-08-11T19:37:51Z</time></trkpt><trkpt lat="60.1012277696" lon="30.1212203968"><ele>35.71</ele><time>2026-08-11T19:38:07Z</time></trkpt><trkpt lat="60.1012102515" lon="30.1213245839"><ele>36.19</ele><time>2026-08-11T19:38:21Z</time></trkpt><trkpt lat="60.1013764646" lon="30.1215485483"><ele>36.19</ele><time>2026-08-11T19:38:34Z</time></trkpt><trkpt lat="60.1014778856" lon="30.1217044517"><ele>36.19</ele><time>2026-08-11T19:38:47Z</time></trkpt><trkpt lat="60.1014856808" lon="30.1217730157"><ele>36.19</ele><time>2026-08-11T19:39:00Z</time></trkpt><trkpt lat="60.1015791390" lon="30.1218325272"><ele>36.19</ele><time>2026-08-11T19:39:11Z</time></trkpt><trkpt lat="60.1015616208" lon="30.1218586788"><ele>36.67</ele><time>2026-08-11T19:39:24Z</time></trkpt><trkpt lat="60.1015481260" lon="30.1218727604"><ele>37.15</ele><time>2026-08-11T19:39:37Z</time></trkpt><trkpt lat="60.1015277579" lon="30.1218670607"><ele>37.15</ele><time>2026-08-11T19:39:55Z</time></trkpt><trkpt lat="60.1014964934" lon="30.1219120715"><ele>37.63</ele><time>2026-08-11T19:40:09Z</time></trkpt><trkpt lat="60.1014727727" lon="30.1219451800"><ele>38.11</ele><time>2026-08-11T19:40:34Z</time></trkpt><trkpt lat="60.1014814060" lon="30.1219552383"><ele>38.11</ele><time>2026-08-11T19:40:52Z</time></trkpt><trkpt lat="60.1015113294" lon="30.1219684817"><ele>38.11</ele><time>2026-08-11T19:41:04Z</time></trkpt><trkpt lat="60.1015303563" lon="30.1219554059"><ele>38.59</ele><time>2026-08-11T19:41:20Z</time></trkpt><trkpt lat="60.1015152689" lon="30.1222320925"><ele>38.59</ele><time>2026-08-11T19:41:33Z</time></trkpt></trkseg><trkseg><trkpt lat="60.2030474413" lon="29.7149634641"><ele>40.51</ele><time>2026-08-22T08:53:16Z</time></trkpt><trkpt lat="60.2030416578" lon="29.7149674874"><ele>40.51</ele><time>2026-08-22T08:53:17Z</time></trkpt><trkpt lat="60.2030231338" lon="29.7150187846"><ele>40.51</ele><time>2026-08-22T08:53:19Z</time></trkpt><trkpt lat="60.2029901929" lon="29.7152235545"><ele>40.51</ele><time>2026-08-22T08:53:31Z</time></trkpt><trkpt lat="60.2029984910" lon="29.7157278936"><ele>40.51</ele><time>2026-08-22T08:53:43Z</time></trkpt><trkpt lat="60.2030279953" lon="29.7159181628"><ele>40.51</ele><time>2026-08-22T08:53:49Z</time></trkpt><trkpt lat="60.2030245587" lon="29.7159470804"><ele>40.51</ele><time>2026-08-22T08:53:50Z</time></trkpt><trkpt lat="60.2030207869" lon="29.7159816138"><ele>40.51</ele><time>2026-08-22T08:53:51Z</time></trkpt><trkpt lat="60.2030187752" lon="29.7160206735"><ele>40.51</ele><time>2026-08-22T08:53:52Z</time></trkpt><trkpt lat="60.2030193619" lon="29.7160630859"><ele>40.51</ele><time>2026-08-22T08:53:53Z</time></trkpt><trkpt lat="60.2030217927" lon="29.7161057498"><ele>40.51</ele><time>2026-08-22T08:53:54Z</time></trkpt><trkpt lat="60.2030290850" lon="29.7161490005"><ele>40.51</ele><time>2026-08-22T08:53:55Z</time></trkpt><trkpt lat="60.2031493653" lon="29.7166996077"><ele>40.03</ele><time>2026-08-22T08:54:08Z</time></trkpt><trkpt lat="60.2032373752" lon="29.7172504663"><ele>40.03</ele><time>2026-08-22T08:54:20Z</time></trkpt><trkpt lat="60.2033205237" lon="29.7177607566"><ele>40.03</ele><time>2026-08-22T08:54:32Z</time></trkpt><trkpt lat="60.2033856511" lon="29.7183208354"><ele>40.03</ele><time>2026-08-22T08:54:43Z</time></trkpt><trkpt lat="60.2034988906" lon="29.7188225761"><ele>40.03</ele><time>2026-08-22T08:54:55Z</time></trkpt><trkpt lat="60.2037560474" lon="29.7193155158"><ele>39.55</ele><time>2026-08-22T08:55:07Z</time></trkpt><trkpt lat="60.2039319836" lon="29.7197032627"><ele>39.55</ele><time>2026-08-22T08:55:19Z</time></trkpt><trkpt lat="60.2039562073" lon="29.7197106387"><ele>39.55</ele><time>2026-08-22T08:55:42Z</time></trkpt><trkpt lat="60.2039645053" lon="29.7197346948"><ele>39.07</ele><time>2026-08-22T08:56:04Z</time></trkpt><trkpt lat="60.2040068340" lon="29.7198861558"><ele>39.07</ele><time>2026-08-22T08:56:23Z</time></trkpt><trkpt lat="60.2040322311" lon="29.7199564800"><ele>39.07</ele><time>2026-08-22T08:56:25Z</time></trkpt><trkpt lat="60.2040452231" lon="29.7199857328"><ele>39.07</ele><time>2026-08-22T08:56:26Z</time></trkpt><trkpt lat="60.2040497493" lon="29.7200470883"><ele>39.07</ele><time>2026-08-22T08:56:28Z</time></trkpt><trkpt lat="60.2040516771" lon="29.7200786881"><ele>39.07</ele><time>2026-08-22T08:56:29Z</time></trkpt><trkpt lat="60.2040592209" lon="29.7201128025"><ele>39.07</ele><time>2026-08-22T08:56:30Z</time></trkpt><trkpt lat="60.2041790821" lon="29.7206344921"><ele>39.07</ele><time>2026-08-22T08:56:44Z</time></trkpt><trkpt lat="60.2042044792" lon="29.7207090072"><ele>39.07</ele><time>2026-08-22T08:56:48Z</time></trkpt><trkpt lat="60.2042158786" lon="29.7207421158"><ele>39.07</ele><time>2026-08-22T08:56:49Z</time></trkpt><trkpt lat="60.2042299602" lon="29.7207779065"><ele>39.07</ele><time>2026-08-22T08:56:50Z</time></trkpt><trkpt lat="60.2042452153" lon="29.7208178882"><ele>39.07</ele><time>2026-08-22T08:56:51Z</time></trkpt><trkpt lat="60.2042592131" lon="29.7208598815"><ele>39.07</ele><time>2026-08-22T08:56:52Z</time></trkpt><trkpt lat="60.2042810898" lon="29.7208948340"><ele>39.07</ele><time>2026-08-22T08:56:53Z</time></trkpt><trkpt lat="60.2042947523" lon="29.7209279425"><ele>39.07</ele><time>2026-08-22T08:56:54Z</time></trkpt><trkpt lat="60.2043084987" lon="29.7209647391"><ele>39.07</ele><time>2026-08-22T08:56:55Z</time></trkpt><trkpt lat="60.2043515816" lon="29.7210682556"><ele>38.59</ele><time>2026-08-22T08:56:58Z</time></trkpt><trkpt lat="60.2043721173" lon="29.7210952453"><ele>38.59</ele><time>2026-08-22T08:56:59Z</time></trkpt><trkpt lat="60.2043887973" lon="29.7211250849"><ele>38.59</ele><time>2026-08-22T08:57:00Z</time></trkpt><trkpt lat="60.2043990232" lon="29.7211581934"><ele>38.59</ele><time>2026-08-22T08:57:01Z</time></trkpt><trkpt lat="60.2044100873" lon="29.7211949062"><ele>38.59</ele><time>2026-08-22T08:57:02Z</time></trkpt><trkpt lat="60.2044232469" lon="29.7212378215"><ele>38.59</ele><time>2026-08-22T08:57:03Z</time></trkpt><trkpt lat="60.2044321317" lon="29.7212797310"><ele>38.59</ele><time>2026-08-22T08:57:04Z</time></trkpt><trkpt lat="60.2044426091" lon="29.7213223111"><ele>38.59</ele><time>2026-08-22T08:57:05Z</time></trkpt><trkpt lat="60.2044513263" lon="29.7213676572"><ele>38.59</ele><time>2026-08-22T08:57:06Z</time></trkpt><trkpt lat="60.2044914756" lon="29.7219961323"><ele>38.59</ele><time>2026-08-22T08:57:22Z</time></trkpt><trkpt lat="60.2046410926" lon="29.7224048339"><ele>38.59</ele><time>2026-08-22T08:57:35Z</time></trkpt><trkpt lat="60.2046834212" lon="29.7230711952"><ele>38.11</ele><time>2026-08-22T08:57:49Z</time></trkpt><trkpt lat="60.2047251631" lon="29.7232233267"><ele>39.07</ele><time>2026-08-22T08:57:53Z</time></trkpt><trkpt lat="60.2047357243" lon="29.7232581116"><ele>39.07</ele><time>2026-08-22T08:57:54Z</time></trkpt><trkpt lat="60.2047452796" lon="29.7232884541"><ele>39.07</ele><time>2026-08-22T08:57:55Z</time></trkpt><trkpt lat="60.2047586907" lon="29.7233055532"><ele>39.07</ele><time>2026-08-22T08:57:56Z</time></trkpt><trkpt lat="60.2047741972" lon="29.7233217303"><ele>39.07</ele><time>2026-08-22T08:57:57Z</time></trkpt><trkpt lat="60.2047912125" lon="29.7233669925"><ele>39.07</ele><time>2026-08-22T08:57:59Z</time></trkpt><trkpt lat="60.2049020212" lon="29.7238544840"><ele>38.59</ele><time>2026-08-22T08:58:13Z</time></trkpt><trkpt lat="60.2050003409" lon="29.7242377885"><ele>38.59</ele><time>2026-08-22T08:58:24Z</time></trkpt><trkpt lat="60.2050055377" lon="29.7242733277"><ele>38.59</ele><time>2026-08-22T08:58:25Z</time></trkpt><trkpt lat="60.2050520573" lon="29.7244415525"><ele>38.59</ele><time>2026-08-22T08:58:29Z</time></trkpt><trkpt lat="60.2051300090" lon="29.7246886510"><ele>38.59</ele><time>2026-08-22T08:58:36Z</time></trkpt><trkpt lat="60.2051927894" lon="29.7251402680"><ele>38.59</ele><time>2026-08-22T08:58:48Z</time></trkpt><trkpt lat="60.2051937953" lon="29.7255006898"><ele>38.11</ele><time>2026-08-22T08:58:55Z</time></trkpt><trkpt lat="60.2051945496" lon="29.7255332116"><ele>38.11</ele><time>2026-08-22T08:58:56Z</time></trkpt><trkpt lat="60.2051527239" lon="29.7261775285"><ele>38.11</ele><time>2026-08-22T08:59:09Z</time></trkpt><trkpt lat="60.2051659673" lon="29.7262043506"><ele>38.11</ele><time>2026-08-22T08:59:10Z</time></trkpt><trkpt lat="60.2051817253" lon="29.7262393031"><ele>38.11</ele><time>2026-08-22T08:59:11Z</time></trkpt><trkpt lat="60.2051967289" lon="29.7262753453"><ele>38.11</ele><time>2026-08-22T08:59:12Z</time></trkpt><trkpt lat="60.2052018419" lon="29.7263176739"><ele>38.11</ele><time>2026-08-22T08:59:13Z</time></trkpt><trkpt lat="60.2052113973" lon="29.7263499442"><ele>38.11</ele><time>2026-08-22T08:59:14Z</time></trkpt><trkpt lat="60.2052227966" lon="29.7263784427"><ele>38.11</ele><time>2026-08-22T08:59:15Z</time></trkpt><trkpt lat="60.2052306756" lon="29.7264208551"><ele>38.11</ele><time>2026-08-22T08:59:16Z</time></trkpt><trkpt lat="60.2052436676" lon="29.7264484316"><ele>38.11</ele><time>2026-08-22T08:59:17Z</time></trkpt><trkpt lat="60.2052566595" lon="29.7264760081"><ele>38.11</ele><time>2026-08-22T08:59:18Z</time></trkpt><trkpt lat="60.2052704059" lon="29.7265086975"><ele>38.11</ele><time>2026-08-22T08:59:19Z</time></trkpt><trkpt lat="60.2052825596" lon="29.7265459970"><ele>38.11</ele><time>2026-08-22T08:59:20Z</time></trkpt><trkpt lat="60.2052911930" lon="29.7265848052"><ele>38.59</ele><time>2026-08-22T08:59:21Z</time></trkpt><trkpt lat="60.2052993234" lon="29.7266259603"><ele>38.59</ele><time>2026-08-22T08:59:22Z</time></trkpt><trkpt lat="60.2053195238" lon="29.7268400341"><ele>38.59</ele><time>2026-08-22T08:59:27Z</time></trkpt><trkpt lat="60.2053167578" lon="29.7268989589"><ele>38.59</ele><time>2026-08-22T08:59:28Z</time></trkpt><trkpt lat="60.2054268960" lon="29.7275108378"><ele>38.11</ele><time>2026-08-22T08:59:43Z</time></trkpt><trkpt lat="60.2054612618" lon="29.7276453674"><ele>38.11</ele><time>2026-08-22T08:59:48Z</time></trkpt><trkpt lat="60.2054785285" lon="29.7276726086"><ele>38.11</ele><time>2026-08-22T08:59:49Z</time></trkpt><trkpt lat="60.2057345118" lon="29.7280865908"><ele>38.11</ele><time>2026-08-22T09:00:03Z</time></trkpt><trkpt lat="60.2058913372" lon="29.7285879124"><ele>38.59</ele><time>2026-08-22T09:00:15Z</time></trkpt><trkpt lat="60.2058982104" lon="29.7286356054"><ele>38.59</ele><time>2026-08-22T09:00:16Z</time></trkpt><trkpt lat="60.2059034910" lon="29.7286891658"><ele>38.59</ele><time>2026-08-22T09:00:17Z</time></trkpt><trkpt lat="60.2059117891" lon="29.7287316620"><ele>38.59</ele><time>2026-08-22T09:00:18Z</time></trkpt><trkpt lat="60.2059227694" lon="29.7287716437"><ele>38.59</ele><time>2026-08-22T09:00:19Z</time></trkpt><trkpt lat="60.2059909143" lon="29.7289423831"><ele>38.59</ele><time>2026-08-22T09:00:25Z</time></trkpt><trkpt lat="60.2060934249" lon="29.7290681116"><ele>38.11</ele><time>2026-08-22T09:00:36Z</time></trkpt><trkpt lat="60.2061687782" lon="29.7293869592"><ele>38.11</ele><time>2026-08-22T09:00:50Z</time></trkpt><trkpt lat="60.2062593028" lon="29.7297167871"><ele>38.11</ele><time>2026-08-22T09:01:03Z</time></trkpt><trkpt lat="60.2062831912" lon="29.7297691740"><ele>38.11</ele><time>2026-08-22T09:01:08Z</time></trkpt><trkpt lat="60.2063007094" lon="29.7298112512"><ele>38.11</ele><time>2026-08-22T09:01:10Z</time></trkpt><trkpt lat="60.2063020505" lon="29.7300959844"><ele>37.63</ele><time>2026-08-22T09:01:17Z</time></trkpt><trkpt lat="60.2063867915" lon="29.7305561509"><ele>37.63</ele><time>2026-08-22T09:01:30Z</time></trkpt><trkpt lat="60.2065012045" lon="29.7307468392"><ele>37.63</ele><time>2026-08-22T09:01:46Z</time></trkpt><trkpt lat="60.2066010330" lon="29.7308451589"><ele>38.11</ele><time>2026-08-22T09:01:57Z</time></trkpt><trkpt lat="60.2066724468" lon="29.7309160698"><ele>38.11</ele><time>2026-08-22T09:02:04Z</time></trkpt><trkpt lat="60.2068185434" lon="29.7311293054"><ele>38.11</ele><time>2026-08-22T09:02:23Z</time></trkpt><trkpt lat="60.2068548370" lon="29.7311747354"><ele>38.11</ele><time>2026-08-22T09:02:27Z</time></trkpt><trkpt lat="60.2070038673" lon="29.7315096762"><ele>38.11</ele><time>2026-08-22T09:02:42Z</time></trkpt><trkpt lat="60.2071166039" lon="29.7316368297"><ele>38.11</ele><time>2026-08-22T09:02:56Z</time></trkpt><trkpt lat="60.2072243951" lon="29.7318053897"><ele>38.11</ele><time>2026-08-22T09:03:11Z</time></trkpt><trkpt lat="60.2073207870" lon="29.7321384866"><ele>38.59</ele><time>2026-08-22T09:03:26Z</time></trkpt><trkpt lat="60.2074302547" lon="29.7323318571"><ele>38.59</ele><time>2026-08-22T09:03:37Z</time></trkpt><trkpt lat="60.2077304944" lon="29.7327620164"><ele>39.07</ele><time>2026-08-22T09:03:53Z</time></trkpt><trkpt lat="60.2079553809" lon="29.7333339136"><ele>39.55</ele><time>2026-08-22T09:04:07Z</time></trkpt><trkpt lat="60.2081259526" lon="29.7338864487"><ele>39.55</ele><time>2026-08-22T09:04:21Z</time></trkpt><trkpt lat="60.2082564589" lon="29.7341817431"><ele>39.55</ele><time>2026-08-22T09:04:29Z</time></trkpt><trkpt lat="60.2083121147" lon="29.7343337908"><ele>39.55</ele><time>2026-08-22T09:04:33Z</time></trkpt><trkpt lat="60.2084592171" lon="29.7347397264"><ele>39.55</ele><time>2026-08-22T09:04:46Z</time></trkpt><trkpt lat="60.2085925732" lon="29.7351185884"><ele>40.03</ele><time>2026-08-22T09:05:01Z</time></trkpt><trkpt lat="60.2087170444" lon="29.7353905812"><ele>39.55</ele><time>2026-08-22T09:05:14Z</time></trkpt><trkpt lat="60.2088700142" lon="29.7357824352"><ele>39.55</ele><time>2026-08-22T09:05:28Z</time></trkpt><trkpt lat="60.2090911288" lon="29.7362430207"><ele>39.55</ele><time>2026-08-22T09:05:41Z</time></trkpt><trkpt lat="60.2092444338" lon="29.7366751079"><ele>39.55</ele><time>2026-08-22T09:05:52Z</time></trkpt><trkpt lat="60.2092520613" lon="29.7368547320"><ele>39.55</ele><time>2026-08-22T09:05:56Z</time></trkpt><trkpt lat="60.2092834096" lon="29.7370271478"><ele>39.07</ele><time>2026-08-22T09:06:00Z</time></trkpt><trkpt lat="60.2092381474" lon="29.7375187464"><ele>39.07</ele><time>2026-08-22T09:06:12Z</time></trkpt><trkpt lat="60.2091253269" lon="29.7382674180"><ele>39.07</ele><time>2026-08-22T09:06:24Z</time></trkpt><trkpt lat="60.2091323677" lon="29.7383345570"><ele>39.07</ele><time>2026-08-22T09:06:26Z</time></trkpt><trkpt lat="60.2091419231" lon="29.7383648995"><ele>39.07</ele><time>2026-08-22T09:06:27Z</time></trkpt><trkpt lat="60.2091575973" lon="29.7384037077"><ele>39.07</ele><time>2026-08-22T09:06:28Z</time></trkpt><trkpt lat="60.2091739420" lon="29.7384620458"><ele>39.07</ele><time>2026-08-22T09:06:29Z</time></trkpt><trkpt lat="60.2091871854" lon="29.7385265864"><ele>39.55</ele><time>2026-08-22T09:06:30Z</time></trkpt><trkpt lat="60.2092018537" lon="29.7385786381"><ele>39.55</ele><time>2026-08-22T09:06:31Z</time></trkpt><trkpt lat="60.2092174441" lon="29.7386264987"><ele>39.55</ele><time>2026-08-22T09:06:32Z</time></trkpt><trkpt lat="60.2092311904" lon="29.7386727668"><ele>39.55</ele><time>2026-08-22T09:06:33Z</time></trkpt><trkpt lat="60.2094656322" lon="29.7391866613"><ele>40.03</ele><time>2026-08-22T09:06:47Z</time></trkpt><trkpt lat="60.2095868345" lon="29.7395333368"><ele>40.51</ele><time>2026-08-22T09:07:00Z</time></trkpt><trkpt lat="60.2096543927" lon="29.7398470715"><ele>40.51</ele><time>2026-08-22T09:07:12Z</time></trkpt><trkpt lat="60.2097146586" lon="29.7399686929"><ele>40.51</ele><time>2026-08-22T09:07:16Z</time></trkpt><trkpt lat="60.2097842284" lon="29.7400533501"><ele>40.51</ele><time>2026-08-22T09:07:28Z</time></trkpt><trkpt lat="60.2097538859" lon="29.7401437908"><ele>40.99</ele><time>2026-08-22T09:07:52Z</time></trkpt><trkpt lat="60.2097819652" lon="29.7402054816"><ele>40.99</ele><time>2026-08-22T09:07:56Z</time></trkpt><trkpt lat="60.2098595817" lon="29.7403633967"><ele>40.99</ele><time>2026-08-22T09:08:01Z</time></trkpt><trkpt lat="60.2100289799" lon="29.7409654688"><ele>41.95</ele><time>2026-08-22T09:08:15Z</time></trkpt><trkpt lat="60.2101784293" lon="29.7412995715"><ele>42.44</ele><time>2026-08-22T09:08:26Z</time></trkpt><trkpt lat="60.2103945147" lon="29.7418229375"><ele>43.88</ele><time>2026-08-22T09:08:42Z</time></trkpt><trkpt lat="60.2105960995" lon="29.7423025500"><ele>44.84</ele><time>2026-08-22T09:08:55Z</time></trkpt><trkpt lat="60.2107077464" lon="29.7428127564"><ele>46.28</ele><time>2026-08-22T09:09:07Z</time></trkpt><trkpt lat="60.2107615583" lon="29.7431279998"><ele>48.20</ele><time>2026-08-22T09:09:19Z</time></trkpt><trkpt lat="60.2107287012" lon="29.7433098033"><ele>48.20</ele><time>2026-08-22T09:09:33Z</time></trkpt><trkpt lat="60.2107315511" lon="29.7433077078"><ele>48.20</ele><time>2026-08-22T09:09:50Z</time></trkpt><trkpt lat="60.2107347362" lon="29.7433274053"><ele>48.20</ele><time>2026-08-22T09:10:03Z</time></trkpt><trkpt lat="60.2107261028" lon="29.7433175985"><ele>48.20</ele><time>2026-08-22T09:10:37Z</time></trkpt><trkpt lat="60.2107314672" lon="29.7433221247"><ele>48.20</ele><time>2026-08-22T09:10:55Z</time></trkpt><trkpt lat="60.2107375022" lon="29.7433411516"><ele>47.24</ele><time>2026-08-22T09:11:19Z</time></trkpt><trkpt lat="60.2107404359" lon="29.7433387209"><ele>47.24</ele><time>2026-08-22T09:11:53Z</time></trkpt><trkpt lat="60.2107566968" lon="29.7433404811"><ele>47.24</ele><time>2026-08-22T09:12:25Z</time></trkpt><trkpt lat="60.2107577864" lon="29.7433364578"><ele>47.24</ele><time>2026-08-22T09:13:04Z</time></trkpt><trkpt lat="60.2107549366" lon="29.7433352005"><ele>47.24</ele><time>2026-08-22T09:13:30Z</time></trkpt><trkpt lat="60.2107483149" lon="29.7433448397"><ele>47.24</ele><time>2026-08-22T09:13:57Z</time></trkpt><trkpt lat="60.2107468899" lon="29.7433487792"><ele>47.24</ele><time>2026-08-22T09:14:24Z</time></trkpt><trkpt lat="60.2107102610" lon="29.7433961369"><ele>48.20</ele><time>2026-08-22T09:14:38Z</time></trkpt><trkpt lat="60.2107093390" lon="29.7433808818"><ele>48.68</ele><time>2026-08-22T09:14:53Z</time></trkpt><trkpt lat="60.2106996160" lon="29.7434011661"><ele>48.68</ele><time>2026-08-22T09:15:09Z</time></trkpt><trkpt lat="60.2106900606" lon="29.7436144017"><ele>48.68</ele><time>2026-08-22T09:15:22Z</time></trkpt><trkpt lat="60.2107474767" lon="29.7440091055"><ele>48.68</ele><time>2026-08-22T09:15:35Z</time></trkpt><trkpt lat="60.2108159568" lon="29.7445333935"><ele>47.72</ele><time>2026-08-22T09:15:49Z</time></trkpt><trkpt lat="60.2108887117" lon="29.7447033785"><ele>47.72</ele><time>2026-08-22T09:16:01Z</time></trkpt><trkpt lat="60.2108916454" lon="29.7447368223"><ele>47.72</ele><time>2026-08-22T09:16:19Z</time></trkpt><trkpt lat="60.2108913101" lon="29.7447914723"><ele>47.72</ele><time>2026-08-22T09:16:24Z</time></trkpt><trkpt lat="60.2108996920" lon="29.7449050471"><ele>47.72</ele><time>2026-08-22T09:16:30Z</time></trkpt><trkpt lat="60.2109289449" lon="29.7450750321"><ele>47.72</ele><time>2026-08-22T09:16:34Z</time></trkpt><trkpt lat="60.2109845169" lon="29.7456285730"><ele>47.72</ele><time>2026-08-22T09:16:45Z</time></trkpt><trkpt lat="60.2110249177" lon="29.7460508533"><ele>48.68</ele><time>2026-08-22T09:16:59Z</time></trkpt><trkpt lat="60.2110027056" lon="29.7460702993"><ele>49.65</ele><time>2026-08-22T09:17:14Z</time></trkpt><trkpt lat="60.2110025380" lon="29.7460529488"><ele>49.65</ele><time>2026-08-22T09:17:16Z</time></trkpt><trkpt lat="60.2110000234" lon="29.7459418047"><ele>50.13</ele><time>2026-08-22T09:17:25Z</time></trkpt><trkpt lat="60.2110173739" lon="29.7460435610"><ele>50.13</ele><time>2026-08-22T09:17:42Z</time></trkpt><trkpt lat="60.2110259235" lon="29.7460321616"><ele>50.13</ele><time>2026-08-22T09:18:03Z</time></trkpt><trkpt lat="60.2110158652" lon="29.7460475005"><ele>50.13</ele><time>2026-08-22T09:18:22Z</time></trkpt><trkpt lat="60.2110243309" lon="29.7461095266"><ele>50.13</ele><time>2026-08-22T09:18:36Z</time></trkpt><trkpt lat="60.2111246623" lon="29.7461356781"><ele>50.13</ele><time>2026-08-22T09:18:53Z</time></trkpt><trkpt lat="60.2111732773" lon="29.7462761588"><ele>51.09</ele><time>2026-08-22T09:19:09Z</time></trkpt><trkpt lat="60.2112234849" lon="29.7463759873"><ele>51.09</ele><time>2026-08-22T09:19:23Z</time></trkpt><trkpt lat="60.2111981716" lon="29.7463831119"><ele>49.65</ele><time>2026-08-22T09:19:40Z</time></trkpt><trkpt lat="60.2112167794" lon="29.7464049049"><ele>49.65</ele><time>2026-08-22T09:20:02Z</time></trkpt><trkpt lat="60.2112136781" lon="29.7464053240"><ele>49.65</ele><time>2026-08-22T09:20:23Z</time></trkpt><trkpt lat="60.2112086490" lon="29.7464014683"><ele>49.65</ele><time>2026-08-22T09:20:54Z</time></trkpt><trkpt lat="60.2112114988" lon="29.7464214172"><ele>49.65</ele><time>2026-08-22T09:21:15Z</time></trkpt><trkpt lat="60.2112193778" lon="29.7464079224"><ele>49.65</ele><time>2026-08-22T09:21:31Z</time></trkpt><trkpt lat="60.2112302743" lon="29.7464099340"><ele>49.65</ele><time>2026-08-22T09:21:47Z</time></trkpt><trkpt lat="60.2112407517" lon="29.7464142088"><ele>50.13</ele><time>2026-08-22T09:22:04Z</time></trkpt><trkpt lat="60.2112445235" lon="29.7464332357"><ele>50.13</ele><time>2026-08-22T09:22:21Z</time></trkpt><trkpt lat="60.2112455294" lon="29.7464495804"><ele>51.09</ele><time>2026-08-22T09:22:41Z</time></trkpt><trkpt lat="60.2112451103" lon="29.7464538552"><ele>51.57</ele><time>2026-08-22T09:22:59Z</time></trkpt><trkpt lat="60.2112408355" lon="29.7464572079"><ele>51.57</ele><time>2026-08-22T09:23:19Z</time></trkpt><trkpt lat="60.2112408355" lon="29.7464683559"><ele>51.57</ele><time>2026-08-22T09:23:41Z</time></trkpt><trkpt lat="60.2112445235" lon="29.7464756481"><ele>51.57</ele><time>2026-08-22T09:23:55Z</time></trkpt><trkpt lat="60.2112514805" lon="29.7464947589"><ele>51.57</ele><time>2026-08-22T09:24:17Z</time></trkpt><trkpt lat="60.2112529054" lon="29.7465227544"><ele>51.57</ele><time>2026-08-22T09:24:41Z</time></trkpt><trkpt lat="60.2112539951" lon="29.7465395182"><ele>51.57</ele><time>2026-08-22T09:25:09Z</time></trkpt><trkpt lat="60.2112619579" lon="29.7465608083"><ele>51.57</ele><time>2026-08-22T09:25:29Z</time></trkpt><trkpt lat="60.2112620417" lon="29.7465792485"><ele>51.57</ele><time>2026-08-22T09:25:48Z</time></trkpt><trkpt lat="60.2112636343" lon="29.7465860378"><ele>51.57</ele><time>2026-08-22T09:26:09Z</time></trkpt><trkpt lat="60.2112685796" lon="29.7465803381"><ele>51.57</ele><time>2026-08-22T09:26:30Z</time></trkpt><trkpt lat="60.2112691663" lon="29.7465950064"><ele>51.57</ele><time>2026-08-22T09:26:47Z</time></trkpt><trkpt lat="60.2112653945" lon="29.7465917375"><ele>51.57</ele><time>2026-08-22T09:27:10Z</time></trkpt><trkpt lat="60.2112652268" lon="29.7465783264"><ele>51.57</ele><time>2026-08-22T09:27:25Z</time></trkpt><trkpt lat="60.2112499718" lon="29.7465561144"><ele>51.57</ele><time>2026-08-22T09:27:42Z</time></trkpt><trkpt lat="60.2112405002" lon="29.7465380095"><ele>51.57</ele><time>2026-08-22T09:28:00Z</time></trkpt><trkpt lat="60.2112468705" lon="29.7465245146"><ele>51.57</ele><time>2026-08-22T09:28:20Z</time></trkpt><trkpt lat="60.2112501394" lon="29.7465090919"><ele>52.05</ele><time>2026-08-22T09:28:39Z</time></trkpt><trkpt lat="60.2112366445" lon="29.7464688588"><ele>52.05</ele><time>2026-08-22T09:29:08Z</time></trkpt><trkpt lat="60.2112362254" lon="29.7464746423"><ele>52.05</ele><time>2026-08-22T09:29:21Z</time></trkpt><trkpt lat="60.2111622971" lon="29.7465388477"><ele>52.53</ele><time>2026-08-22T09:29:34Z</time></trkpt><trkpt lat="60.2111634705" lon="29.7465123609"><ele>52.53</ele><time>2026-08-22T09:29:44Z</time></trkpt><trkpt lat="60.2112156060" lon="29.7464919928"><ele>52.53</ele><time>2026-08-22T09:30:01Z</time></trkpt><trkpt lat="60.2112220600" lon="29.7464935016"><ele>52.53</ele><time>2026-08-22T09:30:25Z</time></trkpt><trkpt lat="60.2111819107" lon="29.7465196531"><ele>52.53</ele><time>2026-08-22T09:30:36Z</time></trkpt><trkpt lat="60.2111425158" lon="29.7465984430"><ele>52.53</ele><time>2026-08-22T09:30:46Z</time></trkpt><trkpt lat="60.2111393306" lon="29.7466402687"><ele>52.53</ele><time>2026-08-22T09:30:48Z</time></trkpt><trkpt lat="60.2111547533" lon="29.7471227311"><ele>52.53</ele><time>2026-08-22T09:31:03Z</time></trkpt><trkpt lat="60.2112380695" lon="29.7476305906"><ele>53.97</ele><time>2026-08-22T09:31:17Z</time></trkpt><trkpt lat="60.2112768777" lon="29.7482045833"><ele>55.41</ele><time>2026-08-22T09:31:32Z</time></trkpt><trkpt lat="60.2113550808" lon="29.7487322241"><ele>56.86</ele><time>2026-08-22T09:31:44Z</time></trkpt><trkpt lat="60.2113986667" lon="29.7492218949"><ele>57.82</ele><time>2026-08-22T09:31:58Z</time></trkpt><trkpt lat="60.2114507183" lon="29.7497749329"><ele>58.30</ele><time>2026-08-22T09:32:12Z</time></trkpt><trkpt lat="60.2114764508" lon="29.7501058504"><ele>58.78</ele><time>2026-08-22T09:32:26Z</time></trkpt><trkpt lat="60.2115636226" lon="29.7504428029"><ele>59.26</ele><time>2026-08-22T09:32:42Z</time></trkpt><trkpt lat="60.2115636226" lon="29.7505010571"><ele>59.74</ele><time>2026-08-22T09:32:47Z</time></trkpt><trkpt lat="60.2115915343" lon="29.7506792564"><ele>60.22</ele><time>2026-08-22T09:32:57Z</time></trkpt><trkpt lat="60.2115953900" lon="29.7509330604"><ele>60.70</ele><time>2026-08-22T09:33:04Z</time></trkpt><trkpt lat="60.2116616908" lon="29.7516496293"><ele>61.66</ele><time>2026-08-22T09:33:21Z</time></trkpt><trkpt lat="60.2116513811" lon="29.7516723443"><ele>62.14</ele><time>2026-08-22T09:33:42Z</time></trkpt><trkpt lat="60.2118424885" lon="29.7520229593"><ele>62.14</ele><time>2026-08-22T09:33:55Z</time></trkpt><trkpt lat="60.2120164130" lon="29.7524240334"><ele>61.66</ele><time>2026-08-22T09:34:08Z</time></trkpt><trkpt lat="60.2122175787" lon="29.7527296375"><ele>61.66</ele><time>2026-08-22T09:34:21Z</time></trkpt><trkpt lat="60.2124302275" lon="29.7533121798"><ele>61.66</ele><time>2026-08-22T09:34:36Z</time></trkpt><trkpt lat="60.2125737257" lon="29.7537162714"><ele>62.14</ele><time>2026-08-22T09:34:48Z</time></trkpt><trkpt lat="60.2128353249" lon="29.7543069441"><ele>62.14</ele><time>2026-08-22T09:35:05Z</time></trkpt><trkpt lat="60.2130115964" lon="29.7547837906"><ele>63.10</ele><time>2026-08-22T09:35:19Z</time></trkpt><trkpt lat="60.2130411007" lon="29.7554896306"><ele>63.10</ele><time>2026-08-22T09:35:33Z</time></trkpt><trkpt lat="60.2131926455" lon="29.7561936267"><ele>61.66</ele><time>2026-08-22T09:35:47Z</time></trkpt><trkpt lat="60.2133822441" lon="29.7569164820"><ele>57.82</ele><time>2026-08-22T09:36:01Z</time></trkpt><trkpt lat="60.2134255785" lon="29.7572092619"><ele>54.45</ele><time>2026-08-22T09:36:06Z</time></trkpt><trkpt lat="60.2135399915" lon="29.7578948177"><ele>54.45</ele><time>2026-08-22T09:36:19Z</time></trkpt><trkpt lat="60.2136830706" lon="29.7584871668"><ele>55.41</ele><time>2026-08-22T09:36:35Z</time></trkpt><trkpt lat="60.2138926182" lon="29.7589692939"><ele>56.86</ele><time>2026-08-22T09:36:51Z</time></trkpt><trkpt lat="60.2141453326" lon="29.7592851240"><ele>57.82</ele><time>2026-08-22T09:37:06Z</time></trkpt><trkpt lat="60.2143174969" lon="29.7594999522"><ele>57.82</ele><time>2026-08-22T09:37:18Z</time></trkpt><trkpt lat="60.2143707220" lon="29.7596105933"><ele>58.30</ele><time>2026-08-22T09:37:31Z</time></trkpt><trkpt lat="60.2145815268" lon="29.7600684129"><ele>58.30</ele><time>2026-08-22T09:37:45Z</time></trkpt><trkpt lat="60.2146800142" lon="29.7606430762"><ele>58.30</ele><time>2026-08-22T09:37:59Z</time></trkpt><trkpt lat="60.2146218438" lon="29.7610464133"><ele>58.30</ele><time>2026-08-22T09:38:13Z</time></trkpt><trkpt lat="60.2146250289" lon="29.7610752471"><ele>58.30</ele><time>2026-08-22T09:38:16Z</time></trkpt><trkpt lat="60.2146029845" lon="29.7612388618"><ele>58.78</ele><time>2026-08-22T09:38:30Z</time></trkpt><trkpt lat="60.2145951055" lon="29.7612423822"><ele>59.26</ele><time>2026-08-22T09:38:32Z</time></trkpt><trkpt lat="60.2145747375" lon="29.7612454835"><ele>59.26</ele><time>2026-08-22T09:38:35Z</time></trkpt><trkpt lat="60.2144615818" lon="29.7614196595"><ele>59.74</ele><time>2026-08-22T09:38:50Z</time></trkpt><trkpt lat="60.2144019026" lon="29.7615363356"><ele>60.22</ele><time>2026-08-22T09:39:03Z</time></trkpt><trkpt lat="60.2143692970" lon="29.7616514191"><ele>60.22</ele><time>2026-08-22T09:39:08Z</time></trkpt><trkpt lat="60.2143613342" lon="29.7617766447"><ele>60.70</ele><time>2026-08-22T09:39:11Z</time></trkpt><trkpt lat="60.2142497711" lon="29.7624409944"><ele>61.66</ele><time>2026-08-22T09:39:26Z</time></trkpt><trkpt lat="60.2142574824" lon="29.7630709782"><ele>62.14</ele><time>2026-08-22T09:39:38Z</time></trkpt><trkpt lat="60.2142720670" lon="29.7633157298"><ele>62.14</ele><time>2026-08-22T09:39:44Z</time></trkpt><trkpt lat="60.2142775990" lon="29.7634039912"><ele>62.14</ele><time>2026-08-22T09:39:46Z</time></trkpt><trkpt lat="60.2141266409" lon="29.7640680894"><ele>61.18</ele><time>2026-08-22T09:40:00Z</time></trkpt><trkpt lat="60.2139916085" lon="29.7646524757"><ele>60.22</ele><time>2026-08-22T09:40:10Z</time></trkpt><trkpt lat="60.2138296701" lon="29.7649738379"><ele>59.26</ele><time>2026-08-22T09:40:19Z</time></trkpt><trkpt lat="60.2137153409" lon="29.7652586550"><ele>58.30</ele><time>2026-08-22T09:40:32Z</time></trkpt><trkpt lat="60.2136882674" lon="29.7653466649"><ele>58.30</ele><time>2026-08-22T09:40:36Z</time></trkpt><trkpt lat="60.2136409096" lon="29.7655737307"><ele>58.78</ele><time>2026-08-22T09:40:50Z</time></trkpt><trkpt lat="60.2136295103" lon="29.7656281292"><ele>58.78</ele><time>2026-08-22T09:40:53Z</time></trkpt><trkpt lat="60.2135890257" lon="29.7658930812"><ele>58.78</ele><time>2026-08-22T09:40:59Z</time></trkpt><trkpt lat="60.2134787198" lon="29.7665155213"><ele>58.78</ele><time>2026-08-22T09:41:12Z</time></trkpt><trkpt lat="60.2134337090" lon="29.7670424916"><ele>60.22</ele><time>2026-08-22T09:41:23Z</time></trkpt><trkpt lat="60.2134912927" lon="29.7676003072"><ele>60.70</ele><time>2026-08-22T09:41:36Z</time></trkpt><trkpt lat="60.2136169374" lon="29.7680693585"><ele>61.18</ele><time>2026-08-22T09:41:48Z</time></trkpt><trkpt lat="60.2138018422" lon="29.7686600313"><ele>61.18</ele><time>2026-08-22T09:42:03Z</time></trkpt><trkpt lat="60.2140168380" lon="29.7693275660"><ele>59.74</ele><time>2026-08-22T09:42:19Z</time></trkpt><trkpt lat="60.2142661996" lon="29.7699465696"><ele>57.34</ele><time>2026-08-22T09:42:32Z</time></trkpt><trkpt lat="60.2145140525" lon="29.7708078101"><ele>55.41</ele><time>2026-08-22T09:42:46Z</time></trkpt><trkpt lat="60.2145474963" lon="29.7709534876"><ele>53.97</ele><time>2026-08-22T09:42:57Z</time></trkpt><trkpt lat="60.2145767491" lon="29.7710175253"><ele>53.49</ele><time>2026-08-22T09:43:10Z</time></trkpt><trkpt lat="60.2148797549" lon="29.7713401448"><ele>52.53</ele><time>2026-08-22T09:43:23Z</time></trkpt><trkpt lat="60.2152170427" lon="29.7716519516"><ele>50.61</ele><time>2026-08-22T09:43:37Z</time></trkpt><trkpt lat="60.2152469661" lon="29.7717049252"><ele>50.61</ele><time>2026-08-22T09:43:39Z</time></trkpt><trkpt lat="60.2152791526" lon="29.7717848886"><ele>50.61</ele><time>2026-08-22T09:43:45Z</time></trkpt><trkpt lat="60.2152519953" lon="29.7718866449"><ele>49.65</ele><time>2026-08-22T09:43:59Z</time></trkpt><trkpt lat="60.2152228262" lon="29.7719147243"><ele>49.65</ele><time>2026-08-22T09:44:08Z</time></trkpt><trkpt lat="60.2151503228" lon="29.7719414625"><ele>49.65</ele><time>2026-08-22T09:44:14Z</time></trkpt><trkpt lat="60.2150534280" lon="29.7719960287"><ele>49.16</ele><time>2026-08-22T09:44:28Z</time></trkpt><trkpt lat="60.2150370833" lon="29.7720216773"><ele>49.16</ele><time>2026-08-22T09:44:44Z</time></trkpt><trkpt lat="60.2150131110" lon="29.7722750623"><ele>48.68</ele><time>2026-08-22T09:44:59Z</time></trkpt><trkpt lat="60.2150199004" lon="29.7723320592"><ele>48.68</ele><time>2026-08-22T09:45:10Z</time></trkpt><trkpt lat="60.2150132786" lon="29.7723273654"><ele>47.72</ele><time>2026-08-22T09:45:21Z</time></trkpt><trkpt lat="60.2150237560" lon="29.7723283712"><ele>47.24</ele><time>2026-08-22T09:45:37Z</time></trkpt><trkpt lat="60.2150266059" lon="29.7723308858"><ele>47.24</ele><time>2026-08-22T09:45:59Z</time></trkpt><trkpt lat="60.2150288690" lon="29.7723260242"><ele>47.24</ele><time>2026-08-22T09:46:21Z</time></trkpt><trkpt lat="60.2150317188" lon="29.7723344062"><ele>46.76</ele><time>2026-08-22T09:46:40Z</time></trkpt><trkpt lat="60.2150421124" lon="29.7723376751"><ele>46.76</ele><time>2026-08-22T09:47:14Z</time></trkpt><trkpt lat="60.2150333114" lon="29.7723004594"><ele>46.76</ele><time>2026-08-22T09:47:44Z</time></trkpt><trkpt lat="60.2150341496" lon="29.7722833604"><ele>46.28</ele><time>2026-08-22T09:48:19Z</time></trkpt><trkpt lat="60.2150330599" lon="29.7722889762"><ele>46.28</ele><time>2026-08-22T09:48:41Z</time></trkpt><trkpt lat="60.2150353231" lon="29.7722917423"><ele>46.28</ele><time>2026-08-22T09:49:07Z</time></trkpt><trkpt lat="60.2150330599" lon="29.7722924128"><ele>46.28</ele><time>2026-08-22T09:49:37Z</time></trkpt><trkpt lat="60.2150287852" lon="29.7722886410"><ele>45.80</ele><time>2026-08-22T09:50:07Z</time></trkpt><trkpt lat="60.2150357421" lon="29.7722961847"><ele>45.80</ele><time>2026-08-22T09:50:37Z</time></trkpt><trkpt lat="60.2150401846" lon="29.7722838633"><ele>45.80</ele><time>2026-08-22T09:51:15Z</time></trkpt><trkpt lat="60.2150223311" lon="29.7722780798"><ele>45.32</ele><time>2026-08-22T09:51:43Z</time></trkpt><trkpt lat="60.2150222473" lon="29.7722944245"><ele>45.32</ele><time>2026-08-22T09:52:09Z</time></trkpt><trkpt lat="60.2150392625" lon="29.7722916584"><ele>45.32</ele><time>2026-08-22T09:52:38Z</time></trkpt><trkpt lat="60.2150456328" lon="29.7722936701"><ele>44.84</ele><time>2026-08-22T09:53:07Z</time></trkpt><trkpt lat="60.2150399331" lon="29.7722939216"><ele>45.80</ele><time>2026-08-22T09:53:41Z</time></trkpt><trkpt lat="60.2150600497" lon="29.7722995374"><ele>45.80</ele><time>2026-08-22T09:54:13Z</time></trkpt><trkpt lat="60.2150664199" lon="29.7723031417"><ele>45.80</ele><time>2026-08-22T09:54:49Z</time></trkpt><trkpt lat="60.2150457166" lon="29.7723055724"><ele>45.32</ele><time>2026-08-22T09:55:17Z</time></trkpt><trkpt lat="60.2150252648" lon="29.7722998727"><ele>45.32</ele><time>2026-08-22T09:55:47Z</time></trkpt><trkpt lat="60.2150332276" lon="29.7722896468"><ele>45.32</ele><time>2026-08-22T09:56:23Z</time></trkpt><trkpt lat="60.2150406875" lon="29.7722857073"><ele>44.84</ele><time>2026-08-22T09:56:55Z</time></trkpt><trkpt lat="60.2150314674" lon="29.7722894792"><ele>44.84</ele><time>2026-08-22T09:57:27Z</time></trkpt><trkpt lat="60.2150485665" lon="29.7723002080"><ele>44.84</ele><time>2026-08-22T09:57:58Z</time></trkpt><trkpt lat="60.2150483988" lon="29.7722978611"><ele>44.36</ele><time>2026-08-22T09:58:32Z</time></trkpt><trkpt lat="60.2150494047" lon="29.7722933348"><ele>44.36</ele><time>2026-08-22T09:59:03Z</time></trkpt><trkpt lat="60.2150408551" lon="29.7722945083"><ele>44.36</ele><time>2026-08-22T09:59:39Z</time></trkpt><trkpt lat="60.2150318027" lon="29.7722968552"><ele>44.36</ele><time>2026-08-22T10:00:11Z</time></trkpt><trkpt lat="60.2150388435" lon="29.7722971905"><ele>43.88</ele><time>2026-08-22T10:00:42Z</time></trkpt><trkpt lat="60.2150470577" lon="29.7723000403"><ele>43.88</ele><time>2026-08-22T10:01:15Z</time></trkpt><trkpt lat="60.2150634862" lon="29.7722927481"><ele>43.88</ele><time>2026-08-22T10:01:48Z</time></trkpt><trkpt lat="60.2150622290" lon="29.7722922452"><ele>43.88</ele><time>2026-08-22T10:02:15Z</time></trkpt><trkpt lat="60.2150624804" lon="29.7722979449"><ele>43.88</ele><time>2026-08-22T10:02:46Z</time></trkpt><trkpt lat="60.2150595468" lon="29.7722961847"><ele>43.88</ele><time>2026-08-22T10:03:17Z</time></trkpt><trkpt lat="60.2150589600" lon="29.7723082546"><ele>43.88</ele><time>2026-08-22T10:03:49Z</time></trkpt><trkpt lat="60.2150576189" lon="29.7723141219"><ele>43.88</ele><time>2026-08-22T10:04:22Z</time></trkpt><trkpt lat="60.2150523383" lon="29.7723033093"><ele>43.40</ele><time>2026-08-22T10:04:54Z</time></trkpt><trkpt lat="60.2150530089" lon="29.7723023873"><ele>43.40</ele><time>2026-08-22T10:05:13Z</time></trkpt><trkpt lat="60.2150432859" lon="29.7723103501"><ele>43.40</ele><time>2026-08-22T10:05:41Z</time></trkpt><trkpt lat="60.2150326408" lon="29.7723016329"><ele>43.88</ele><time>2026-08-22T10:06:15Z</time></trkpt><trkpt lat="60.2150382567" lon="29.7723026387"><ele>43.88</ele><time>2026-08-22T10:06:49Z</time></trkpt><trkpt lat="60.2150366642" lon="29.7723043151"><ele>43.88</ele><time>2026-08-22T10:07:27Z</time></trkpt><trkpt lat="60.2150306292" lon="29.7723143734"><ele>43.88</ele><time>2026-08-22T10:08:02Z</time></trkpt><trkpt lat="60.2150380053" lon="29.7723330650"><ele>43.40</ele><time>2026-08-22T10:08:37Z</time></trkpt><trkpt lat="60.2150453813" lon="29.7723216657"><ele>43.88</ele><time>2026-08-22T10:08:49Z</time></trkpt><trkpt lat="60.2150420286" lon="29.7723413631"><ele>43.88</ele><time>2026-08-22T10:09:04Z</time></trkpt><trkpt lat="60.2150411066" lon="29.7723425366"><ele>43.88</ele><time>2026-08-22T10:09:07Z</time></trkpt><trkpt lat="60.2150564454" lon="29.7723400220"><ele>44.36</ele><time>2026-08-22T10:09:22Z</time></trkpt><trkpt lat="60.2150567807" lon="29.7723478172"><ele>44.36</ele><time>2026-08-22T10:09:49Z</time></trkpt><trkpt lat="60.2150492370" lon="29.7723293770"><ele>44.36</ele><time>2026-08-22T10:10:05Z</time></trkpt><trkpt lat="60.2150523383" lon="29.7723235097"><ele>44.84</ele><time>2026-08-22T10:10:18Z</time></trkpt><trkpt lat="60.2150484826" lon="29.7722965200"><ele>44.84</ele><time>2026-08-22T10:10:38Z</time></trkpt><trkpt lat="60.2150421962" lon="29.7722709551"><ele>44.84</ele><time>2026-08-22T10:10:40Z</time></trkpt><trkpt lat="60.2150320541" lon="29.7721725516"><ele>44.84</ele><time>2026-08-22T10:10:54Z</time></trkpt><trkpt lat="60.2150433697" lon="29.7720837034"><ele>44.84</ele><time>2026-08-22T10:11:07Z</time></trkpt><trkpt lat="60.2150310483" lon="29.7720740642"><ele>44.84</ele><time>2026-08-22T10:11:22Z</time></trkpt><trkpt lat="60.2150468901" lon="29.7721682768"><ele>44.84</ele><time>2026-08-22T10:11:38Z</time></trkpt><trkpt lat="60.2150395140" lon="29.7722484078"><ele>44.84</ele><time>2026-08-22T10:11:55Z</time></trkpt><trkpt lat="60.2150509972" lon="29.7722782474"><ele>44.84</ele><time>2026-08-22T10:12:13Z</time></trkpt><trkpt lat="60.2150267735" lon="29.7722180653"><ele>44.84</ele><time>2026-08-22T10:12:27Z</time></trkpt><trkpt lat="60.2150330599" lon="29.7721155547"><ele>44.84</ele><time>2026-08-22T10:12:42Z</time></trkpt><trkpt lat="60.2150405198" lon="29.7720887326"><ele>44.84</ele><time>2026-08-22T10:12:45Z</time></trkpt><trkpt lat="60.2150421962" lon="29.7720397823"><ele>45.32</ele><time>2026-08-22T10:12:56Z</time></trkpt><trkpt lat="60.2150317188" lon="29.7719668597"><ele>44.84</ele><time>2026-08-22T10:13:11Z</time></trkpt><trkpt lat="60.2150266897" lon="29.7718958650"><ele>45.32</ele><time>2026-08-22T10:13:23Z</time></trkpt><trkpt lat="60.2150505781" lon="29.7718171589"><ele>45.32</ele><time>2026-08-22T10:13:28Z</time></trkpt><trkpt lat="60.2150452137" lon="29.7716475930"><ele>45.80</ele><time>2026-08-22T10:13:43Z</time></trkpt><trkpt lat="60.2149539348" lon="29.7715213615"><ele>46.76</ele><time>2026-08-22T10:13:58Z</time></trkpt><trkpt lat="60.2149445470" lon="29.7715133149"><ele>47.24</ele><time>2026-08-22T10:13:59Z</time></trkpt><trkpt lat="60.2148119453" lon="29.7713514604"><ele>47.72</ele><time>2026-08-22T10:14:14Z</time></trkpt><trkpt lat="60.2146774996" lon="29.7711887676"><ele>48.68</ele><time>2026-08-22T10:14:31Z</time></trkpt><trkpt lat="60.2146061696" lon="29.7711166833"><ele>49.65</ele><time>2026-08-22T10:14:44Z</time></trkpt><trkpt lat="60.2144338377" lon="29.7710900288"><ele>48.68</ele><time>2026-08-22T10:15:00Z</time></trkpt><trkpt lat="60.2142861485" lon="29.7709970735"><ele>48.20</ele><time>2026-08-22T10:15:15Z</time></trkpt><trkpt lat="60.2141736634" lon="29.7709286772"><ele>47.24</ele><time>2026-08-22T10:15:31Z</time></trkpt><trkpt lat="60.2140450012" lon="29.7708357219"><ele>46.76</ele><time>2026-08-22T10:15:42Z</time></trkpt><trkpt lat="60.2139647864" lon="29.7707249131"><ele>47.24</ele><time>2026-08-22T10:15:57Z</time></trkpt><trkpt lat="60.2139248885" lon="29.7706929781"><ele>47.24</ele><time>2026-08-22T10:16:10Z</time></trkpt><trkpt lat="60.2138590068" lon="29.7705787327"><ele>47.72</ele><time>2026-08-22T10:16:24Z</time></trkpt><trkpt lat="60.2138415724" lon="29.7704906389"><ele>49.65</ele><time>2026-08-22T10:16:41Z</time></trkpt><trkpt lat="60.2138489485" lon="29.7704385035"><ele>52.05</ele><time>2026-08-22T10:16:56Z</time></trkpt><trkpt lat="60.2138475236" lon="29.7703447938"><ele>53.97</ele><time>2026-08-22T10:17:11Z</time></trkpt><trkpt lat="60.2138390578" lon="29.7701854538"><ele>54.45</ele><time>2026-08-22T10:17:36Z</time></trkpt><trkpt lat="60.2138508763" lon="29.7700637486"><ele>55.41</ele><time>2026-08-22T10:17:55Z</time></trkpt><trkpt lat="60.2138512116" lon="29.7700607311"><ele>55.41</ele><time>2026-08-22T10:17:56Z</time></trkpt><trkpt lat="60.2138775308" lon="29.7698771674"><ele>56.37</ele><time>2026-08-22T10:18:10Z</time></trkpt><trkpt lat="60.2138813864" lon="29.7697714716"><ele>57.82</ele><time>2026-08-22T10:18:24Z</time></trkpt><trkpt lat="60.2139113937" lon="29.7694346868"><ele>58.30</ele><time>2026-08-22T10:18:41Z</time></trkpt><trkpt lat="60.2139018383" lon="29.7691861633"><ele>59.26</ele><time>2026-08-22T10:18:55Z</time></trkpt><trkpt lat="60.2138733398" lon="29.7690661345"><ele>59.74</ele><time>2026-08-22T10:19:06Z</time></trkpt><trkpt lat="60.2138568275" lon="29.7690468561"><ele>60.22</ele><time>2026-08-22T10:19:11Z</time></trkpt><trkpt lat="60.2138340287" lon="29.7689830698"><ele>60.22</ele><time>2026-08-22T10:19:14Z</time></trkpt><trkpt lat="60.2137312666" lon="29.7687039524"><ele>60.70</ele><time>2026-08-22T10:19:24Z</time></trkpt><trkpt lat="60.2137126587" lon="29.7686565947"><ele>60.70</ele><time>2026-08-22T10:19:26Z</time></trkpt><trkpt lat="60.2136677317" lon="29.7685249150"><ele>60.70</ele><time>2026-08-22T10:19:32Z</time></trkpt><trkpt lat="60.2136260737" lon="29.7684632242"><ele>61.18</ele><time>2026-08-22T10:19:35Z</time></trkpt><trkpt lat="60.2135516424" lon="29.7683419380"><ele>61.66</ele><time>2026-08-22T10:19:40Z</time></trkpt><trkpt lat="60.2134472039" lon="29.7677504271"><ele>62.62</ele><time>2026-08-22T10:19:54Z</time></trkpt><trkpt lat="60.2134496346" lon="29.7674741596"><ele>62.62</ele><time>2026-08-22T10:20:01Z</time></trkpt><trkpt lat="60.2134783007" lon="29.7669638693"><ele>63.10</ele><time>2026-08-22T10:20:12Z</time></trkpt><trkpt lat="60.2134980820" lon="29.7668576706"><ele>63.10</ele><time>2026-08-22T10:20:15Z</time></trkpt><trkpt lat="60.2135843318" lon="29.7664314508"><ele>63.10</ele><time>2026-08-22T10:20:27Z</time></trkpt><trkpt lat="60.2135877684" lon="29.7663356457"><ele>63.10</ele><time>2026-08-22T10:20:30Z</time></trkpt><trkpt lat="60.2136263251" lon="29.7661111783"><ele>63.58</ele><time>2026-08-22T10:20:36Z</time></trkpt><trkpt lat="60.2137993276" lon="29.7656686138"><ele>62.62</ele><time>2026-08-22T10:20:49Z</time></trkpt><trkpt lat="60.2138999943" lon="29.7652450763"><ele>63.10</ele><time>2026-08-22T10:21:02Z</time></trkpt><trkpt lat="60.2139330190" lon="29.7651141509"><ele>63.58</ele><time>2026-08-22T10:21:17Z</time></trkpt><trkpt lat="60.2139559016" lon="29.7650390491"><ele>64.07</ele><time>2026-08-22T10:21:36Z</time></trkpt><trkpt lat="60.2140145749" lon="29.7647923697"><ele>64.07</ele><time>2026-08-22T10:21:51Z</time></trkpt><trkpt lat="60.2140363678" lon="29.7645882703"><ele>64.55</ele><time>2026-08-22T10:22:14Z</time></trkpt><trkpt lat="60.2140590828" lon="29.7645085584"><ele>65.99</ele><time>2026-08-22T10:22:17Z</time></trkpt><trkpt lat="60.2140876651" lon="29.7642280161"><ele>67.43</ele><time>2026-08-22T10:22:32Z</time></trkpt><trkpt lat="60.2141068596" lon="29.7641661577"><ele>67.91</ele><time>2026-08-22T10:22:37Z</time></trkpt><trkpt lat="60.2141842246" lon="29.7639265191"><ele>68.87</ele><time>2026-08-22T10:22:49Z</time></trkpt><trkpt lat="60.2141947858" lon="29.7635523509"><ele>69.35</ele><time>2026-08-22T10:23:03Z</time></trkpt><trkpt lat="60.2142237872" lon="29.7632373590"><ele>70.79</ele><time>2026-08-22T10:23:16Z</time></trkpt><trkpt lat="60.2142183390" lon="29.7629423998"><ele>71.27</ele><time>2026-08-22T10:23:32Z</time></trkpt><trkpt lat="60.2142420597" lon="29.7627724148"><ele>71.27</ele><time>2026-08-22T10:23:36Z</time></trkpt><trkpt lat="60.2144043334" lon="29.7621712647"><ele>71.76</ele><time>2026-08-22T10:23:52Z</time></trkpt><trkpt lat="60.2146198321" lon="29.7616929095"><ele>70.31</ele><time>2026-08-22T10:24:06Z</time></trkpt><trkpt lat="60.2146774996" lon="29.7609079443"><ele>68.87</ele><time>2026-08-22T10:24:19Z</time></trkpt><trkpt lat="60.2145808563" lon="29.7602694947"><ele>68.87</ele><time>2026-08-22T10:24:32Z</time></trkpt><trkpt lat="60.2143615019" lon="29.7595036402"><ele>68.87</ele><time>2026-08-22T10:24:46Z</time></trkpt><trkpt lat="60.2141066082" lon="29.7591641732"><ele>69.35</ele><time>2026-08-22T10:24:58Z</time></trkpt><trkpt lat="60.2138284966" lon="29.7587698046"><ele>68.39</ele><time>2026-08-22T10:25:11Z</time></trkpt><trkpt lat="60.2136425860" lon="29.7581688222"><ele>66.95</ele><time>2026-08-22T10:25:23Z</time></trkpt><trkpt lat="60.2135468647" lon="29.7577919718"><ele>66.47</ele><time>2026-08-22T10:25:35Z</time></trkpt><trkpt lat="60.2134384867" lon="29.7574276943"><ele>65.99</ele><time>2026-08-22T10:25:52Z</time></trkpt><trkpt lat="60.2133531589" lon="29.7567252908"><ele>65.99</ele><time>2026-08-22T10:26:06Z</time></trkpt><trkpt lat="60.2133011911" lon="29.7564255539"><ele>67.43</ele><time>2026-08-22T10:26:16Z</time></trkpt><trkpt lat="60.2132832538" lon="29.7563256416"><ele>68.87</ele><time>2026-08-22T10:26:29Z</time></trkpt><trkpt lat="60.2132037934" lon="29.7561176028"><ele>69.35</ele><time>2026-08-22T10:26:43Z</time></trkpt><trkpt lat="60.2131489757" lon="29.7559171915"><ele>71.27</ele><time>2026-08-22T10:26:55Z</time></trkpt><trkpt lat="60.2131024562" lon="29.7556428518"><ele>72.24</ele><time>2026-08-22T10:27:07Z</time></trkpt><trkpt lat="60.2130805794" lon="29.7552665044"><ele>73.20</ele><time>2026-08-22T10:27:25Z</time></trkpt><trkpt lat="60.2130931523" lon="29.7551059071"><ele>73.20</ele><time>2026-08-22T10:27:34Z</time></trkpt><trkpt lat="60.2130576130" lon="29.7550148796"><ele>73.68</ele><time>2026-08-22T10:27:40Z</time></trkpt><trkpt lat="60.2130327187" lon="29.7548703756"><ele>73.68</ele><time>2026-08-22T10:27:51Z</time></trkpt><trkpt lat="60.2128344029" lon="29.7543296590"><ele>73.68</ele><time>2026-08-22T10:28:06Z</time></trkpt><trkpt lat="60.2126336563" lon="29.7538074665"><ele>73.68</ele><time>2026-08-22T10:28:20Z</time></trkpt><trkpt lat="60.2124869730" lon="29.7532713600"><ele>73.68</ele><time>2026-08-22T10:28:34Z</time></trkpt><trkpt lat="60.2122743241" lon="29.7527639195"><ele>72.72</ele><time>2026-08-22T10:28:47Z</time></trkpt><trkpt lat="60.2120242082" lon="29.7523368616"><ele>72.72</ele><time>2026-08-22T10:29:01Z</time></trkpt><trkpt lat="60.2119838074" lon="29.7522325907"><ele>72.72</ele><time>2026-08-22T10:29:04Z</time></trkpt><trkpt lat="60.2117654588" lon="29.7517730948"><ele>72.72</ele><time>2026-08-22T10:29:19Z</time></trkpt><trkpt lat="60.2117274050" lon="29.7516881023"><ele>73.20</ele><time>2026-08-22T10:29:31Z</time></trkpt><trkpt lat="60.2116810530" lon="29.7514858469"><ele>73.20</ele><time>2026-08-22T10:29:47Z</time></trkpt><trkpt lat="60.2116908599" lon="29.7514892835"><ele>73.20</ele><time>2026-08-22T10:30:01Z</time></trkpt><trkpt lat="60.2116462681" lon="29.7510286141"><ele>73.20</ele><time>2026-08-22T10:30:15Z</time></trkpt><trkpt lat="60.2115538158" lon="29.7502749972"><ele>71.76</ele><time>2026-08-22T10:30:30Z</time></trkpt><trkpt lat="60.2114231419" lon="29.7496301774"><ele>70.31</ele><time>2026-08-22T10:30:44Z</time></trkpt><trkpt lat="60.2113594394" lon="29.7492115851"><ele>70.31</ele><time>2026-08-22T10:30:54Z</time></trkpt><trkpt lat="60.2112537436" lon="29.7485175636"><ele>68.87</ele><time>2026-08-22T10:31:08Z</time></trkpt><trkpt lat="60.2111543342" lon="29.7478235420"><ele>66.47</ele><time>2026-08-22T10:31:21Z</time></trkpt><trkpt lat="60.2110669110" lon="29.7471459489"><ele>65.51</ele><time>2026-08-22T10:31:35Z</time></trkpt><trkpt lat="60.2110535000" lon="29.7466406878"><ele>65.99</ele><time>2026-08-22T10:31:47Z</time></trkpt><trkpt lat="60.2110332996" lon="29.7463233490"><ele>65.99</ele><time>2026-08-22T10:32:01Z</time></trkpt><trkpt lat="60.2110325452" lon="29.7462876420"><ele>65.99</ele><time>2026-08-22T10:32:02Z</time></trkpt><trkpt lat="60.2110267617" lon="29.7461707983"><ele>65.99</ele><time>2026-08-22T10:32:06Z</time></trkpt><trkpt lat="60.2110157814" lon="29.7461165674"><ele>65.99</ele><time>2026-08-22T10:32:09Z</time></trkpt><trkpt lat="60.2109825052" lon="29.7456540540"><ele>65.51</ele><time>2026-08-22T10:32:22Z</time></trkpt><trkpt lat="60.2108522505" lon="29.7451388184"><ele>65.03</ele><time>2026-08-22T10:32:35Z</time></trkpt><trkpt lat="60.2108414378" lon="29.7450964060"><ele>65.03</ele><time>2026-08-22T10:32:36Z</time></trkpt><trkpt lat="60.2107628994" lon="29.7442450561"><ele>64.55</ele><time>2026-08-22T10:32:50Z</time></trkpt><trkpt lat="60.2106994484" lon="29.7437817883"><ele>65.99</ele><time>2026-08-22T10:33:02Z</time></trkpt><trkpt lat="60.2106921561" lon="29.7436204366"><ele>65.99</ele><time>2026-08-22T10:33:19Z</time></trkpt><trkpt lat="60.2106740512" lon="29.7435966320"><ele>65.99</ele><time>2026-08-22T10:33:23Z</time></trkpt><trkpt lat="60.2106054872" lon="29.7435222846"><ele>66.95</ele><time>2026-08-22T10:33:35Z</time></trkpt><trkpt lat="60.2106076665" lon="29.7434767708"><ele>66.95</ele><time>2026-08-22T10:33:48Z</time></trkpt><trkpt lat="60.2106127795" lon="29.7434474342"><ele>66.95</ele><time>2026-08-22T10:34:10Z</time></trkpt><trkpt lat="60.2105973568" lon="29.7434599232"><ele>66.95</ele><time>2026-08-22T10:34:27Z</time></trkpt><trkpt lat="60.2106070798" lon="29.7433802113"><ele>66.95</ele><time>2026-08-22T10:34:39Z</time></trkpt><trkpt lat="60.2105981112" lon="29.7433997411"><ele>66.95</ele><time>2026-08-22T10:34:51Z</time></trkpt><trkpt lat="60.2105803415" lon="29.7433212865"><ele>66.95</ele><time>2026-08-22T10:34:55Z</time></trkpt><trkpt lat="60.2104519308" lon="29.7427845933"><ele>65.51</ele><time>2026-08-22T10:35:08Z</time></trkpt><trkpt lat="60.2102869749" lon="29.7422033921"><ele>64.07</ele><time>2026-08-22T10:35:22Z</time></trkpt><trkpt lat="60.2100623399" lon="29.7416133061"><ele>62.14</ele><time>2026-08-22T10:35:35Z</time></trkpt><trkpt lat="60.2098559774" lon="29.7409483697"><ele>61.18</ele><time>2026-08-22T10:35:48Z</time></trkpt><trkpt lat="60.2096778620" lon="29.7402975988"><ele>59.26</ele><time>2026-08-22T10:36:02Z</time></trkpt><trkpt lat="60.2096644510" lon="29.7401440423"><ele>59.26</ele><time>2026-08-22T10:36:12Z</time></trkpt><trkpt lat="60.2096818853" lon="29.7400971875"><ele>58.30</ele><time>2026-08-22T10:36:31Z</time></trkpt><trkpt lat="60.2096892614" lon="29.7400669288"><ele>58.30</ele><time>2026-08-22T10:36:50Z</time></trkpt><trkpt lat="60.2096343599" lon="29.7399206646"><ele>58.30</ele><time>2026-08-22T10:37:03Z</time></trkpt><trkpt lat="60.2095399797" lon="29.7396495938"><ele>58.30</ele><time>2026-08-22T10:37:17Z</time></trkpt><trkpt lat="60.2094887663" lon="29.7394838836"><ele>58.30</ele><time>2026-08-22T10:37:30Z</time></trkpt><trkpt lat="60.2094841562" lon="29.7394511942"><ele>58.30</ele><time>2026-08-22T10:37:31Z</time></trkpt><trkpt lat="60.2093534824" lon="29.7389989067"><ele>57.82</ele><time>2026-08-22T10:37:44Z</time></trkpt><trkpt lat="60.2091775462" lon="29.7385579348"><ele>57.34</ele><time>2026-08-22T10:37:57Z</time></trkpt><trkpt lat="60.2091443539" lon="29.7383830883"><ele>56.86</ele><time>2026-08-22T10:38:11Z</time></trkpt><trkpt lat="60.2091845870" lon="29.7378085926"><ele>56.37</ele><time>2026-08-22T10:38:22Z</time></trkpt><trkpt lat="60.2092842478" lon="29.7372263018"><ele>56.37</ele><time>2026-08-22T10:38:36Z</time></trkpt><trkpt lat="60.2093137521" lon="29.7368534748"><ele>55.89</ele><time>2026-08-22T10:38:47Z</time></trkpt><trkpt lat="60.2093361318" lon="29.7366126627"><ele>55.89</ele><time>2026-08-22T10:38:58Z</time></trkpt><trkpt lat="60.2092989162" lon="29.7364046238"><ele>55.89</ele><time>2026-08-22T10:39:16Z</time></trkpt><trkpt lat="60.2092662267" lon="29.7362767160"><ele>55.89</ele><time>2026-08-22T10:39:30Z</time></trkpt><trkpt lat="60.2092421707" lon="29.7361071501"><ele>55.41</ele><time>2026-08-22T10:39:45Z</time></trkpt><trkpt lat="60.2090192121" lon="29.7356783319"><ele>55.41</ele><time>2026-08-22T10:39:58Z</time></trkpt><trkpt lat="60.2087269351" lon="29.7352822870"><ele>55.41</ele><time>2026-08-22T10:40:12Z</time></trkpt><trkpt lat="60.2084326465" lon="29.7348415665"><ele>55.41</ele><time>2026-08-22T10:40:27Z</time></trkpt><trkpt lat="60.2082057483" lon="29.7343117464"><ele>55.41</ele><time>2026-08-22T10:40:42Z</time></trkpt><trkpt lat="60.2080206759" lon="29.7336820979"><ele>55.41</ele><time>2026-08-22T10:40:59Z</time></trkpt><trkpt lat="60.2078572288" lon="29.7330433130"><ele>55.41</ele><time>2026-08-22T10:41:14Z</time></trkpt><trkpt lat="60.2078333404" lon="29.7329565603"><ele>55.41</ele><time>2026-08-22T10:41:25Z</time></trkpt><trkpt lat="60.2078521159" lon="29.7329209372"><ele>55.41</ele><time>2026-08-22T10:41:32Z</time></trkpt><trkpt lat="60.2078641858" lon="29.7329502739"><ele>55.41</ele><time>2026-08-22T10:41:50Z</time></trkpt><trkpt lat="60.2078584023" lon="29.7329007369"><ele>55.41</ele><time>2026-08-22T10:42:03Z</time></trkpt><trkpt lat="60.2078501880" lon="29.7329130583"><ele>55.41</ele><time>2026-08-22T10:42:13Z</time></trkpt><trkpt lat="60.2077374514" lon="29.7327382956"><ele>55.41</ele><time>2026-08-22T10:42:24Z</time></trkpt><trkpt lat="60.2075369563" lon="29.7324504610"><ele>54.93</ele><time>2026-08-22T10:42:38Z</time></trkpt><trkpt lat="60.2074797079" lon="29.7323694080"><ele>54.93</ele><time>2026-08-22T10:42:49Z</time></trkpt><trkpt lat="60.2073870879" lon="29.7321606986"><ele>54.45</ele><time>2026-08-22T10:43:03Z</time></trkpt><trkpt lat="60.2073103935" lon="29.7320489679"><ele>54.45</ele><time>2026-08-22T10:43:16Z</time></trkpt><trkpt lat="60.2072362136" lon="29.7319670767"><ele>54.45</ele><time>2026-08-22T10:43:22Z</time></trkpt><trkpt lat="60.2071497962" lon="29.7318929806"><ele>54.45</ele><time>2026-08-22T10:43:30Z</time></trkpt><trkpt lat="60.2071580105" lon="29.7317911405"><ele>54.45</ele><time>2026-08-22T10:43:43Z</time></trkpt><trkpt lat="60.2071105689" lon="29.7316791583"><ele>54.45</ele><time>2026-08-22T10:43:57Z</time></trkpt><trkpt lat="60.2071020193" lon="29.7316647414"><ele>54.45</ele><time>2026-08-22T10:43:59Z</time></trkpt><trkpt lat="60.2069877740" lon="29.7314712033"><ele>54.45</ele><time>2026-08-22T10:44:12Z</time></trkpt><trkpt lat="60.2069233172" lon="29.7314430401"><ele>54.45</ele><time>2026-08-22T10:44:18Z</time></trkpt><trkpt lat="60.2067767177" lon="29.7312881425"><ele>54.45</ele><time>2026-08-22T10:44:34Z</time></trkpt><trkpt lat="60.2066993527" lon="29.7311299760"><ele>54.45</ele><time>2026-08-22T10:44:47Z</time></trkpt><trkpt lat="60.2066684235" lon="29.7310707998"><ele>54.45</ele><time>2026-08-22T10:44:51Z</time></trkpt><trkpt lat="60.2065981831" lon="29.7308146488"><ele>54.93</ele><time>2026-08-22T10:45:06Z</time></trkpt><trkpt lat="60.2065730374" lon="29.7307645250"><ele>54.93</ele><time>2026-08-22T10:45:09Z</time></trkpt><trkpt lat="60.2064874582" lon="29.7305931151"><ele>54.93</ele><time>2026-08-22T10:45:23Z</time></trkpt><trkpt lat="60.2064821776" lon="29.7305703163"><ele>54.93</ele><time>2026-08-22T10:45:25Z</time></trkpt><trkpt lat="60.2063390985" lon="29.7302407399"><ele>54.93</ele><time>2026-08-22T10:45:38Z</time></trkpt><trkpt lat="60.2063366678" lon="29.7301714215"><ele>54.93</ele><time>2026-08-22T10:45:42Z</time></trkpt><trkpt lat="60.2062318102" lon="29.7300173622"><ele>54.93</ele><time>2026-08-22T10:45:55Z</time></trkpt><trkpt lat="60.2061964385" lon="29.7299698368"><ele>54.93</ele><time>2026-08-22T10:45:59Z</time></trkpt><trkpt lat="60.2061089315" lon="29.7297687549"><ele>55.41</ele><time>2026-08-22T10:46:13Z</time></trkpt><trkpt lat="60.2059937641" lon="29.7294824291"><ele>55.41</ele><time>2026-08-22T10:46:27Z</time></trkpt><trkpt lat="60.2059054188" lon="29.7292494122"><ele>55.41</ele><time>2026-08-22T10:46:43Z</time></trkpt><trkpt lat="60.2058609948" lon="29.7291137092"><ele>55.41</ele><time>2026-08-22T10:46:56Z</time></trkpt><trkpt lat="60.2058581449" lon="29.7290956881"><ele>55.41</ele><time>2026-08-22T10:46:58Z</time></trkpt><trkpt lat="60.2057671174" lon="29.7287185863"><ele>55.41</ele><time>2026-08-22T10:47:09Z</time></trkpt><trkpt lat="60.2055402193" lon="29.7282512952"><ele>55.41</ele><time>2026-08-22T10:47:24Z</time></trkpt><trkpt lat="60.2053792868" lon="29.7277048789"><ele>55.89</ele><time>2026-08-22T10:47:38Z</time></trkpt><trkpt lat="60.2053082921" lon="29.7271337360"><ele>55.89</ele><time>2026-08-22T10:47:49Z</time></trkpt><trkpt lat="60.2051681466" lon="29.7264976334"><ele>55.89</ele><time>2026-08-22T10:48:03Z</time></trkpt><trkpt lat="60.2051492035" lon="29.7260001674"><ele>55.89</ele><time>2026-08-22T10:48:14Z</time></trkpt><trkpt lat="60.2051256504" lon="29.7255300265"><ele>55.89</ele><time>2026-08-22T10:48:26Z</time></trkpt><trkpt lat="60.2050976548" lon="29.7254364006"><ele>55.89</ele><time>2026-08-22T10:48:43Z</time></trkpt><trkpt lat="60.2049964853" lon="29.7251118533"><ele>55.89</ele><time>2026-08-22T10:48:58Z</time></trkpt><trkpt lat="60.2048991714" lon="29.7245768365"><ele>55.89</ele><time>2026-08-22T10:49:11Z</time></trkpt><trkpt lat="60.2047747001" lon="29.7240471840"><ele>55.89</ele><time>2026-08-22T10:49:23Z</time></trkpt><trkpt lat="60.2045986801" lon="29.7234065551"><ele>55.89</ele><time>2026-08-22T10:49:37Z</time></trkpt><trkpt lat="60.2045923099" lon="29.7232629731"><ele>55.89</ele><time>2026-08-22T10:49:53Z</time></trkpt><trkpt lat="60.2045376599" lon="29.7230451275"><ele>55.89</ele><time>2026-08-22T10:50:06Z</time></trkpt><trkpt lat="60.2045233268" lon="29.7228778247"><ele>55.89</ele><time>2026-08-22T10:50:20Z</time></trkpt><trkpt lat="60.2045168728" lon="29.7228323948"><ele>55.89</ele><time>2026-08-22T10:50:34Z</time></trkpt><trkpt lat="60.2045008633" lon="29.7227666806"><ele>55.89</ele><time>2026-08-22T10:50:37Z</time></trkpt><trkpt lat="60.2044613007" lon="29.7221233696"><ele>55.89</ele><time>2026-08-22T10:50:51Z</time></trkpt><trkpt lat="60.2044431958" lon="29.7215025220"><ele>55.89</ele><time>2026-08-22T10:51:04Z</time></trkpt><trkpt lat="60.2043326385" lon="29.7209277749"><ele>55.89</ele><time>2026-08-22T10:51:17Z</time></trkpt><trkpt lat="60.2040801756" lon="29.7206028085"><ele>55.89</ele><time>2026-08-22T10:51:30Z</time></trkpt><trkpt lat="60.2038885653" lon="29.7200131416"><ele>55.89</ele><time>2026-08-22T10:51:44Z</time></trkpt><trkpt lat="60.2037153952" lon="29.7197441664"><ele>55.89</ele><time>2026-08-22T10:51:56Z</time></trkpt><trkpt lat="60.2036991343" lon="29.7196965571"><ele>55.89</ele><time>2026-08-22T10:52:14Z</time></trkpt><trkpt lat="60.2036549617" lon="29.7195257340"><ele>55.41</ele><time>2026-08-22T10:52:28Z</time></trkpt><trkpt lat="60.2035164926" lon="29.7190644778"><ele>55.41</ele><time>2026-08-22T10:52:41Z</time></trkpt><trkpt lat="60.2033869084" lon="29.7186340671"><ele>55.41</ele><time>2026-08-22T10:52:53Z</time></trkpt><trkpt lat="60.2033131476" lon="29.7179040872"><ele>55.41</ele><time>2026-08-22T10:53:07Z</time></trkpt><trkpt lat="60.2031478565" lon="29.7171158530"><ele>55.41</ele><time>2026-08-22T10:53:24Z</time></trkpt><trkpt lat="60.2030859143" lon="29.7164545208"><ele>55.41</ele><time>2026-08-22T10:53:39Z</time></trkpt><trkpt lat="60.2030191943" lon="29.7159470804"><ele>54.93</ele><time>2026-08-22T10:53:54Z</time></trkpt><trkpt lat="60.2029957250" lon="29.7158791870"><ele>54.93</ele><time>2026-08-22T10:54:04Z</time></trkpt><trkpt lat="60.2029733453" lon="29.7158477549"><ele>54.93</ele><time>2026-08-22T10:54:16Z</time></trkpt><trkpt lat="60.2029590122" lon="29.7157864831"><ele>54.93</ele><time>2026-08-22T10:54:33Z</time></trkpt><trkpt lat="60.2029513009" lon="29.7157519497"><ele>54.93</ele><time>2026-08-22T10:54:35Z</time></trkpt><trkpt lat="60.2029469423" lon="29.7157314140"><ele>54.93</ele><time>2026-08-22T10:54:36Z</time></trkpt><trkpt lat="60.2029406559" lon="29.7157117166"><ele>54.93</ele><time>2026-08-22T10:54:37Z</time></trkpt><trkpt lat="60.2029343694" lon="29.7156879120"><ele>54.93</ele><time>2026-08-22T10:54:38Z</time></trkpt><trkpt lat="60.2029300947" lon="29.7156615928"><ele>54.93</ele><time>2026-08-22T10:54:39Z</time></trkpt><trkpt lat="60.2029254846" lon="29.7156128939"><ele>54.93</ele><time>2026-08-22T10:54:41Z</time></trkpt><trkpt lat="60.2029385604" lon="29.7155744210"><ele>54.93</ele><time>2026-08-22T10:54:42Z</time></trkpt><trkpt lat="60.2029531449" lon="29.7155279852"><ele>54.93</ele><time>2026-08-22T10:54:43Z</time></trkpt><trkpt lat="60.2029606048" lon="29.7154810466"><ele>54.93</ele><time>2026-08-22T10:54:44Z</time></trkpt><trkpt lat="60.2029662207" lon="29.7154328506"><ele>54.93</ele><time>2026-08-22T10:54:45Z</time></trkpt><trkpt lat="60.2029744349" lon="29.7153813019"><ele>54.93</ele><time>2026-08-22T10:54:46Z</time></trkpt><trkpt lat="60.2030296717" lon="29.7148325387"><ele>54.93</ele><time>2026-08-22T10:54:58Z</time></trkpt><trkpt lat="60.2031133231" lon="29.7143135313"><ele>54.45</ele><time>2026-08-22T10:55:11Z</time></trkpt><trkpt lat="60.2032499481" lon="29.7136214375"><ele>54.45</ele><time>2026-08-22T10:55:26Z</time></trkpt><trkpt lat="60.2033864893" lon="29.7128929663"><ele>54.45</ele><time>2026-08-22T10:55:42Z</time></trkpt><trkpt lat="60.2035599109" lon="29.7121798340"><ele>53.97</ele><time>2026-08-22T10:55:59Z</time></trkpt><trkpt lat="60.2035728190" lon="29.7121214960"><ele>53.49</ele><time>2026-08-22T10:56:10Z</time></trkpt><trkpt lat="60.2035859786" lon="29.7120185662"><ele>53.49</ele><time>2026-08-22T10:56:25Z</time></trkpt><trkpt lat="60.2036773413" lon="29.7114920989"><ele>53.01</ele><time>2026-08-22T10:56:39Z</time></trkpt><trkpt lat="60.2037919220" lon="29.7108452674"><ele>53.01</ele><time>2026-08-22T10:56:54Z</time></trkpt><trkpt lat="60.2039672714" lon="29.7100281157"><ele>52.53</ele><time>2026-08-22T10:57:13Z</time></trkpt><trkpt lat="60.2041193191" lon="29.7093746625"><ele>52.53</ele><time>2026-08-22T10:57:27Z</time></trkpt><trkpt lat="60.2042455506" lon="29.7087274957"><ele>52.53</ele><time>2026-08-22T10:57:42Z</time></trkpt><trkpt lat="60.2043235023" lon="29.7082138527"><ele>52.05</ele><time>2026-08-22T10:57:57Z</time></trkpt><trkpt lat="60.2043236699" lon="29.7082087398"><ele>51.57</ele><time>2026-08-22T10:58:14Z</time></trkpt><trkpt lat="60.2043211553" lon="29.7082110029"><ele>51.57</ele><time>2026-08-22T10:58:17Z</time></trkpt><trkpt lat="60.2042970154" lon="29.7083752044"><ele>51.09</ele><time>2026-08-22T10:58:26Z</time></trkpt><trkpt lat="60.2042871248" lon="29.7084073909"><ele>51.09</ele><time>2026-08-22T10:58:32Z</time></trkpt><trkpt lat="60.2042877115" lon="29.7083941475"><ele>51.09</ele><time>2026-08-22T10:58:33Z</time></trkpt><trkpt lat="60.2042884659" lon="29.7083795629"><ele>51.09</ele><time>2026-08-22T10:58:34Z</time></trkpt><trkpt lat="60.2043193113" lon="29.7082523257"><ele>51.09</ele><time>2026-08-22T10:58:47Z</time></trkpt><trkpt lat="60.2043510787" lon="29.7081883717"><ele>50.61</ele><time>2026-08-22T10:59:12Z</time></trkpt><trkpt lat="60.2044157032" lon="29.7080085799"><ele>50.61</ele><time>2026-08-22T10:59:25Z</time></trkpt><trkpt lat="60.2044746280" lon="29.7076138761"><ele>49.65</ele><time>2026-08-22T10:59:39Z</time></trkpt><trkpt lat="60.2045289427" lon="29.7074878961"><ele>49.65</ele><time>2026-08-22T10:59:44Z</time></trkpt><trkpt lat="60.2045422699" lon="29.7074882314"><ele>49.65</ele><time>2026-08-22T10:59:45Z</time></trkpt><trkpt lat="60.2045546751" lon="29.7074890696"><ele>49.65</ele><time>2026-08-22T10:59:46Z</time></trkpt><trkpt lat="60.2045680024" lon="29.7074888181"><ele>49.65</ele><time>2026-08-22T10:59:47Z</time></trkpt><trkpt lat="60.2045823354" lon="29.7074892372"><ele>49.65</ele><time>2026-08-22T10:59:48Z</time></trkpt><trkpt lat="60.2047244925" lon="29.7075148858"><ele>49.65</ele><time>2026-08-22T10:59:57Z</time></trkpt><trkpt lat="60.2047379036" lon="29.7075157240"><ele>49.65</ele><time>2026-08-22T10:59:58Z</time></trkpt><trkpt lat="60.2048855927" lon="29.7076179832"><ele>49.16</ele><time>2026-08-22T11:00:12Z</time></trkpt><trkpt lat="60.2049394883" lon="29.7076533549"><ele>49.16</ele><time>2026-08-22T11:00:20Z</time></trkpt><trkpt lat="60.2049549948" lon="29.7076557018"><ele>49.16</ele><time>2026-08-22T11:00:21Z</time></trkpt><trkpt lat="60.2049734350" lon="29.7075740620"><ele>49.16</ele><time>2026-08-22T11:00:27Z</time></trkpt><trkpt lat="60.2049644664" lon="29.7075618245"><ele>49.16</ele><time>2026-08-22T11:00:28Z</time></trkpt><trkpt lat="60.2049561683" lon="29.7075479105"><ele>49.16</ele><time>2026-08-22T11:00:29Z</time></trkpt><trkpt lat="60.2048184536" lon="29.7072839644"><ele>49.16</ele><time>2026-08-22T11:00:45Z</time></trkpt><trkpt lat="60.2047628816" lon="29.7071445733"><ele>48.68</ele><time>2026-08-22T11:00:52Z</time></trkpt><trkpt lat="60.2047592774" lon="29.7071202658"><ele>48.68</ele><time>2026-08-22T11:00:53Z</time></trkpt><trkpt lat="60.2047224808" lon="29.7068771906"><ele>48.68</ele><time>2026-08-22T11:01:04Z</time></trkpt><trkpt lat="60.2047657315" lon="29.7065377235"><ele>48.68</ele><time>2026-08-22T11:01:18Z</time></trkpt><trkpt lat="60.2047756221" lon="29.7063837480"><ele>48.68</ele><time>2026-08-22T11:01:26Z</time></trkpt><trkpt lat="60.2047736943" lon="29.7063079756"><ele>48.68</ele><time>2026-08-22T11:01:31Z</time></trkpt><trkpt lat="60.2047980018" lon="29.7060893755"><ele>48.68</ele><time>2026-08-22T11:01:38Z</time></trkpt><trkpt lat="60.2048441861" lon="29.7056014650"><ele>48.68</ele><time>2026-08-22T11:01:53Z</time></trkpt><trkpt lat="60.2048394084" lon="29.7055356670"><ele>48.68</ele><time>2026-08-22T11:01:55Z</time></trkpt><trkpt lat="60.2048404142" lon="29.7054997087"><ele>48.68</ele><time>2026-08-22T11:01:56Z</time></trkpt><trkpt lat="60.2048396599" lon="29.7054706234"><ele>48.68</ele><time>2026-08-22T11:01:57Z</time></trkpt><trkpt lat="60.2048443537" lon="29.7054434661"><ele>48.68</ele><time>2026-08-22T11:01:58Z</time></trkpt><trkpt lat="60.2048466168" lon="29.7054217570"><ele>48.68</ele><time>2026-08-22T11:01:59Z</time></trkpt><trkpt lat="60.2048491314" lon="29.7053916659"><ele>48.68</ele><time>2026-08-22T11:02:00Z</time></trkpt><trkpt lat="60.2048550826" lon="29.7053661849"><ele>48.68</ele><time>2026-08-22T11:02:01Z</time></trkpt><trkpt lat="60.2048626263" lon="29.7053367645"><ele>48.68</ele><time>2026-08-22T11:02:02Z</time></trkpt><trkpt lat="60.2048722655" lon="29.7053007223"><ele>48.68</ele><time>2026-08-22T11:02:03Z</time></trkpt><trkpt lat="60.2049663942" lon="29.7049148194"><ele>48.68</ele><time>2026-08-22T11:02:18Z</time></trkpt><trkpt lat="60.2049886063" lon="29.7047816310"><ele>48.68</ele><time>2026-08-22T11:02:23Z</time></trkpt><trkpt lat="60.2050444297" lon="29.7043854184"><ele>48.68</ele><time>2026-08-22T11:02:38Z</time></trkpt><trkpt lat="60.2050622832" lon="29.7042775434"><ele>49.65</ele><time>2026-08-22T11:02:53Z</time></trkpt><trkpt lat="60.2050403226" lon="29.7041514795"><ele>49.65</ele><time>2026-08-22T11:02:58Z</time></trkpt><trkpt lat="60.2050435916" lon="29.7040490527"><ele>49.65</ele><time>2026-08-22T11:03:02Z</time></trkpt><trkpt lat="60.2051122393" lon="29.7037645709"><ele>49.65</ele><time>2026-08-22T11:03:16Z</time></trkpt><trkpt lat="60.2052522171" lon="29.7034198232"><ele>49.65</ele><time>2026-08-22T11:03:31Z</time></trkpt><trkpt lat="60.2053263132" lon="29.7032015584"><ele>49.65</ele><time>2026-08-22T11:03:42Z</time></trkpt><trkpt lat="60.2053301688" lon="29.7031760775"><ele>49.65</ele><time>2026-08-22T11:03:43Z</time></trkpt><trkpt lat="60.2053345274" lon="29.7031501774"><ele>49.65</ele><time>2026-08-22T11:03:44Z</time></trkpt><trkpt lat="60.2053636964" lon="29.7029614169"><ele>49.65</ele><time>2026-08-22T11:03:57Z</time></trkpt><trkpt lat="60.2053725813" lon="29.7028450761"><ele>49.65</ele><time>2026-08-22T11:04:10Z</time></trkpt><trkpt lat="60.2054372896" lon="29.7024255618"><ele>49.65</ele><time>2026-08-22T11:04:24Z</time></trkpt><trkpt lat="60.2055492718" lon="29.7020985838"><ele>49.65</ele><time>2026-08-22T11:04:39Z</time></trkpt><trkpt lat="60.2056743298" lon="29.7017908003"><ele>49.65</ele><time>2026-08-22T11:04:53Z</time></trkpt><trkpt lat="60.2057741582" lon="29.7014861181"><ele>49.16</ele><time>2026-08-22T11:05:06Z</time></trkpt><trkpt lat="60.2057754993" lon="29.7014402691"><ele>49.16</ele><time>2026-08-22T11:05:08Z</time></trkpt><trkpt lat="60.2057743259" lon="29.7014101781"><ele>49.16</ele><time>2026-08-22T11:05:09Z</time></trkpt><trkpt lat="60.2057794388" lon="29.7013834398"><ele>49.16</ele><time>2026-08-22T11:05:10Z</time></trkpt><trkpt lat="60.2058324125" lon="29.7012117784"><ele>50.13</ele><time>2026-08-22T11:05:23Z</time></trkpt><trkpt lat="60.2058920916" lon="29.7012064978"><ele>50.61</ele><time>2026-08-22T11:05:48Z</time></trkpt><trkpt lat="60.2057252079" lon="29.7008052561"><ele>50.61</ele><time>2026-08-22T11:07:26Z</time></trkpt><trkpt lat="60.2057161555" lon="29.7008171584"><ele>50.61</ele><time>2026-08-22T11:07:27Z</time></trkpt><trkpt lat="60.2056655288" lon="29.7009338345"><ele>50.61</ele><time>2026-08-22T11:07:32Z</time></trkpt><trkpt lat="60.2056142315" lon="29.7010391951"><ele>50.61</ele><time>2026-08-22T11:07:45Z</time></trkpt><trkpt lat="60.2056179196" lon="29.7010713816"><ele>49.16</ele><time>2026-08-22T11:07:48Z</time></trkpt><trkpt lat="60.2057102043" lon="29.7011791728"><ele>47.72</ele><time>2026-08-22T11:08:05Z</time></trkpt><trkpt lat="60.2052523009" lon="29.7008320782"><ele>47.72</ele><time>2026-08-22T11:08:20Z</time></trkpt><trkpt lat="60.2052456792" lon="29.7007716447"><ele>49.16</ele><time>2026-08-22T11:08:23Z</time></trkpt><trkpt lat="60.2052711602" lon="29.7005383763"><ele>50.61</ele><time>2026-08-22T11:08:38Z</time></trkpt><trkpt lat="60.2052900195" lon="29.7005000710"><ele>51.09</ele><time>2026-08-22T11:09:05Z</time></trkpt><trkpt lat="60.2053276543" lon="29.7002675571"><ele>51.09</ele><time>2026-08-22T11:09:19Z</time></trkpt><trkpt lat="60.2053820528" lon="29.6999400761"><ele>51.09</ele><time>2026-08-22T11:09:35Z</time></trkpt><trkpt lat="60.2054018341" lon="29.6999145951"><ele>51.09</ele><time>2026-08-22T11:09:50Z</time></trkpt><trkpt lat="60.2054289076" lon="29.6998307761"><ele>50.61</ele><time>2026-08-22T11:10:07Z</time></trkpt><trkpt lat="60.2054287400" lon="29.6998393256"><ele>50.61</ele><time>2026-08-22T11:10:15Z</time></trkpt></trkseg><trkseg><trkpt lat="60.0631396472" lon="30.1931243856"><ele>-59.95</ele><time>2026-08-25T19:04:58Z</time></trkpt><trkpt lat="60.0630825665" lon="30.1931155846"><ele>-59.95</ele><time>2026-08-25T19:05:15Z</time></trkpt><trkpt lat="60.0631490350" lon="30.1936397050"><ele>-57.54</ele><time>2026-08-25T19:05:36Z</time></trkpt><trkpt lat="60.0631571654" lon="30.1936542895"><ele>-51.77</ele><time>2026-08-25T19:05:38Z</time></trkpt><trkpt lat="60.0631669722" lon="30.1936671976"><ele>-46.97</ele><time>2026-08-25T19:05:40Z</time></trkpt><trkpt lat="60.0631744321" lon="30.1936752442"><ele>-42.16</ele><time>2026-08-25T19:05:42Z</time></trkpt><trkpt lat="60.0631799642" lon="30.1936775073"><ele>-37.83</ele><time>2026-08-25T19:05:44Z</time></trkpt><trkpt lat="60.0631854963" lon="30.1936812792"><ele>-33.51</ele><time>2026-08-25T19:05:46Z</time></trkpt><trkpt lat="60.0631897710" lon="30.1936856378"><ele>-30.14</ele><time>2026-08-25T19:05:48Z</time></trkpt><trkpt lat="60.0631914474" lon="30.1936887391"><ele>-30.14</ele><time>2026-08-25T19:05:49Z</time></trkpt><trkpt lat="60.0631933752" lon="30.1936885715"><ele>-26.78</ele><time>2026-08-25T19:05:50Z</time></trkpt><trkpt lat="60.0631994102" lon="30.1936922595"><ele>-23.41</ele><time>2026-08-25T19:05:52Z</time></trkpt><trkpt lat="60.0632072054" lon="30.1936896611"><ele>-19.09</ele><time>2026-08-25T19:05:55Z</time></trkpt><trkpt lat="60.0632113963" lon="30.1936882362"><ele>-15.72</ele><time>2026-08-25T19:05:58Z</time></trkpt><trkpt lat="60.0631846581" lon="30.1937010605"><ele>-12.36</ele><time>2026-08-25T19:06:01Z</time></trkpt><trkpt lat="60.0631036889" lon="30.1937283017"><ele>-8.51</ele><time>2026-08-25T19:06:05Z</time></trkpt><trkpt lat="60.0630384777" lon="30.1937455684"><ele>-5.15</ele><time>2026-08-25T19:06:10Z</time></trkpt><trkpt lat="60.0630299281" lon="30.1937494241"><ele>-1.79</ele><time>2026-08-25T19:06:16Z</time></trkpt><trkpt lat="60.0630153436" lon="30.1937473286"><ele>1.58</ele><time>2026-08-25T19:06:23Z</time></trkpt><trkpt lat="60.0630010944" lon="30.1937545370"><ele>4.46</ele><time>2026-08-25T19:06:33Z</time></trkpt><trkpt lat="60.0629974063" lon="30.1937602367"><ele>7.83</ele><time>2026-08-25T19:06:47Z</time></trkpt><trkpt lat="60.0629835762" lon="30.1937679481"><ele>10.23</ele><time>2026-08-25T19:07:05Z</time></trkpt><trkpt lat="60.0629728474" lon="30.1937733125"><ele>11.19</ele><time>2026-08-25T19:07:25Z</time></trkpt><trkpt lat="60.0629694946" lon="30.1937743183"><ele>11.19</ele><time>2026-08-25T19:07:51Z</time></trkpt><trkpt lat="60.0629627891" lon="30.1937723067"><ele>11.19</ele><time>2026-08-25T19:08:13Z</time></trkpt><trkpt lat="60.0629518926" lon="30.1937695406"><ele>11.67</ele><time>2026-08-25T19:08:42Z</time></trkpt><trkpt lat="60.0629470311" lon="30.1937609073"><ele>10.71</ele><time>2026-08-25T19:09:11Z</time></trkpt><trkpt lat="60.0629463606" lon="30.1937582251"><ele>10.71</ele><time>2026-08-25T19:09:35Z</time></trkpt><trkpt lat="60.0629491266" lon="30.1937560458"><ele>10.71</ele><time>2026-08-25T19:10:02Z</time></trkpt><trkpt lat="60.0629528984" lon="30.1937545370"><ele>10.71</ele><time>2026-08-25T19:10:37Z</time></trkpt><trkpt lat="60.0629505515" lon="30.1937599014"><ele>11.19</ele><time>2026-08-25T19:10:55Z</time></trkpt><trkpt lat="60.0629479531" lon="30.1937604044"><ele>11.19</ele><time>2026-08-25T19:11:07Z</time></trkpt><trkpt lat="60.0629483722" lon="30.1937505137"><ele>11.19</ele><time>2026-08-25T19:11:25Z</time></trkpt><trkpt lat="60.0629476178" lon="30.1937471610"><ele>11.19</ele><time>2026-08-25T19:11:46Z</time></trkpt><trkpt lat="60.0629475340" lon="30.1937503461"><ele>11.19</ele><time>2026-08-25T19:12:11Z</time></trkpt><trkpt lat="60.0629503001" lon="30.1937565487"><ele>11.19</ele><time>2026-08-25T19:12:38Z</time></trkpt><trkpt lat="60.0629534014" lon="30.1937539503"><ele>11.19</ele><time>2026-08-25T19:13:02Z</time></trkpt><trkpt lat="60.0629559997" lon="30.1937619131"><ele>11.19</ele><time>2026-08-25T19:13:18Z</time></trkpt><trkpt lat="60.0629549939" lon="30.1937529445"><ele>11.19</ele><time>2026-08-25T19:13:35Z</time></trkpt><trkpt lat="60.0629518088" lon="30.1937500946"><ele>10.71</ele><time>2026-08-25T19:13:55Z</time></trkpt><trkpt lat="60.0629618671" lon="30.1937428024"><ele>10.71</ele><time>2026-08-25T19:14:06Z</time></trkpt><trkpt lat="60.0630354602" lon="30.1937016472"><ele>10.71</ele><time>2026-08-25T19:14:16Z</time></trkpt><trkpt lat="60.0630932115" lon="30.1936485898"><ele>10.71</ele><time>2026-08-25T19:14:26Z</time></trkpt><trkpt lat="60.0631090533" lon="30.1936021540"><ele>10.71</ele><time>2026-08-25T19:14:31Z</time></trkpt><trkpt lat="60.0631139986" lon="30.1934983023"><ele>10.71</ele><time>2026-08-25T19:14:34Z</time></trkpt><trkpt lat="60.0630669761" lon="30.1933396328"><ele>10.71</ele><time>2026-08-25T19:14:44Z</time></trkpt><trkpt lat="60.0630150083" lon="30.1933234558"><ele>10.23</ele><time>2026-08-25T19:14:58Z</time></trkpt><trkpt lat="60.0630119909" lon="30.1933107153"><ele>10.23</ele><time>2026-08-25T19:15:16Z</time></trkpt><trkpt lat="60.0630046148" lon="30.1931888424"><ele>10.23</ele><time>2026-08-25T19:15:24Z</time></trkpt><trkpt lat="60.0630134158" lon="30.1931817178"><ele>10.23</ele><time>2026-08-25T19:15:43Z</time></trkpt><trkpt lat="60.0630207919" lon="30.1931823883"><ele>10.23</ele><time>2026-08-25T19:15:57Z</time></trkpt><trkpt lat="60.0630237255" lon="30.1931818854"><ele>10.23</ele><time>2026-08-25T19:16:21Z</time></trkpt><trkpt lat="60.0630218815" lon="30.1931849029"><ele>10.23</ele><time>2026-08-25T19:16:33Z</time></trkpt><trkpt lat="60.0630464405" lon="30.1932475995"><ele>10.23</ele><time>2026-08-25T19:16:42Z</time></trkpt><trkpt lat="60.0630619470" lon="30.1932678837"><ele>10.23</ele><time>2026-08-25T19:16:54Z</time></trkpt><trkpt lat="60.0630691554" lon="30.1932684705"><ele>10.23</ele><time>2026-08-25T19:17:07Z</time></trkpt><trkpt lat="60.0630836561" lon="30.1932725776"><ele>10.23</ele><time>2026-08-25T19:17:26Z</time></trkpt><trkpt lat="60.0630788784" lon="30.1932900120"><ele>10.23</ele><time>2026-08-25T19:17:33Z</time></trkpt><trkpt lat="60.0631232187" lon="30.1934847236"><ele>10.23</ele><time>2026-08-25T19:17:42Z</time></trkpt><trkpt lat="60.0631221291" lon="30.1935031638"><ele>10.23</ele><time>2026-08-25T19:17:44Z</time></trkpt><trkpt lat="60.0630946364" lon="30.1936124638"><ele>10.23</ele><time>2026-08-25T19:17:49Z</time></trkpt><trkpt lat="60.0630172715" lon="30.1936814468"><ele>10.23</ele><time>2026-08-25T19:17:59Z</time></trkpt><trkpt lat="60.0629912876" lon="30.1937128790"><ele>10.23</ele><time>2026-08-25T19:18:09Z</time></trkpt><trkpt lat="60.0629899465" lon="30.1937178243"><ele>10.23</ele><time>2026-08-25T19:18:23Z</time></trkpt><trkpt lat="60.0629778765" lon="30.1937173214"><ele>10.23</ele><time>2026-08-25T19:18:40Z</time></trkpt><trkpt lat="60.0629560836" lon="30.1937349234"><ele>10.23</ele><time>2026-08-25T19:19:07Z</time></trkpt><trkpt lat="60.0629344583" lon="30.1937469933"><ele>10.23</ele><time>2026-08-25T19:19:26Z</time></trkpt><trkpt lat="60.0629541557" lon="30.1937136333"><ele>10.23</ele><time>2026-08-25T19:19:39Z</time></trkpt><trkpt lat="60.0629708357" lon="30.1937236916"><ele>10.23</ele><time>2026-08-25T19:19:53Z</time></trkpt><trkpt lat="60.0629687402" lon="30.1937246136"><ele>10.23</ele><time>2026-08-25T19:20:21Z</time></trkpt><trkpt lat="60.0629684050" lon="30.1937233564"><ele>10.23</ele><time>2026-08-25T19:20:42Z</time></trkpt><trkpt lat="60.0629676506" lon="30.1937250327"><ele>10.23</ele><time>2026-08-25T19:21:06Z</time></trkpt><trkpt lat="60.0629674830" lon="30.1937217638"><ele>10.23</ele><time>2026-08-25T19:21:31Z</time></trkpt><trkpt lat="60.0629673991" lon="30.1937314868"><ele>10.23</ele><time>2026-08-25T19:21:56Z</time></trkpt><trkpt lat="60.0629691593" lon="30.1937308162"><ele>10.23</ele><time>2026-08-25T19:22:12Z</time></trkpt><trkpt lat="60.0629715063" lon="30.1937422995"><ele>10.23</ele><time>2026-08-25T19:22:39Z</time></trkpt><trkpt lat="60.0629736017" lon="30.1937444787"><ele>10.23</ele><time>2026-08-25T19:22:56Z</time></trkpt><trkpt lat="60.0629741885" lon="30.1937479991"><ele>10.23</ele><time>2026-08-25T19:23:19Z</time></trkpt><trkpt lat="60.0629781280" lon="30.1937380247"><ele>10.23</ele><time>2026-08-25T19:23:20Z</time></trkpt><trkpt lat="60.0629710034" lon="30.1937730610"><ele>10.23</ele><time>2026-08-25T19:23:23Z</time></trkpt><trkpt lat="60.0629097316" lon="30.1937360968"><ele>10.23</ele><time>2026-08-25T19:23:35Z</time></trkpt><trkpt lat="60.0629135035" lon="30.1937048323"><ele>10.23</ele><time>2026-08-25T19:23:47Z</time></trkpt><trkpt lat="60.0629115757" lon="30.1936971210"><ele>10.23</ele><time>2026-08-25T19:24:04Z</time></trkpt><trkpt lat="60.0629327819" lon="30.1937394496"><ele>10.23</ele><time>2026-08-25T19:24:18Z</time></trkpt><trkpt lat="60.0629368052" lon="30.1937348396"><ele>10.23</ele><time>2026-08-25T19:24:38Z</time></trkpt><trkpt lat="60.0629378948" lon="30.1937432215"><ele>10.71</ele><time>2026-08-25T19:24:54Z</time></trkpt><trkpt lat="60.0629205443" lon="30.1937203389"><ele>10.23</ele><time>2026-08-25T19:25:15Z</time></trkpt><trkpt lat="60.0629096478" lon="30.1937113702"><ele>10.23</ele><time>2026-08-25T19:25:26Z</time></trkpt><trkpt lat="60.0629250705" lon="30.1937539503"><ele>10.23</ele><time>2026-08-25T19:25:39Z</time></trkpt><trkpt lat="60.0629284233" lon="30.1937575545"><ele>10.23</ele><time>2026-08-25T19:25:57Z</time></trkpt><trkpt lat="60.0629228074" lon="30.1938113663"><ele>10.71</ele><time>2026-08-25T19:26:13Z</time></trkpt><trkpt lat="60.0629110727" lon="30.1938545331"><ele>10.71</ele><time>2026-08-25T19:26:28Z</time></trkpt><trkpt lat="60.0629076362" lon="30.1938713808"><ele>10.71</ele><time>2026-08-25T19:26:41Z</time></trkpt><trkpt lat="60.0629095640" lon="30.1939075906"><ele>10.71</ele><time>2026-08-25T19:27:01Z</time></trkpt><trkpt lat="60.0629109889" lon="30.1938976161"><ele>10.71</ele><time>2026-08-25T19:27:19Z</time></trkpt><trkpt lat="60.0629084744" lon="30.1938896533"><ele>10.71</ele><time>2026-08-25T19:27:43Z</time></trkpt><trkpt lat="60.0629114080" lon="30.1939052437"><ele>10.71</ele><time>2026-08-25T19:27:58Z</time></trkpt><trkpt lat="60.0629071333" lon="30.1939023100"><ele>10.71</ele><time>2026-08-25T19:28:16Z</time></trkpt><trkpt lat="60.0629061274" lon="30.1939059142"><ele>10.71</ele><time>2026-08-25T19:28:36Z</time></trkpt><trkpt lat="60.0629079714" lon="30.1939116977"><ele>10.71</ele><time>2026-08-25T19:29:08Z</time></trkpt><trkpt lat="60.0629400741" lon="30.1938592270"><ele>10.71</ele><time>2026-08-25T19:29:16Z</time></trkpt><trkpt lat="60.0629789662" lon="30.1937740669"><ele>10.71</ele><time>2026-08-25T19:29:30Z</time></trkpt><trkpt lat="60.0629615318" lon="30.1937395334"><ele>10.71</ele><time>2026-08-25T19:29:43Z</time></trkpt><trkpt lat="60.0629610289" lon="30.1937447302"><ele>10.71</ele><time>2026-08-25T19:30:01Z</time></trkpt><trkpt lat="60.0629570894" lon="30.1937367674"><ele>10.71</ele><time>2026-08-25T19:30:15Z</time></trkpt><trkpt lat="60.0629436783" lon="30.1937570516"><ele>10.71</ele><time>2026-08-25T19:30:25Z</time></trkpt><trkpt lat="60.0629473664" lon="30.1937535312"><ele>10.71</ele><time>2026-08-25T19:30:46Z</time></trkpt><trkpt lat="60.0629461091" lon="30.1937531121"><ele>10.71</ele><time>2026-08-25T19:31:09Z</time></trkpt><trkpt lat="60.0629625376" lon="30.1937525254"><ele>10.71</ele><time>2026-08-25T19:31:19Z</time></trkpt><trkpt lat="60.0629746914" lon="30.1937597338"><ele>10.71</ele><time>2026-08-25T19:31:39Z</time></trkpt><trkpt lat="60.0629770383" lon="30.1937681995"><ele>10.71</ele><time>2026-08-25T19:31:57Z</time></trkpt><trkpt lat="60.0629319437" lon="30.1937724743"><ele>10.71</ele><time>2026-08-25T19:32:17Z</time></trkpt><trkpt lat="60.0629299320" lon="30.1937930938"><ele>10.71</ele><time>2026-08-25T19:32:32Z</time></trkpt><trkpt lat="60.0629360508" lon="30.1937860530"><ele>10.71</ele><time>2026-08-25T19:32:51Z</time></trkpt><trkpt lat="60.0629328657" lon="30.1937647630"><ele>10.71</ele><time>2026-08-25T19:33:24Z</time></trkpt><trkpt lat="60.0629389845" lon="30.1937612426"><ele>10.71</ele><time>2026-08-25T19:33:27Z</time></trkpt><trkpt lat="60.0629788823" lon="30.1937398687"><ele>10.71</ele><time>2026-08-25T19:33:37Z</time></trkpt><trkpt lat="60.0630036928" lon="30.1937179919"><ele>10.71</ele><time>2026-08-25T19:33:40Z</time></trkpt><trkpt lat="60.0630962290" lon="30.1936263777"><ele>10.71</ele><time>2026-08-25T19:33:50Z</time></trkpt><trkpt lat="60.0631206203" lon="30.1935174130"><ele>10.71</ele><time>2026-08-25T19:34:02Z</time></trkpt><trkpt lat="60.0631008390" lon="30.1934224460"><ele>10.71</ele><time>2026-08-25T19:34:06Z</time></trkpt><trkpt lat="60.0630403217" lon="30.1932882518"><ele>10.71</ele><time>2026-08-25T19:34:13Z</time></trkpt><trkpt lat="60.0629093125" lon="30.1933384594"><ele>10.71</ele><time>2026-08-25T19:34:27Z</time></trkpt><trkpt lat="60.0629062112" lon="30.1933453325"><ele>10.71</ele><time>2026-08-25T19:34:30Z</time></trkpt><trkpt lat="60.0628218055" lon="30.1933955401"><ele>10.71</ele><time>2026-08-25T19:34:43Z</time></trkpt><trkpt lat="60.0627642218" lon="30.1933925226"><ele>10.71</ele><time>2026-08-25T19:34:50Z</time></trkpt><trkpt lat="60.0627361424" lon="30.1933470089"><ele>10.71</ele><time>2026-08-25T19:34:53Z</time></trkpt><trkpt lat="60.0626989268" lon="30.1933434885"><ele>10.71</ele><time>2026-08-25T19:35:07Z</time></trkpt><trkpt lat="60.0627000164" lon="30.1933480147"><ele>10.71</ele><time>2026-08-25T19:35:27Z</time></trkpt><trkpt lat="60.0627038721" lon="30.1933505293"><ele>10.71</ele><time>2026-08-25T19:35:48Z</time></trkpt><trkpt lat="60.0627039559" lon="30.1933486015"><ele>10.71</ele><time>2026-08-25T19:35:57Z</time></trkpt><trkpt lat="60.0626562629" lon="30.1932466775"><ele>10.71</ele><time>2026-08-25T19:36:04Z</time></trkpt><trkpt lat="60.0625674985" lon="30.1931447536"><ele>10.71</ele><time>2026-08-25T19:36:13Z</time></trkpt><trkpt lat="60.0624473020" lon="30.1929181069"><ele>10.71</ele><time>2026-08-25T19:36:27Z</time></trkpt><trkpt lat="60.0623280276" lon="30.1926230639"><ele>10.71</ele><time>2026-08-25T19:36:44Z</time></trkpt><trkpt lat="60.0622832682" lon="30.1923457067"><ele>10.71</ele><time>2026-08-25T19:36:58Z</time></trkpt><trkpt lat="60.0622545183" lon="30.1920498256"><ele>10.71</ele><time>2026-08-25T19:37:12Z</time></trkpt><trkpt lat="60.0622620620" lon="30.1920147054"><ele>10.71</ele><time>2026-08-25T19:37:30Z</time></trkpt><trkpt lat="60.0622561947" lon="30.1920077484"><ele>10.71</ele><time>2026-08-25T19:38:00Z</time></trkpt><trkpt lat="60.0622504111" lon="30.1919946726"><ele>10.71</ele><time>2026-08-25T19:38:21Z</time></trkpt><trkpt lat="60.0622467231" lon="30.1919996180"><ele>10.71</ele><time>2026-08-25T19:38:41Z</time></trkpt><trkpt lat="60.0622489024" lon="30.1920072455"><ele>10.71</ele><time>2026-08-25T19:38:58Z</time></trkpt><trkpt lat="60.0622542668" lon="30.1919930801"><ele>10.71</ele><time>2026-08-25T19:39:03Z</time></trkpt><trkpt lat="60.0622793287" lon="30.1918785833"><ele>10.71</ele><time>2026-08-25T19:39:19Z</time></trkpt><trkpt lat="60.0622685999" lon="30.1917750668"><ele>10.71</ele><time>2026-08-25T19:39:32Z</time></trkpt><trkpt lat="60.0622701924" lon="30.1917464845"><ele>10.71</ele><time>2026-08-25T19:39:35Z</time></trkpt><trkpt lat="60.0622437894" lon="30.1916209236"><ele>10.23</ele><time>2026-08-25T19:39:46Z</time></trkpt><trkpt lat="60.0621462241" lon="30.1917318162"><ele>10.23</ele><time>2026-08-25T19:39:58Z</time></trkpt><trkpt lat="60.0620928314" lon="30.1917659305"><ele>10.23</ele><time>2026-08-25T19:40:05Z</time></trkpt><trkpt lat="60.0620020553" lon="30.1918712910"><ele>10.23</ele><time>2026-08-25T19:40:17Z</time></trkpt><trkpt lat="60.0619688630" lon="30.1918909885"><ele>10.23</ele><time>2026-08-25T19:40:21Z</time></trkpt><trkpt lat="60.0619074237" lon="30.1919696946"><ele>10.23</ele><time>2026-08-25T19:40:28Z</time></trkpt><trkpt lat="60.0617926754" lon="30.1919862907"><ele>10.23</ele><time>2026-08-25T19:40:42Z</time></trkpt><trkpt lat="60.0617874786" lon="30.1919677667"><ele>10.23</ele><time>2026-08-25T19:40:54Z</time></trkpt><trkpt lat="60.0617413782" lon="30.1918647531"><ele>10.23</ele><time>2026-08-25T19:41:08Z</time></trkpt><trkpt lat="60.0617200043" lon="30.1917961892"><ele>10.23</ele><time>2026-08-25T19:41:22Z</time></trkpt><trkpt lat="60.0617007259" lon="30.1917004678"><ele>10.23</ele><time>2026-08-25T19:41:43Z</time></trkpt><trkpt lat="60.0616744068" lon="30.1915929280"><ele>10.23</ele><time>2026-08-25T19:42:02Z</time></trkpt><trkpt lat="60.0616650190" lon="30.1915946882"><ele>10.23</ele><time>2026-08-25T19:42:24Z</time></trkpt><trkpt lat="60.0616705511" lon="30.1916324068"><ele>10.23</ele><time>2026-08-25T19:42:26Z</time></trkpt><trkpt lat="60.0617391150" lon="30.1918924134"><ele>10.23</ele><time>2026-08-25T19:42:39Z</time></trkpt><trkpt lat="60.0618000515" lon="30.1919945050"><ele>10.23</ele><time>2026-08-25T19:42:46Z</time></trkpt><trkpt lat="60.0618778355" lon="30.1919558644"><ele>10.23</ele><time>2026-08-25T19:42:54Z</time></trkpt><trkpt lat="60.0619215891" lon="30.1919121109"><ele>10.23</ele><time>2026-08-25T19:43:07Z</time></trkpt><trkpt lat="60.0620252732" lon="30.1918327343"><ele>10.23</ele><time>2026-08-25T19:43:21Z</time></trkpt><trkpt lat="60.0621218327" lon="30.1917299721"><ele>10.23</ele><time>2026-08-25T19:43:33Z</time></trkpt><trkpt lat="60.0622267742" lon="30.1916421298"><ele>10.23</ele><time>2026-08-25T19:43:45Z</time></trkpt><trkpt lat="60.0622551888" lon="30.1916464046"><ele>10.23</ele><time>2026-08-25T19:43:57Z</time></trkpt><trkpt lat="60.0622561108" lon="30.1916644257"><ele>10.23</ele><time>2026-08-25T19:44:10Z</time></trkpt><trkpt lat="60.0622499082" lon="30.1916547865"><ele>10.23</ele><time>2026-08-25T19:44:35Z</time></trkpt><trkpt lat="60.0622595474" lon="30.1916715503"><ele>10.23</ele><time>2026-08-25T19:44:51Z</time></trkpt></trkseg><trkseg><trkpt lat="60.2605826687" lon="30.4723629635"><ele>-18.61</ele><time>2026-08-29T07:40:53Z</time></trkpt><trkpt lat="60.2605697606" lon="30.4723624606"><ele>-16.69</ele><time>2026-08-29T07:41:25Z</time></trkpt><trkpt lat="60.2605767176" lon="30.4723444395"><ele>-15.24</ele><time>2026-08-29T07:41:51Z</time></trkpt><trkpt lat="60.2605592832" lon="30.4723330401"><ele>-13.80</ele><time>2026-08-29T07:42:14Z</time></trkpt><trkpt lat="60.2605625521" lon="30.4723405000"><ele>-12.36</ele><time>2026-08-29T07:42:44Z</time></trkpt><trkpt lat="60.2605692577" lon="30.4723364767"><ele>-11.40</ele><time>2026-08-29T07:43:05Z</time></trkpt><trkpt lat="60.2605627198" lon="30.4722522385"><ele>-17.17</ele><time>2026-08-29T07:44:00Z</time></trkpt><trkpt lat="60.2605705149" lon="30.4723275919"><ele>-17.17</ele><time>2026-08-29T07:44:01Z</time></trkpt><trkpt lat="60.2605902124" lon="30.4723607004"><ele>-16.69</ele><time>2026-08-29T07:44:17Z</time></trkpt><trkpt lat="60.2605783101" lon="30.4723591916"><ele>-16.21</ele><time>2026-08-29T07:44:33Z</time></trkpt><trkpt lat="60.2605511528" lon="30.4723334592"><ele>-16.21</ele><time>2026-08-29T07:45:22Z</time></trkpt><trkpt lat="60.2605546732" lon="30.4723202996"><ele>-16.21</ele><time>2026-08-29T07:45:23Z</time></trkpt><trkpt lat="60.2605885360" lon="30.4723415058"><ele>-17.17</ele><time>2026-08-29T07:45:31Z</time></trkpt><trkpt lat="60.2604830079" lon="30.4723005183"><ele>-17.17</ele><time>2026-08-29T07:48:34Z</time></trkpt><trkpt lat="60.2604973409" lon="30.4723029491"><ele>-17.17</ele><time>2026-08-29T07:48:35Z</time></trkpt><trkpt lat="60.2606029529" lon="30.4723480437"><ele>-14.76</ele><time>2026-08-29T07:48:40Z</time></trkpt><trkpt lat="60.2606214769" lon="30.4723902047"><ele>-8.51</ele><time>2026-08-29T07:48:47Z</time></trkpt><trkpt lat="60.2606223151" lon="30.4723930545"><ele>-5.15</ele><time>2026-08-29T07:48:48Z</time></trkpt><trkpt lat="60.2606211416" lon="30.4723957367"><ele>-1.79</ele><time>2026-08-29T07:48:49Z</time></trkpt><trkpt lat="60.2606208902" lon="30.4723964911"><ele>1.10</ele><time>2026-08-29T07:48:50Z</time></trkpt><trkpt lat="60.2606182918" lon="30.4723969102"><ele>4.46</ele><time>2026-08-29T07:48:51Z</time></trkpt><trkpt lat="60.2606130950" lon="30.4723984189"><ele>10.23</ele><time>2026-08-29T07:48:53Z</time></trkpt><trkpt lat="60.2606095746" lon="30.4724033643"><ele>15.52</ele><time>2026-08-29T07:48:55Z</time></trkpt><trkpt lat="60.2606095746" lon="30.4724024422"><ele>20.32</ele><time>2026-08-29T07:48:57Z</time></trkpt><trkpt lat="60.2606092393" lon="30.4724037834"><ele>24.65</ele><time>2026-08-29T07:48:59Z</time></trkpt><trkpt lat="60.2606102452" lon="30.4724016879"><ele>28.98</ele><time>2026-08-29T07:49:01Z</time></trkpt><trkpt lat="60.2606086526" lon="30.4723943956"><ele>32.82</ele><time>2026-08-29T07:49:03Z</time></trkpt><trkpt lat="60.2606052998" lon="30.4723899532"><ele>36.67</ele><time>2026-08-29T07:49:05Z</time></trkpt><trkpt lat="60.2605952416" lon="30.4723810684"><ele>40.03</ele><time>2026-08-29T07:49:07Z</time></trkpt><trkpt lat="60.2605913859" lon="30.4723790567"><ele>42.92</ele><time>2026-08-29T07:49:09Z</time></trkpt><trkpt lat="60.2605807409" lon="30.4723789729"><ele>47.24</ele><time>2026-08-29T07:49:12Z</time></trkpt><trkpt lat="60.2605799865" lon="30.4723793082"><ele>50.61</ele><time>2026-08-29T07:49:15Z</time></trkpt><trkpt lat="60.2605765499" lon="30.4723845888"><ele>53.97</ele><time>2026-08-29T07:49:18Z</time></trkpt><trkpt lat="60.2605799027" lon="30.4723820742"><ele>57.82</ele><time>2026-08-29T07:49:22Z</time></trkpt><trkpt lat="60.2605849318" lon="30.4723912943"><ele>61.18</ele><time>2026-08-29T07:49:26Z</time></trkpt><trkpt lat="60.2605868597" lon="30.4723951500"><ele>64.55</ele><time>2026-08-29T07:49:31Z</time></trkpt><trkpt lat="60.2605901286" lon="30.4723901208"><ele>67.91</ele><time>2026-08-29T07:49:37Z</time></trkpt><trkpt lat="60.2605967503" lon="30.4723596107"><ele>70.79</ele><time>2026-08-29T07:49:44Z</time></trkpt><trkpt lat="60.2605637256" lon="30.4723290168"><ele>74.16</ele><time>2026-08-29T07:49:56Z</time></trkpt><trkpt lat="60.2605560981" lon="30.4723611195"><ele>77.04</ele><time>2026-08-29T07:50:24Z</time></trkpt><trkpt lat="60.2605630551" lon="30.4723472893"><ele>77.52</ele><time>2026-08-29T07:51:06Z</time></trkpt><trkpt lat="60.2605751250" lon="30.4723524023"><ele>78.48</ele><time>2026-08-29T07:51:45Z</time></trkpt><trkpt lat="60.2605759632" lon="30.4723536596"><ele>78.48</ele><time>2026-08-29T07:52:24Z</time></trkpt><trkpt lat="60.2605781425" lon="30.4723524023"><ele>78.48</ele><time>2026-08-29T07:53:06Z</time></trkpt><trkpt lat="60.2605796512" lon="30.4723421764"><ele>78.48</ele><time>2026-08-29T07:53:44Z</time></trkpt><trkpt lat="60.2605771367" lon="30.4723435175"><ele>78.48</ele><time>2026-08-29T07:54:17Z</time></trkpt><trkpt lat="60.2605742868" lon="30.4723416734"><ele>78.48</ele><time>2026-08-29T07:54:47Z</time></trkpt><trkpt lat="60.2605726104" lon="30.4723322857"><ele>78.48</ele><time>2026-08-29T07:55:20Z</time></trkpt><trkpt lat="60.2605659049" lon="30.4723480437"><ele>78.97</ele><time>2026-08-29T07:55:57Z</time></trkpt><trkpt lat="60.2605851833" lon="30.4723551683"><ele>78.97</ele><time>2026-08-29T07:56:08Z</time></trkpt><trkpt lat="60.2605918888" lon="30.4723770451"><ele>79.45</ele><time>2026-08-29T07:56:20Z</time></trkpt><trkpt lat="60.2605903801" lon="30.4723391589"><ele>79.45</ele><time>2026-08-29T07:56:29Z</time></trkpt><trkpt lat="60.2605675813" lon="30.4723228980"><ele>79.45</ele><time>2026-08-29T07:56:41Z</time></trkpt><trkpt lat="60.2605643123" lon="30.4723166116"><ele>79.93</ele><time>2026-08-29T07:57:21Z</time></trkpt><trkpt lat="60.2605638094" lon="30.4723179527"><ele>79.93</ele><time>2026-08-29T07:57:41Z</time></trkpt><trkpt lat="60.2605669107" lon="30.4723262507"><ele>79.93</ele><time>2026-08-29T07:58:14Z</time></trkpt><trkpt lat="60.2605595347" lon="30.4723271728"><ele>79.93</ele><time>2026-08-29T07:58:56Z</time></trkpt><trkpt lat="60.2605597861" lon="30.4723228142"><ele>79.93</ele><time>2026-08-29T07:59:38Z</time></trkpt><trkpt lat="60.2605637256" lon="30.4723247420"><ele>79.93</ele><time>2026-08-29T08:00:19Z</time></trkpt><trkpt lat="60.2605709340" lon="30.4723173659"><ele>80.41</ele><time>2026-08-29T08:00:44Z</time></trkpt><trkpt lat="60.2605770528" lon="30.4723117501"><ele>80.41</ele><time>2026-08-29T08:00:57Z</time></trkpt><trkpt lat="60.2605824172" lon="30.4723103251"><ele>80.41</ele><time>2026-08-29T08:01:09Z</time></trkpt><trkpt lat="60.2606286854" lon="30.4722667392"><ele>80.41</ele><time>2026-08-29T08:01:22Z</time></trkpt><trkpt lat="60.2606180403" lon="30.4722232372"><ele>80.89</ele><time>2026-08-29T08:01:33Z</time></trkpt><trkpt lat="60.2606148552" lon="30.4722067248"><ele>80.89</ele><time>2026-08-29T08:01:57Z</time></trkpt><trkpt lat="60.2606269252" lon="30.4721973371"><ele>80.89</ele><time>2026-08-29T08:02:02Z</time></trkpt><trkpt lat="60.2606472094" lon="30.4721631389"><ele>80.89</ele><time>2026-08-29T08:02:16Z</time></trkpt><trkpt lat="60.2606270090" lon="30.4721832555"><ele>80.89</ele><time>2026-08-29T08:02:40Z</time></trkpt><trkpt lat="60.2606091555" lon="30.4722371511"><ele>80.89</ele><time>2026-08-29T08:02:52Z</time></trkpt><trkpt lat="60.2605888713" lon="30.4722123407"><ele>80.89</ele><time>2026-08-29T08:03:07Z</time></trkpt><trkpt lat="60.2605887875" lon="30.4722078983"><ele>80.89</ele><time>2026-08-29T08:03:28Z</time></trkpt><trkpt lat="60.2605940681" lon="30.4722106643"><ele>81.37</ele><time>2026-08-29T08:03:44Z</time></trkpt><trkpt lat="60.2605840936" lon="30.4722239915"><ele>81.37</ele><time>2026-08-29T08:03:46Z</time></trkpt><trkpt lat="60.2605140209" lon="30.4722672421"><ele>81.37</ele><time>2026-08-29T08:03:53Z</time></trkpt><trkpt lat="60.2604659088" lon="30.4722897056"><ele>81.37</ele><time>2026-08-29T08:03:57Z</time></trkpt><trkpt lat="60.2604182996" lon="30.4723616224"><ele>81.37</ele><time>2026-08-29T08:04:01Z</time></trkpt><trkpt lat="60.2603721991" lon="30.4724203795"><ele>81.37</ele><time>2026-08-29T08:04:11Z</time></trkpt><trkpt lat="60.2602678444" lon="30.4724518117"><ele>81.37</ele><time>2026-08-29T08:04:20Z</time></trkpt><trkpt lat="60.2602450456" lon="30.4724660609"><ele>81.37</ele><time>2026-08-29T08:04:22Z</time></trkpt><trkpt lat="60.2601841092" lon="30.4725138377"><ele>81.37</ele><time>2026-08-29T08:04:27Z</time></trkpt><trkpt lat="60.2600125317" lon="30.4725870956"><ele>81.37</ele><time>2026-08-29T08:04:37Z</time></trkpt><trkpt lat="60.2600079216" lon="30.4725810606"><ele>81.37</ele><time>2026-08-29T08:04:41Z</time></trkpt><trkpt lat="60.2600287087" lon="30.4725844134"><ele>81.37</ele><time>2026-08-29T08:04:52Z</time></trkpt><trkpt lat="60.2600086760" lon="30.4726189468"><ele>81.37</ele><time>2026-08-29T08:04:59Z</time></trkpt><trkpt lat="60.2598700393" lon="30.4726637900"><ele>81.37</ele><time>2026-08-29T08:05:12Z</time></trkpt><trkpt lat="60.2597697079" lon="30.4727453459"><ele>81.37</ele><time>2026-08-29T08:05:22Z</time></trkpt><trkpt lat="60.2597406227" lon="30.4727780353"><ele>81.37</ele><time>2026-08-29T08:05:25Z</time></trkpt><trkpt lat="60.2596943546" lon="30.4727740958"><ele>81.37</ele><time>2026-08-29T08:05:30Z</time></trkpt><trkpt lat="60.2596231084" lon="30.4726493731"><ele>81.37</ele><time>2026-08-29T08:05:37Z</time></trkpt><trkpt lat="60.2595811989" lon="30.4725819826"><ele>81.37</ele><time>2026-08-29T08:05:41Z</time></trkpt><trkpt lat="60.2595209330" lon="30.4724876862"><ele>81.37</ele><time>2026-08-29T08:05:52Z</time></trkpt><trkpt lat="60.2595203463" lon="30.4724875186"><ele>81.37</ele><time>2026-08-29T08:05:54Z</time></trkpt><trkpt lat="60.2594812866" lon="30.4724977445"><ele>81.37</ele><time>2026-08-29T08:06:00Z</time></trkpt><trkpt lat="60.2594248764" lon="30.4725130834"><ele>81.37</ele><time>2026-08-29T08:06:07Z</time></trkpt><trkpt lat="60.2594076097" lon="30.4725639615"><ele>81.37</ele><time>2026-08-29T08:06:10Z</time></trkpt><trkpt lat="60.2593812067" lon="30.4725864250"><ele>81.37</ele><time>2026-08-29T08:06:13Z</time></trkpt><trkpt lat="60.2593536302" lon="30.4725969024"><ele>81.37</ele><time>2026-08-29T08:06:16Z</time></trkpt><trkpt lat="60.2592999022" lon="30.4726047814"><ele>80.89</ele><time>2026-08-29T08:06:21Z</time></trkpt><trkpt lat="60.2592566516" lon="30.4726254847"><ele>80.89</ele><time>2026-08-29T08:06:29Z</time></trkpt><trkpt lat="60.2592417318" lon="30.4726499598"><ele>80.89</ele><time>2026-08-29T08:06:31Z</time></trkpt><trkpt lat="60.2591595892" lon="30.4726424161"><ele>80.89</ele><time>2026-08-29T08:06:40Z</time></trkpt><trkpt lat="60.2591139078" lon="30.4726443440"><ele>80.89</ele><time>2026-08-29T08:06:46Z</time></trkpt><trkpt lat="60.2590721659" lon="30.4726109840"><ele>80.89</ele><time>2026-08-29T08:06:51Z</time></trkpt><trkpt lat="60.2590194438" lon="30.4726322740"><ele>80.89</ele><time>2026-08-29T08:06:58Z</time></trkpt><trkpt lat="60.2589935437" lon="30.4726663046"><ele>80.89</ele><time>2026-08-29T08:07:01Z</time></trkpt><trkpt lat="60.2589822281" lon="30.4726953059"><ele>80.89</ele><time>2026-08-29T08:07:03Z</time></trkpt><trkpt lat="60.2588967327" lon="30.4727225471"><ele>80.89</ele><time>2026-08-29T08:07:12Z</time></trkpt><trkpt lat="60.2588335332" lon="30.4727627803"><ele>80.89</ele><time>2026-08-29T08:07:20Z</time></trkpt><trkpt lat="60.2587118279" lon="30.4727762751"><ele>80.89</ele><time>2026-08-29T08:07:31Z</time></trkpt><trkpt lat="60.2586550824" lon="30.4728660453"><ele>80.89</ele><time>2026-08-29T08:07:41Z</time></trkpt><trkpt lat="60.2586045396" lon="30.4729035962"><ele>80.89</ele><time>2026-08-29T08:07:49Z</time></trkpt><trkpt lat="60.2585960738" lon="30.4729026742"><ele>80.89</ele><time>2026-08-29T08:08:00Z</time></trkpt><trkpt lat="60.2585867699" lon="30.4729065299"><ele>80.89</ele><time>2026-08-29T08:08:04Z</time></trkpt><trkpt lat="60.2585447766" lon="30.4728888441"><ele>80.89</ele><time>2026-08-29T08:08:09Z</time></trkpt><trkpt lat="60.2584518213" lon="30.4729270656"><ele>80.89</ele><time>2026-08-29T08:08:20Z</time></trkpt><trkpt lat="60.2584390808" lon="30.4729135707"><ele>80.89</ele><time>2026-08-29T08:08:22Z</time></trkpt><trkpt lat="60.2584066428" lon="30.4728528019"><ele>80.89</ele><time>2026-08-29T08:08:30Z</time></trkpt><trkpt lat="60.2583509032" lon="30.4728538916"><ele>80.89</ele><time>2026-08-29T08:08:34Z</time></trkpt><trkpt lat="60.2583301999" lon="30.4728734214"><ele>80.89</ele><time>2026-08-29T08:08:36Z</time></trkpt><trkpt lat="60.2582483087" lon="30.4729019199"><ele>80.89</ele><time>2026-08-29T08:08:45Z</time></trkpt><trkpt lat="60.2582377475" lon="30.4729080386"><ele>80.89</ele><time>2026-08-29T08:08:46Z</time></trkpt><trkpt lat="60.2582062315" lon="30.4729166720"><ele>80.89</ele><time>2026-08-29T08:08:48Z</time></trkpt><trkpt lat="60.2581188083" lon="30.4729470983"><ele>80.89</ele><time>2026-08-29T08:08:57Z</time></trkpt><trkpt lat="60.2581055649" lon="30.4729502834"><ele>80.89</ele><time>2026-08-29T08:09:01Z</time></trkpt><trkpt lat="60.2579995338" lon="30.4730704799"><ele>80.89</ele><time>2026-08-29T08:09:09Z</time></trkpt><trkpt lat="60.2579002921" lon="30.4731295723"><ele>80.89</ele><time>2026-08-29T08:09:17Z</time></trkpt><trkpt lat="60.2578688599" lon="30.4731455818"><ele>80.89</ele><time>2026-08-29T08:09:22Z</time></trkpt><trkpt lat="60.2577282954" lon="30.4731945321"><ele>80.89</ele><time>2026-08-29T08:09:32Z</time></trkpt><trkpt lat="60.2577243559" lon="30.4731895868"><ele>80.89</ele><time>2026-08-29T08:09:34Z</time></trkpt><trkpt lat="60.2576081827" lon="30.4732118826"><ele>80.89</ele><time>2026-08-29T08:09:43Z</time></trkpt><trkpt lat="60.2574864775" lon="30.4732294008"><ele>80.89</ele><time>2026-08-29T08:09:52Z</time></trkpt><trkpt lat="60.2574560512" lon="30.4732673708"><ele>80.89</ele><time>2026-08-29T08:09:55Z</time></trkpt><trkpt lat="60.2574240323" lon="30.4733278882"><ele>80.89</ele><time>2026-08-29T08:10:01Z</time></trkpt><trkpt lat="60.2573935222" lon="30.4732904211"><ele>80.89</ele><time>2026-08-29T08:10:04Z</time></trkpt><trkpt lat="60.2573731542" lon="30.4732723162"><ele>80.89</ele><time>2026-08-29T08:10:18Z</time></trkpt><trkpt lat="60.2573257126" lon="30.4731878266"><ele>80.89</ele><time>2026-08-29T08:10:34Z</time></trkpt><trkpt lat="60.2573338430" lon="30.4732080270"><ele>80.89</ele><time>2026-08-29T08:10:38Z</time></trkpt><trkpt lat="60.2573651914" lon="30.4732993897"><ele>80.89</ele><time>2026-08-29T08:10:43Z</time></trkpt><trkpt lat="60.2574315760" lon="30.4734771699"><ele>80.89</ele><time>2026-08-29T08:10:53Z</time></trkpt><trkpt lat="60.2573801950" lon="30.4735384416"><ele>80.89</ele><time>2026-08-29T08:11:03Z</time></trkpt><trkpt lat="60.2573645208" lon="30.4735474102"><ele>80.89</ele><time>2026-08-29T08:11:12Z</time></trkpt><trkpt lat="60.2572843060" lon="30.4735974502"><ele>80.89</ele><time>2026-08-29T08:11:23Z</time></trkpt><trkpt lat="60.2572544664" lon="30.4736300558"><ele>80.89</ele><time>2026-08-29T08:11:27Z</time></trkpt><trkpt lat="60.2572360262" lon="30.4736534413"><ele>80.89</ele><time>2026-08-29T08:11:29Z</time></trkpt><trkpt lat="60.2572078630" lon="30.4736712947"><ele>80.89</ele><time>2026-08-29T08:11:32Z</time></trkpt><trkpt lat="60.2571204398" lon="30.4736825265"><ele>80.89</ele><time>2026-08-29T08:11:42Z</time></trkpt><trkpt lat="60.2571147401" lon="30.4737032298"><ele>80.89</ele><time>2026-08-29T08:11:50Z</time></trkpt><trkpt lat="60.2571027540" lon="30.4737853725"><ele>80.89</ele><time>2026-08-29T08:11:54Z</time></trkpt><trkpt lat="60.2570019197" lon="30.4738773219"><ele>80.89</ele><time>2026-08-29T08:12:06Z</time></trkpt><trkpt lat="60.2570015844" lon="30.4738818482"><ele>80.89</ele><time>2026-08-29T08:12:10Z</time></trkpt><trkpt lat="60.2569803782" lon="30.4739548545"><ele>80.89</ele><time>2026-08-29T08:12:14Z</time></trkpt><trkpt lat="60.2569652069" lon="30.4739874601"><ele>80.89</ele><time>2026-08-29T08:12:16Z</time></trkpt><trkpt lat="60.2568871714" lon="30.4741830938"><ele>80.89</ele><time>2026-08-29T08:12:27Z</time></trkpt><trkpt lat="60.2568680607" lon="30.4742027912"><ele>80.89</ele><time>2026-08-29T08:12:29Z</time></trkpt><trkpt lat="60.2568051964" lon="30.4741261806"><ele>79.45</ele><time>2026-08-29T08:12:35Z</time></trkpt><trkpt lat="60.2567877620" lon="30.4740847740"><ele>79.45</ele><time>2026-08-29T08:12:37Z</time></trkpt><trkpt lat="60.2567637898" lon="30.4739686847"><ele>79.45</ele><time>2026-08-29T08:12:50Z</time></trkpt><trkpt lat="60.2567627840" lon="30.4739387613"><ele>79.45</ele><time>2026-08-29T08:13:04Z</time></trkpt><trkpt lat="60.2567615267" lon="30.4739352409"><ele>78.48</ele><time>2026-08-29T08:13:12Z</time></trkpt><trkpt lat="60.2567408234" lon="30.4739188962"><ele>78.48</ele><time>2026-08-29T08:13:16Z</time></trkpt><trkpt lat="60.2566444315" lon="30.4739232548"><ele>78.48</ele><time>2026-08-29T08:13:29Z</time></trkpt><trkpt lat="60.2566438448" lon="30.4739140347"><ele>78.48</ele><time>2026-08-29T08:13:31Z</time></trkpt><trkpt lat="60.2566400729" lon="30.4737619869"><ele>78.48</ele><time>2026-08-29T08:13:37Z</time></trkpt><trkpt lat="60.2566239797" lon="30.4737020563"><ele>78.48</ele><time>2026-08-29T08:13:40Z</time></trkpt><trkpt lat="60.2565648872" lon="30.4736545309"><ele>78.48</ele><time>2026-08-29T08:13:46Z</time></trkpt><trkpt lat="60.2565430105" lon="30.4736020602"><ele>78.48</ele><time>2026-08-29T08:13:50Z</time></trkpt><trkpt lat="60.2564914618" lon="30.4735726397"><ele>79.93</ele><time>2026-08-29T08:14:03Z</time></trkpt><trkpt lat="60.2564322017" lon="30.4736118671"><ele>79.45</ele><time>2026-08-29T08:14:22Z</time></trkpt><trkpt lat="60.2563401684" lon="30.4736327380"><ele>79.45</ele><time>2026-08-29T08:14:34Z</time></trkpt><trkpt lat="60.2563291043" lon="30.4736077599"><ele>79.45</ele><time>2026-08-29T08:14:36Z</time></trkpt><trkpt lat="60.2563020308" lon="30.4736071732"><ele>79.45</ele><time>2026-08-29T08:14:39Z</time></trkpt><trkpt lat="60.2562612947" lon="30.4736209195"><ele>79.93</ele><time>2026-08-29T08:14:45Z</time></trkpt><trkpt lat="60.2562237438" lon="30.4736546986"><ele>79.93</ele><time>2026-08-29T08:14:49Z</time></trkpt><trkpt lat="60.2562124282" lon="30.4736950155"><ele>79.93</ele><time>2026-08-29T08:14:51Z</time></trkpt><trkpt lat="60.2561934851" lon="30.4737220053"><ele>79.93</ele><time>2026-08-29T08:14:53Z</time></trkpt><trkpt lat="60.2561782300" lon="30.4737443011"><ele>79.93</ele><time>2026-08-29T08:14:55Z</time></trkpt><trkpt lat="60.2561230771" lon="30.4737510905"><ele>79.93</ele><time>2026-08-29T08:15:01Z</time></trkpt><trkpt lat="60.2560720313" lon="30.4737232625"><ele>79.93</ele><time>2026-08-29T08:15:07Z</time></trkpt><trkpt lat="60.2560043894" lon="30.4737556167"><ele>79.93</ele><time>2026-08-29T08:15:14Z</time></trkpt><trkpt lat="60.2559450455" lon="30.4737771582"><ele>79.93</ele><time>2026-08-29T08:15:20Z</time></trkpt><trkpt lat="60.2559178043" lon="30.4737697821"><ele>79.93</ele><time>2026-08-29T08:15:32Z</time></trkpt><trkpt lat="60.2559169661" lon="30.4737714585"><ele>79.93</ele><time>2026-08-29T08:15:34Z</time></trkpt><trkpt lat="60.2559044771" lon="30.4737919103"><ele>79.93</ele><time>2026-08-29T08:15:37Z</time></trkpt><trkpt lat="60.2557944227" lon="30.4739120230"><ele>79.93</ele><time>2026-08-29T08:15:50Z</time></trkpt><trkpt lat="60.2557447180" lon="30.4739735462"><ele>79.93</ele><time>2026-08-29T08:15:56Z</time></trkpt><trkpt lat="60.2556901518" lon="30.4740055650"><ele>79.93</ele><time>2026-08-29T08:16:02Z</time></trkpt><trkpt lat="60.2556546964" lon="30.4740004521"><ele>79.93</ele><time>2026-08-29T08:16:06Z</time></trkpt><trkpt lat="60.2556281257" lon="30.4740566108"><ele>79.93</ele><time>2026-08-29T08:16:10Z</time></trkpt><trkpt lat="60.2555987891" lon="30.4741052259"><ele>79.93</ele><time>2026-08-29T08:16:14Z</time></trkpt><trkpt lat="60.2555070072" lon="30.4741234984"><ele>79.93</ele><time>2026-08-29T08:16:26Z</time></trkpt><trkpt lat="60.2554694563" lon="30.4741665814"><ele>79.93</ele><time>2026-08-29T08:16:35Z</time></trkpt><trkpt lat="60.2554186620" lon="30.4742653202"><ele>79.93</ele><time>2026-08-29T08:16:42Z</time></trkpt><trkpt lat="60.2553521097" lon="30.4743187129"><ele>79.93</ele><time>2026-08-29T08:16:51Z</time></trkpt><trkpt lat="60.2553298138" lon="30.4743361473"><ele>79.93</ele><time>2026-08-29T08:16:54Z</time></trkpt><trkpt lat="60.2552854735" lon="30.4743781406"><ele>79.93</ele><time>2026-08-29T08:16:59Z</time></trkpt><trkpt lat="60.2552604955" lon="30.4743757099"><ele>79.93</ele><time>2026-08-29T08:17:03Z</time></trkpt><trkpt lat="60.2552295662" lon="30.4744212236"><ele>79.93</ele><time>2026-08-29T08:17:12Z</time></trkpt><trkpt lat="60.2551858127" lon="30.4743692558"><ele>79.93</ele><time>2026-08-29T08:17:25Z</time></trkpt><trkpt lat="60.2551219426" lon="30.4743383266"><ele>79.93</ele><time>2026-08-29T08:17:36Z</time></trkpt><trkpt lat="60.2550676279" lon="30.4743340518"><ele>79.93</ele><time>2026-08-29T08:17:46Z</time></trkpt><trkpt lat="60.2549922746" lon="30.4743331298"><ele>79.93</ele><time>2026-08-29T08:18:00Z</time></trkpt><trkpt lat="60.2549670450" lon="30.4742706846"><ele>79.93</ele><time>2026-08-29T08:18:15Z</time></trkpt><trkpt lat="60.2549617644" lon="30.4742618836"><ele>79.93</ele><time>2026-08-29T08:18:43Z</time></trkpt><trkpt lat="60.2549280692" lon="30.4743017815"><ele>79.93</ele><time>2026-08-29T08:18:56Z</time></trkpt><trkpt lat="60.2548967209" lon="30.4743280169"><ele>79.93</ele><time>2026-08-29T08:19:09Z</time></trkpt><trkpt lat="60.2548812144" lon="30.4743377399"><ele>79.93</ele><time>2026-08-29T08:19:25Z</time></trkpt><trkpt lat="60.2548782807" lon="30.4743358959"><ele>79.93</ele><time>2026-08-29T08:19:28Z</time></trkpt><trkpt lat="60.2548129018" lon="30.4743327107"><ele>79.93</ele><time>2026-08-29T08:19:42Z</time></trkpt><trkpt lat="60.2547621075" lon="30.4743254185"><ele>79.93</ele><time>2026-08-29T08:19:53Z</time></trkpt><trkpt lat="60.2546943817" lon="30.4743218981"><ele>79.93</ele><time>2026-08-29T08:20:07Z</time></trkpt><trkpt lat="60.2546772826" lon="30.4743229039"><ele>79.93</ele><time>2026-08-29T08:20:09Z</time></trkpt><trkpt lat="60.2545804717" lon="30.4743436072"><ele>79.93</ele><time>2026-08-29T08:20:22Z</time></trkpt><trkpt lat="60.2545730956" lon="30.4743455350"><ele>79.93</ele><time>2026-08-29T08:20:23Z</time></trkpt><trkpt lat="60.2544840798" lon="30.4743349738"><ele>79.93</ele><time>2026-08-29T08:20:39Z</time></trkpt><trkpt lat="60.2544430923" lon="30.4743450321"><ele>79.93</ele><time>2026-08-29T08:20:51Z</time></trkpt><trkpt lat="60.2543957345" lon="30.4743005242"><ele>79.93</ele><time>2026-08-29T08:21:05Z</time></trkpt><trkpt lat="60.2543845028" lon="30.4742961656"><ele>79.45</ele><time>2026-08-29T08:21:18Z</time></trkpt><trkpt lat="60.2543690801" lon="30.4743212275"><ele>79.45</ele><time>2026-08-29T08:21:30Z</time></trkpt><trkpt lat="60.2543597762" lon="30.4743255023"><ele>79.45</ele><time>2026-08-29T08:21:45Z</time></trkpt><trkpt lat="60.2543511428" lon="30.4743099120"><ele>79.45</ele><time>2026-08-29T08:21:59Z</time></trkpt><trkpt lat="60.2543166932" lon="30.4743053019"><ele>79.45</ele><time>2026-08-29T08:22:05Z</time></trkpt><trkpt lat="60.2542308625" lon="30.4743249156"><ele>79.45</ele><time>2026-08-29T08:22:17Z</time></trkpt><trkpt lat="60.2541855164" lon="30.4743408412"><ele>79.45</ele><time>2026-08-29T08:22:28Z</time></trkpt><trkpt lat="60.2541563474" lon="30.4743475467"><ele>79.93</ele><time>2026-08-29T08:22:39Z</time></trkpt><trkpt lat="60.2541397512" lon="30.4743605386"><ele>79.45</ele><time>2026-08-29T08:22:53Z</time></trkpt><trkpt lat="60.2541350573" lon="30.4743754584"><ele>79.45</ele><time>2026-08-29T08:23:08Z</time></trkpt><trkpt lat="60.2541314531" lon="30.4743821640"><ele>80.41</ele><time>2026-08-29T08:23:28Z</time></trkpt><trkpt lat="60.2541280165" lon="30.4743898753"><ele>79.93</ele><time>2026-08-29T08:24:04Z</time></trkpt><trkpt lat="60.2541222330" lon="30.4744238220"><ele>79.93</ele><time>2026-08-29T08:24:17Z</time></trkpt><trkpt lat="60.2540742047" lon="30.4744809028"><ele>79.93</ele><time>2026-08-29T08:24:30Z</time></trkpt><trkpt lat="60.2540639788" lon="30.4745084792"><ele>79.93</ele><time>2026-08-29T08:24:55Z</time></trkpt><trkpt lat="60.2540633921" lon="30.4745099042"><ele>79.93</ele><time>2026-08-29T08:25:11Z</time></trkpt><trkpt lat="60.2540563513" lon="30.4745175317"><ele>80.41</ele><time>2026-08-29T08:25:28Z</time></trkpt><trkpt lat="60.2540535852" lon="30.4745163582"><ele>80.41</ele><time>2026-08-29T08:25:51Z</time></trkpt><trkpt lat="60.2540505677" lon="30.4745329544"><ele>80.41</ele><time>2026-08-29T08:26:15Z</time></trkpt><trkpt lat="60.2540391684" lon="30.4745362233"><ele>80.41</ele><time>2026-08-29T08:26:32Z</time></trkpt><trkpt lat="60.2540421020" lon="30.4745383188"><ele>80.41</ele><time>2026-08-29T08:26:54Z</time></trkpt><trkpt lat="60.2540436946" lon="30.4745380674"><ele>80.41</ele><time>2026-08-29T08:27:15Z</time></trkpt><trkpt lat="60.2540409286" lon="30.4745365586"><ele>79.45</ele><time>2026-08-29T08:27:53Z</time></trkpt><trkpt lat="60.2540363185" lon="30.4745327868"><ele>79.45</ele><time>2026-08-29T08:28:26Z</time></trkpt><trkpt lat="60.2540383302" lon="30.4745264165"><ele>79.45</ele><time>2026-08-29T08:28:51Z</time></trkpt><trkpt lat="60.2540366538" lon="30.4745286796"><ele>79.45</ele><time>2026-08-29T08:29:23Z</time></trkpt><trkpt lat="60.2540405933" lon="30.4745260812"><ele>79.45</ele><time>2026-08-29T08:29:55Z</time></trkpt><trkpt lat="60.2540429402" lon="30.4745212197"><ele>79.45</ele><time>2026-08-29T08:30:24Z</time></trkpt><trkpt lat="60.2540478855" lon="30.4745107424"><ele>79.45</ele><time>2026-08-29T08:30:56Z</time></trkpt><trkpt lat="60.2540480532" lon="30.4745214712"><ele>79.45</ele><time>2026-08-29T08:31:28Z</time></trkpt><trkpt lat="60.2540480532" lon="30.4745205492"><ele>79.45</ele><time>2026-08-29T08:31:59Z</time></trkpt><trkpt lat="60.2540546749" lon="30.4745175317"><ele>79.45</ele><time>2026-08-29T08:32:24Z</time></trkpt><trkpt lat="60.2540545072" lon="30.4745179508"><ele>78.97</ele><time>2026-08-29T08:32:45Z</time></trkpt><trkpt lat="60.2540468797" lon="30.4745333735"><ele>78.97</ele><time>2026-08-29T08:33:14Z</time></trkpt><trkpt lat="60.2539771423" lon="30.4745499697"><ele>78.97</ele><time>2026-08-29T08:33:31Z</time></trkpt><trkpt lat="60.2539126854" lon="30.4745710921"><ele>78.97</ele><time>2026-08-29T08:33:43Z</time></trkpt><trkpt lat="60.2539053094" lon="30.4745755345"><ele>78.97</ele><time>2026-08-29T08:34:07Z</time></trkpt><trkpt lat="60.2538662497" lon="30.4746200424"><ele>78.97</ele><time>2026-08-29T08:34:19Z</time></trkpt><trkpt lat="60.2538064029" lon="30.4745808989"><ele>78.97</ele><time>2026-08-29T08:34:32Z</time></trkpt><trkpt lat="60.2537417784" lon="30.4745652247"><ele>78.97</ele><time>2026-08-29T08:34:44Z</time></trkpt><trkpt lat="60.2536452189" lon="30.4746146780"><ele>78.97</ele><time>2026-08-29T08:34:57Z</time></trkpt><trkpt lat="60.2536432073" lon="30.4746227246"><ele>78.97</ele><time>2026-08-29T08:35:01Z</time></trkpt><trkpt lat="60.2536127809" lon="30.4746727645"><ele>78.97</ele><time>2026-08-29T08:35:06Z</time></trkpt><trkpt lat="60.2535363380" lon="30.4746877681"><ele>78.97</ele><time>2026-08-29T08:35:17Z</time></trkpt><trkpt lat="60.2534797601" lon="30.4746843316"><ele>78.97</ele><time>2026-08-29T08:35:27Z</time></trkpt><trkpt lat="60.2534586377" lon="30.4746829066"><ele>78.97</ele><time>2026-08-29T08:35:29Z</time></trkpt><trkpt lat="60.2533435542" lon="30.4747176077"><ele>78.97</ele><time>2026-08-29T08:35:43Z</time></trkpt><trkpt lat="60.2532612439" lon="30.4747527279"><ele>78.97</ele><time>2026-08-29T08:35:55Z</time></trkpt><trkpt lat="60.2531684563" lon="30.4748034384"><ele>78.97</ele><time>2026-08-29T08:36:11Z</time></trkpt><trkpt lat="60.2531124651" lon="30.4748221301"><ele>78.97</ele><time>2026-08-29T08:36:22Z</time></trkpt><trkpt lat="60.2530884929" lon="30.4748248123"><ele>78.97</ele><time>2026-08-29T08:36:32Z</time></trkpt><trkpt lat="60.2530259639" lon="30.4748698231"><ele>78.97</ele><time>2026-08-29T08:36:43Z</time></trkpt><trkpt lat="60.2529355232" lon="30.4749041889"><ele>78.97</ele><time>2026-08-29T08:36:57Z</time></trkpt><trkpt lat="60.2528419811" lon="30.4749211203"><ele>78.97</ele><time>2026-08-29T08:37:09Z</time></trkpt><trkpt lat="60.2527922764" lon="30.4749707412"><ele>78.97</ele><time>2026-08-29T08:37:22Z</time></trkpt><trkpt lat="60.2527856547" lon="30.4749704059"><ele>78.97</ele><time>2026-08-29T08:37:43Z</time></trkpt><trkpt lat="60.2527398057" lon="30.4749804642"><ele>78.97</ele><time>2026-08-29T08:37:56Z</time></trkpt><trkpt lat="60.2527304180" lon="30.4749940429"><ele>78.97</ele><time>2026-08-29T08:38:01Z</time></trkpt><trkpt lat="60.2527126484" lon="30.4749873374"><ele>78.97</ele><time>2026-08-29T08:38:03Z</time></trkpt><trkpt lat="60.2526217885" lon="30.4750443343"><ele>78.97</ele><time>2026-08-29T08:38:16Z</time></trkpt><trkpt lat="60.2525984030" lon="30.4750754312"><ele>78.97</ele><time>2026-08-29T08:38:28Z</time></trkpt><trkpt lat="60.2525198646" lon="30.4750617687"><ele>78.97</ele><time>2026-08-29T08:38:39Z</time></trkpt><trkpt lat="60.2524931263" lon="30.4750715755"><ele>78.97</ele><time>2026-08-29T08:38:43Z</time></trkpt><trkpt lat="60.2524433378" lon="30.4751259740"><ele>78.97</ele><time>2026-08-29T08:39:01Z</time></trkpt><trkpt lat="60.2524354588" lon="30.4751453362"><ele>78.97</ele><time>2026-08-29T08:39:14Z</time></trkpt><trkpt lat="60.2524226345" lon="30.4751105513"><ele>78.97</ele><time>2026-08-29T08:39:26Z</time></trkpt><trkpt lat="60.2524268255" lon="30.4751000740"><ele>78.97</ele><time>2026-08-29T08:39:45Z</time></trkpt><trkpt lat="60.2524229698" lon="30.4750828911"><ele>78.97</ele><time>2026-08-29T08:40:00Z</time></trkpt><trkpt lat="60.2523548249" lon="30.4749700706"><ele>78.97</ele><time>2026-08-29T08:40:12Z</time></trkpt><trkpt lat="60.2523404919" lon="30.4749709927"><ele>78.97</ele><time>2026-08-29T08:40:25Z</time></trkpt><trkpt lat="60.2523316070" lon="30.4749689810"><ele>78.48</ele><time>2026-08-29T08:40:33Z</time></trkpt><trkpt lat="60.2522520628" lon="30.4749139957"><ele>78.48</ele><time>2026-08-29T08:40:45Z</time></trkpt><trkpt lat="60.2522185352" lon="30.4748877604"><ele>78.48</ele><time>2026-08-29T08:40:56Z</time></trkpt><trkpt lat="60.2521919645" lon="30.4748863354"><ele>78.48</ele><time>2026-08-29T08:41:09Z</time></trkpt><trkpt lat="60.2521200478" lon="30.4749073740"><ele>78.48</ele><time>2026-08-29T08:41:20Z</time></trkpt><trkpt lat="60.2520791441" lon="30.4749299213"><ele>78.48</ele><time>2026-08-29T08:41:32Z</time></trkpt><trkpt lat="60.2520597819" lon="30.4748777021"><ele>78.48</ele><time>2026-08-29T08:41:43Z</time></trkpt><trkpt lat="60.2520142682" lon="30.4748851620"><ele>78.48</ele><time>2026-08-29T08:41:58Z</time></trkpt><trkpt lat="60.2519768011" lon="30.4749593418"><ele>78.48</ele><time>2026-08-29T08:42:10Z</time></trkpt><trkpt lat="60.2519439440" lon="30.4749621078"><ele>78.48</ele><time>2026-08-29T08:42:22Z</time></trkpt><trkpt lat="60.2519405074" lon="30.4749849066"><ele>78.48</ele><time>2026-08-29T08:42:45Z</time></trkpt><trkpt lat="60.2519084048" lon="30.4750026762"><ele>78.48</ele><time>2026-08-29T08:43:01Z</time></trkpt><trkpt lat="60.2518667467" lon="30.4750455916"><ele>78.48</ele><time>2026-08-29T08:43:14Z</time></trkpt><trkpt lat="60.2518525813" lon="30.4750514589"><ele>78.48</ele><time>2026-08-29T08:43:29Z</time></trkpt><trkpt lat="60.2518374939" lon="30.4750840645"><ele>78.48</ele><time>2026-08-29T08:43:44Z</time></trkpt><trkpt lat="60.2517985180" lon="30.4751036782"><ele>78.48</ele><time>2026-08-29T08:44:07Z</time></trkpt><trkpt lat="60.2517021261" lon="30.4750931170"><ele>78.48</ele><time>2026-08-29T08:44:19Z</time></trkpt><trkpt lat="60.2516713645" lon="30.4750854056"><ele>78.48</ele><time>2026-08-29T08:44:25Z</time></trkpt><trkpt lat="60.2516139485" lon="30.4751522932"><ele>78.48</ele><time>2026-08-29T08:44:38Z</time></trkpt><trkpt lat="60.2515706141" lon="30.4751387984"><ele>78.48</ele><time>2026-08-29T08:44:49Z</time></trkpt><trkpt lat="60.2515005413" lon="30.4751486052"><ele>78.48</ele><time>2026-08-29T08:45:01Z</time></trkpt><trkpt lat="60.2514141239" lon="30.4751727451"><ele>78.48</ele><time>2026-08-29T08:45:13Z</time></trkpt><trkpt lat="60.2513609827" lon="30.4751973879"><ele>78.48</ele><time>2026-08-29T08:45:20Z</time></trkpt><trkpt lat="60.2512636688" lon="30.4751912691"><ele>78.48</ele><time>2026-08-29T08:45:33Z</time></trkpt><trkpt lat="60.2512036543" lon="30.4752665386"><ele>78.48</ele><time>2026-08-29T08:45:45Z</time></trkpt><trkpt lat="60.2511665225" lon="30.4752594139"><ele>78.48</ele><time>2026-08-29T08:45:58Z</time></trkpt><trkpt lat="60.2510647662" lon="30.4752734117"><ele>78.48</ele><time>2026-08-29T08:46:14Z</time></trkpt><trkpt lat="60.2509868145" lon="30.4753357731"><ele>78.48</ele><time>2026-08-29T08:46:28Z</time></trkpt><trkpt lat="60.2509452403" lon="30.4753449932"><ele>78.48</ele><time>2026-08-29T08:46:40Z</time></trkpt><trkpt lat="60.2508848067" lon="30.4753874056"><ele>78.48</ele><time>2026-08-29T08:46:51Z</time></trkpt><trkpt lat="60.2507911809" lon="30.4754020739"><ele>78.48</ele><time>2026-08-29T08:47:05Z</time></trkpt><trkpt lat="60.2507461701" lon="30.4754161555"><ele>78.00</ele><time>2026-08-29T08:47:11Z</time></trkpt><trkpt lat="60.2506828029" lon="30.4754356015"><ele>78.00</ele><time>2026-08-29T08:47:23Z</time></trkpt><trkpt lat="60.2506386302" lon="30.4754149821"><ele>79.45</ele><time>2026-08-29T08:47:30Z</time></trkpt><trkpt lat="60.2505818848" lon="30.4754755832"><ele>79.45</ele><time>2026-08-29T08:47:43Z</time></trkpt><trkpt lat="60.2505035978" lon="30.4755330831"><ele>79.45</ele><time>2026-08-29T08:47:55Z</time></trkpt><trkpt lat="60.2504765242" lon="30.4755187500"><ele>79.45</ele><time>2026-08-29T08:48:07Z</time></trkpt><trkpt lat="60.2504105587" lon="30.4754712246"><ele>79.45</ele><time>2026-08-29T08:48:19Z</time></trkpt><trkpt lat="60.2503232192" lon="30.4754884914"><ele>79.45</ele><time>2026-08-29T08:48:32Z</time></trkpt><trkpt lat="60.2503220458" lon="30.4754964542"><ele>79.45</ele><time>2026-08-29T08:48:46Z</time></trkpt><trkpt lat="60.2503210399" lon="30.4754882399"><ele>79.93</ele><time>2026-08-29T08:49:08Z</time></trkpt><trkpt lat="60.2503211237" lon="30.4754874017"><ele>79.93</ele><time>2026-08-29T08:49:32Z</time></trkpt><trkpt lat="60.2503114007" lon="30.4754931014"><ele>79.93</ele><time>2026-08-29T08:49:46Z</time></trkpt><trkpt lat="60.2502847463" lon="30.4754890781"><ele>79.93</ele><time>2026-08-29T08:50:07Z</time></trkpt><trkpt lat="60.2502572536" lon="30.4755185824"><ele>79.93</ele><time>2026-08-29T08:50:32Z</time></trkpt><trkpt lat="60.2502008434" lon="30.4755768366"><ele>79.93</ele><time>2026-08-29T08:50:44Z</time></trkpt><trkpt lat="60.2501586825" lon="30.4756203387"><ele>79.93</ele><time>2026-08-29T08:50:51Z</time></trkpt><trkpt lat="60.2501143422" lon="30.4756672774"><ele>79.93</ele><time>2026-08-29T08:51:02Z</time></trkpt><trkpt lat="60.2500984166" lon="30.4756707978"><ele>79.93</ele><time>2026-08-29T08:51:04Z</time></trkpt><trkpt lat="60.2500352170" lon="30.4756855499"><ele>79.93</ele><time>2026-08-29T08:51:16Z</time></trkpt><trkpt lat="60.2499822434" lon="30.4757090192"><ele>79.93</ele><time>2026-08-29T08:51:28Z</time></trkpt><trkpt lat="60.2499238215" lon="30.4757552035"><ele>79.93</ele><time>2026-08-29T08:51:39Z</time></trkpt><trkpt lat="60.2498921379" lon="30.4758106079"><ele>79.93</ele><time>2026-08-29T08:51:49Z</time></trkpt><trkpt lat="60.2498800680" lon="30.4758503381"><ele>79.93</ele><time>2026-08-29T08:51:53Z</time></trkpt><trkpt lat="60.2497538365" lon="30.4759116098"><ele>79.93</ele><time>2026-08-29T08:52:06Z</time></trkpt><trkpt lat="60.2497029584" lon="30.4759241827"><ele>79.93</ele><time>2026-08-29T08:52:11Z</time></trkpt><trkpt lat="60.2496061474" lon="30.4759817664"><ele>79.93</ele><time>2026-08-29T08:52:22Z</time></trkpt><trkpt lat="60.2495877072" lon="30.4759840295"><ele>79.93</ele><time>2026-08-29T08:52:24Z</time></trkpt><trkpt lat="60.2495759726" lon="30.4759950098"><ele>79.93</ele><time>2026-08-29T08:52:42Z</time></trkpt><trkpt lat="60.2495611366" lon="30.4760161322"><ele>79.93</ele><time>2026-08-29T08:53:02Z</time></trkpt><trkpt lat="60.2495502401" lon="30.4760125279"><ele>79.93</ele><time>2026-08-29T08:53:21Z</time></trkpt><trkpt lat="60.2494686842" lon="30.4760457203"><ele>79.93</ele><time>2026-08-29T08:53:31Z</time></trkpt><trkpt lat="60.2494501602" lon="30.4760425352"><ele>79.93</ele><time>2026-08-29T08:53:33Z</time></trkpt><trkpt lat="60.2493971027" lon="30.4760324769"><ele>79.93</ele><time>2026-08-29T08:53:38Z</time></trkpt><trkpt lat="60.2493692748" lon="30.4760424513"><ele>79.93</ele><time>2026-08-29T08:53:41Z</time></trkpt><trkpt lat="60.2493196540" lon="30.4760554433"><ele>79.93</ele><time>2026-08-29T08:53:47Z</time></trkpt><trkpt lat="60.2492168918" lon="30.4761333112"><ele>79.93</ele><time>2026-08-29T08:54:00Z</time></trkpt><trkpt lat="60.2491873875" lon="30.4762095865"><ele>79.93</ele><time>2026-08-29T08:54:12Z</time></trkpt><trkpt lat="60.2491334919" lon="30.4762446228"><ele>79.45</ele><time>2026-08-29T08:54:24Z</time></trkpt><trkpt lat="60.2490651794" lon="30.4762626439"><ele>79.45</ele><time>2026-08-29T08:54:35Z</time></trkpt><trkpt lat="60.2490148041" lon="30.4762490653"><ele>79.45</ele><time>2026-08-29T08:54:52Z</time></trkpt><trkpt lat="60.2489789296" lon="30.4762115143"><ele>79.45</ele><time>2026-08-29T08:55:04Z</time></trkpt><trkpt lat="60.2489545383" lon="30.4761836026"><ele>79.45</ele><time>2026-08-29T08:55:17Z</time></trkpt><trkpt lat="60.2489318233" lon="30.4761890508"><ele>79.45</ele><time>2026-08-29T08:55:25Z</time></trkpt><trkpt lat="60.2489133831" lon="30.4762064852"><ele>79.45</ele><time>2026-08-29T08:55:27Z</time></trkpt><trkpt lat="60.2488066815" lon="30.4762374982"><ele>79.45</ele><time>2026-08-29T08:55:39Z</time></trkpt><trkpt lat="60.2487049252" lon="30.4763057269"><ele>79.45</ele><time>2026-08-29T08:55:51Z</time></trkpt><trkpt lat="60.2486867364" lon="30.4762982670"><ele>79.45</ele><time>2026-08-29T08:55:54Z</time></trkpt><trkpt lat="60.2486206032" lon="30.4762943275"><ele>79.45</ele><time>2026-08-29T08:56:03Z</time></trkpt><trkpt lat="60.2485348564" lon="30.4763326328"><ele>79.45</ele><time>2026-08-29T08:56:14Z</time></trkpt><trkpt lat="60.2484511212" lon="30.4763358179"><ele>79.93</ele><time>2026-08-29T08:56:24Z</time></trkpt><trkpt lat="60.2483696491" lon="30.4763630591"><ele>79.93</ele><time>2026-08-29T08:56:34Z</time></trkpt><trkpt lat="60.2483164240" lon="30.4763845168"><ele>79.93</ele><time>2026-08-29T08:56:41Z</time></trkpt><trkpt lat="60.2482930385" lon="30.4763833433"><ele>79.93</ele><time>2026-08-29T08:56:43Z</time></trkpt><trkpt lat="60.2482394781" lon="30.4763983469"><ele>79.93</ele><time>2026-08-29T08:56:53Z</time></trkpt><trkpt lat="60.2482420765" lon="30.4763985146"><ele>79.93</ele><time>2026-08-29T08:56:54Z</time></trkpt><trkpt lat="60.2482238878" lon="30.4763944075"><ele>80.41</ele><time>2026-08-29T08:56:59Z</time></trkpt><trkpt lat="60.2481559105" lon="30.4764101654"><ele>80.41</ele><time>2026-08-29T08:57:08Z</time></trkpt><trkpt lat="60.2481052838" lon="30.4763925634"><ele>80.41</ele><time>2026-08-29T08:57:17Z</time></trkpt><trkpt lat="60.2480907831" lon="30.4764161166"><ele>80.41</ele><time>2026-08-29T08:57:26Z</time></trkpt><trkpt lat="60.2480677329" lon="30.4764996842"><ele>80.89</ele><time>2026-08-29T08:57:35Z</time></trkpt><trkpt lat="60.2480317745" lon="30.4765096586"><ele>80.89</ele><time>2026-08-29T08:57:40Z</time></trkpt><trkpt lat="60.2480010968" lon="30.4765933938"><ele>80.89</ele><time>2026-08-29T08:57:49Z</time></trkpt><trkpt lat="60.2480016835" lon="30.4766114987"><ele>80.89</ele><time>2026-08-29T08:57:58Z</time></trkpt><trkpt lat="60.2479548287" lon="30.4766320344"><ele>80.89</ele><time>2026-08-29T08:58:04Z</time></trkpt><trkpt lat="60.2479398251" lon="30.4766572639"><ele>80.89</ele><time>2026-08-29T08:58:06Z</time></trkpt><trkpt lat="60.2478824090" lon="30.4766731057"><ele>81.37</ele><time>2026-08-29T08:58:13Z</time></trkpt><trkpt lat="60.2478707582" lon="30.4766504746"><ele>81.37</ele><time>2026-08-29T08:58:18Z</time></trkpt><trkpt lat="60.2478618734" lon="30.4766586050"><ele>81.37</ele><time>2026-08-29T08:58:20Z</time></trkpt><trkpt lat="60.2478387393" lon="30.4766330402"><ele>81.37</ele><time>2026-08-29T08:58:24Z</time></trkpt><trkpt lat="60.2477865200" lon="30.4766336270"><ele>81.37</ele><time>2026-08-29T08:58:34Z</time></trkpt><trkpt lat="60.2477817424" lon="30.4766472057"><ele>81.37</ele><time>2026-08-29T08:58:50Z</time></trkpt><trkpt lat="60.2477599494" lon="30.4766265862"><ele>81.37</ele><time>2026-08-29T08:59:00Z</time></trkpt><trkpt lat="60.2477398328" lon="30.4766109958"><ele>81.37</ele><time>2026-08-29T08:59:02Z</time></trkpt><trkpt lat="60.2477343008" lon="30.4766144324"><ele>81.37</ele><time>2026-08-29T08:59:11Z</time></trkpt><trkpt lat="60.2477260865" lon="30.4765944835"><ele>81.85</ele><time>2026-08-29T08:59:32Z</time></trkpt><trkpt lat="60.2477226499" lon="30.4765953217"><ele>81.85</ele><time>2026-08-29T08:59:52Z</time></trkpt><trkpt lat="60.2477239911" lon="30.4765060544"><ele>81.85</ele><time>2026-08-29T09:00:01Z</time></trkpt><trkpt lat="60.2477364801" lon="30.4764757957"><ele>81.85</ele><time>2026-08-29T09:00:07Z</time></trkpt><trkpt lat="60.2477501426" lon="30.4764379095"><ele>81.85</ele><time>2026-08-29T09:00:12Z</time></trkpt><trkpt lat="60.2477627993" lon="30.4764222354"><ele>81.85</ele><time>2026-08-29T09:00:19Z</time></trkpt><trkpt lat="60.2478221431" lon="30.4763620533"><ele>81.85</ele><time>2026-08-29T09:00:28Z</time></trkpt><trkpt lat="60.2478500549" lon="30.4763416853"><ele>81.85</ele><time>2026-08-29T09:00:34Z</time></trkpt><trkpt lat="60.2478728537" lon="30.4762656614"><ele>81.85</ele><time>2026-08-29T09:00:38Z</time></trkpt><trkpt lat="60.2478984185" lon="30.4762293678"><ele>81.85</ele><time>2026-08-29T09:00:41Z</time></trkpt><trkpt lat="60.2479172777" lon="30.4762017075"><ele>81.85</ele><time>2026-08-29T09:00:55Z</time></trkpt><trkpt lat="60.2479254920" lon="30.4761775676"><ele>80.89</ele><time>2026-08-29T09:01:20Z</time></trkpt><trkpt lat="60.2479286771" lon="30.4761569481"><ele>80.89</ele><time>2026-08-29T09:01:38Z</time></trkpt><trkpt lat="60.2479018550" lon="30.4759560339"><ele>80.89</ele><time>2026-08-29T09:01:50Z</time></trkpt><trkpt lat="60.2478679083" lon="30.4757813551"><ele>80.89</ele><time>2026-08-29T09:02:01Z</time></trkpt><trkpt lat="60.2478632983" lon="30.4757649265"><ele>82.33</ele><time>2026-08-29T09:02:03Z</time></trkpt><trkpt lat="60.2478421759" lon="30.4755808599"><ele>83.29</ele><time>2026-08-29T09:02:16Z</time></trkpt><trkpt lat="60.2478410862" lon="30.4755241144"><ele>83.77</ele><time>2026-08-29T09:02:25Z</time></trkpt><trkpt lat="60.2478501387" lon="30.4753862321"><ele>82.33</ele><time>2026-08-29T09:02:38Z</time></trkpt><trkpt lat="60.2478104085" lon="30.4751904309"><ele>82.33</ele><time>2026-08-29T09:02:49Z</time></trkpt><trkpt lat="60.2478026133" lon="30.4751496110"><ele>82.33</ele><time>2026-08-29T09:02:52Z</time></trkpt><trkpt lat="60.2477336302" lon="30.4750419874"><ele>83.77</ele><time>2026-08-29T09:03:03Z</time></trkpt><trkpt lat="60.2477204707" lon="30.4750232119"><ele>84.73</ele><time>2026-08-29T09:03:14Z</time></trkpt><trkpt lat="60.2477058861" lon="30.4749987368"><ele>84.73</ele><time>2026-08-29T09:03:37Z</time></trkpt><trkpt lat="60.2476993483" lon="30.4749773629"><ele>84.73</ele><time>2026-08-29T09:03:56Z</time></trkpt><trkpt lat="60.2476483025" lon="30.4748652130"><ele>84.73</ele><time>2026-08-29T09:04:10Z</time></trkpt><trkpt lat="60.2476471290" lon="30.4748522211"><ele>84.73</ele><time>2026-08-29T09:04:11Z</time></trkpt><trkpt lat="60.2475966699" lon="30.4746964015"><ele>84.73</ele><time>2026-08-29T09:04:19Z</time></trkpt><trkpt lat="60.2475362364" lon="30.4744956549"><ele>84.73</ele><time>2026-08-29T09:04:34Z</time></trkpt><trkpt lat="60.2475341409" lon="30.4745180346"><ele>84.73</ele><time>2026-08-29T09:04:52Z</time></trkpt><trkpt lat="60.2475297824" lon="30.4745883588"><ele>84.73</ele><time>2026-08-29T09:05:04Z</time></trkpt><trkpt lat="60.2475131024" lon="30.4746194556"><ele>84.73</ele><time>2026-08-29T09:05:18Z</time></trkpt><trkpt lat="60.2475233283" lon="30.4746500496"><ele>84.73</ele><time>2026-08-29T09:05:34Z</time></trkpt><trkpt lat="60.2475545928" lon="30.4746779613"><ele>84.73</ele><time>2026-08-29T09:05:45Z</time></trkpt><trkpt lat="60.2475849353" lon="30.4747451842"><ele>84.73</ele><time>2026-08-29T09:06:05Z</time></trkpt><trkpt lat="60.2475729492" lon="30.4747717548"><ele>84.73</ele><time>2026-08-29T09:06:19Z</time></trkpt><trkpt lat="60.2475620527" lon="30.4748357926"><ele>85.69</ele><time>2026-08-29T09:06:33Z</time></trkpt><trkpt lat="60.2475441154" lon="30.4748864193"><ele>86.66</ele><time>2026-08-29T09:06:50Z</time></trkpt><trkpt lat="60.2475431934" lon="30.4749146663"><ele>86.66</ele><time>2026-08-29T09:07:06Z</time></trkpt><trkpt lat="60.2475800738" lon="30.4750336893"><ele>86.66</ele><time>2026-08-29T09:07:18Z</time></trkpt><trkpt lat="60.2475996036" lon="30.4750952963"><ele>86.66</ele><time>2026-08-29T09:07:29Z</time></trkpt><trkpt lat="60.2475522459" lon="30.4751697276"><ele>87.62</ele><time>2026-08-29T09:07:46Z</time></trkpt><trkpt lat="60.2475391701" lon="30.4752413090"><ele>88.10</ele><time>2026-08-29T09:08:04Z</time></trkpt><trkpt lat="60.2475706022" lon="30.4753529560"><ele>88.10</ele><time>2026-08-29T09:08:16Z</time></trkpt><trkpt lat="60.2476313710" lon="30.4753672052"><ele>88.10</ele><time>2026-08-29T09:08:27Z</time></trkpt><trkpt lat="60.2476364840" lon="30.4753212724"><ele>88.10</ele><time>2026-08-29T09:08:29Z</time></trkpt><trkpt lat="60.2476293594" lon="30.4752277303"><ele>88.58</ele><time>2026-08-29T09:08:40Z</time></trkpt><trkpt lat="60.2476295270" lon="30.4752265569"><ele>87.14</ele><time>2026-08-29T09:08:41Z</time></trkpt><trkpt lat="60.2477160282" lon="30.4751849826"><ele>87.14</ele><time>2026-08-29T09:08:53Z</time></trkpt><trkpt lat="60.2477817424" lon="30.4752087872"><ele>86.18</ele><time>2026-08-29T09:09:02Z</time></trkpt><trkpt lat="60.2478063852" lon="30.4752006568"><ele>84.73</ele><time>2026-08-29T09:09:12Z</time></trkpt><trkpt lat="60.2478415892" lon="30.4752323404"><ele>83.29</ele><time>2026-08-29T09:09:21Z</time></trkpt><trkpt lat="60.2479176968" lon="30.4753122199"><ele>82.33</ele><time>2026-08-29T09:09:31Z</time></trkpt><trkpt lat="60.2479157690" lon="30.4754750803"><ele>81.85</ele><time>2026-08-29T09:09:41Z</time></trkpt><trkpt lat="60.2479199599" lon="30.4754977953"><ele>81.37</ele><time>2026-08-29T09:09:45Z</time></trkpt><trkpt lat="60.2479571756" lon="30.4756117892"><ele>81.37</ele><time>2026-08-29T09:09:57Z</time></trkpt><trkpt lat="60.2480218001" lon="30.4757330753"><ele>80.89</ele><time>2026-08-29T09:10:08Z</time></trkpt><trkpt lat="60.2480381448" lon="30.4759183154"><ele>80.89</ele><time>2026-08-29T09:10:20Z</time></trkpt><trkpt lat="60.2480151784" lon="30.4759534355"><ele>80.89</ele><time>2026-08-29T09:10:24Z</time></trkpt><trkpt lat="60.2480010130" lon="30.4760042299"><ele>80.89</ele><time>2026-08-29T09:10:27Z</time></trkpt><trkpt lat="60.2480010968" lon="30.4761174694"><ele>81.37</ele><time>2026-08-29T09:10:34Z</time></trkpt><trkpt lat="60.2479778789" lon="30.4762880411"><ele>81.37</ele><time>2026-08-29T09:10:45Z</time></trkpt><trkpt lat="60.2479777951" lon="30.4763087444"><ele>81.37</ele><time>2026-08-29T09:10:46Z</time></trkpt><trkpt lat="60.2479733527" lon="30.4763175454"><ele>81.37</ele><time>2026-08-29T09:10:48Z</time></trkpt><trkpt lat="60.2479586005" lon="30.4763757158"><ele>81.37</ele><time>2026-08-29T09:10:51Z</time></trkpt><trkpt lat="60.2479699999" lon="30.4764565174"><ele>82.33</ele><time>2026-08-29T09:10:56Z</time></trkpt><trkpt lat="60.2479545772" lon="30.4764738679"><ele>82.33</ele><time>2026-08-29T09:10:58Z</time></trkpt><trkpt lat="60.2479664795" lon="30.4764864407"><ele>82.33</ele><time>2026-08-29T09:11:08Z</time></trkpt><trkpt lat="60.2479782980" lon="30.4765695892"><ele>82.33</ele><time>2026-08-29T09:11:16Z</time></trkpt><trkpt lat="60.2479794715" lon="30.4765789770"><ele>82.33</ele><time>2026-08-29T09:11:17Z</time></trkpt><trkpt lat="60.2480107360" lon="30.4767042864"><ele>82.33</ele><time>2026-08-29T09:11:25Z</time></trkpt><trkpt lat="60.2480498794" lon="30.4767860100"><ele>82.33</ele><time>2026-08-29T09:11:34Z</time></trkpt><trkpt lat="60.2480536513" lon="30.4768125806"><ele>82.33</ele><time>2026-08-29T09:11:43Z</time></trkpt><trkpt lat="60.2480549086" lon="30.4768527299"><ele>82.33</ele><time>2026-08-29T09:11:57Z</time></trkpt><trkpt lat="60.2480590995" lon="30.4768694937"><ele>82.33</ele><time>2026-08-29T09:12:14Z</time></trkpt><trkpt lat="60.2480611950" lon="30.4768478684"><ele>82.33</ele><time>2026-08-29T09:12:31Z</time></trkpt><trkpt lat="60.2480645478" lon="30.4768456891"><ele>82.33</ele><time>2026-08-29T09:12:58Z</time></trkpt><trkpt lat="60.2480606921" lon="30.4768580105"><ele>82.33</ele><time>2026-08-29T09:13:01Z</time></trkpt><trkpt lat="60.2480259910" lon="30.4767929669"><ele>82.33</ele><time>2026-08-29T09:13:13Z</time></trkpt><trkpt lat="60.2480171062" lon="30.4767871834"><ele>82.33</ele><time>2026-08-29T09:13:27Z</time></trkpt><trkpt lat="60.2479826566" lon="30.4766658135"><ele>82.33</ele><time>2026-08-29T09:13:47Z</time></trkpt><trkpt lat="60.2479777113" lon="30.4766949825"><ele>82.33</ele><time>2026-08-29T09:13:54Z</time></trkpt><trkpt lat="60.2479204629" lon="30.4767216370"><ele>82.33</ele><time>2026-08-29T09:14:06Z</time></trkpt><trkpt lat="60.2478902880" lon="30.4766985029"><ele>82.33</ele><time>2026-08-29T09:14:11Z</time></trkpt><trkpt lat="60.2478736918" lon="30.4766653944"><ele>82.81</ele><time>2026-08-29T09:14:13Z</time></trkpt><trkpt lat="60.2478179522" lon="30.4766427632"><ele>82.81</ele><time>2026-08-29T09:14:22Z</time></trkpt><trkpt lat="60.2477806527" lon="30.4766403325"><ele>82.81</ele><time>2026-08-29T09:14:32Z</time></trkpt><trkpt lat="60.2477115020" lon="30.4765538312"><ele>82.81</ele><time>2026-08-29T09:14:43Z</time></trkpt><trkpt lat="60.2476755437" lon="30.4765091557"><ele>82.81</ele><time>2026-08-29T09:14:52Z</time></trkpt><trkpt lat="60.2476483863" lon="30.4765155260"><ele>82.81</ele><time>2026-08-29T09:14:58Z</time></trkpt><trkpt lat="60.2476341370" lon="30.4765025340"><ele>83.29</ele><time>2026-08-29T09:15:04Z</time></trkpt><trkpt lat="60.2476030402" lon="30.4765792284"><ele>83.77</ele><time>2026-08-29T09:15:13Z</time></trkpt><trkpt lat="60.2475954965" lon="30.4766150191"><ele>84.25</ele><time>2026-08-29T09:15:23Z</time></trkpt><trkpt lat="60.2475809958" lon="30.4766840860"><ele>84.73</ele><time>2026-08-29T09:15:33Z</time></trkpt><trkpt lat="60.2475376613" lon="30.4767378978"><ele>85.69</ele><time>2026-08-29T09:15:44Z</time></trkpt><trkpt lat="60.2475284413" lon="30.4767277557"><ele>86.18</ele><time>2026-08-29T09:15:55Z</time></trkpt><trkpt lat="60.2475079056" lon="30.4767517280"><ele>87.14</ele><time>2026-08-29T09:16:05Z</time></trkpt><trkpt lat="60.2474833466" lon="30.4767666478"><ele>88.10</ele><time>2026-08-29T09:16:14Z</time></trkpt><trkpt lat="60.2474825084" lon="30.4767443519"><ele>88.10</ele><time>2026-08-29T09:16:22Z</time></trkpt><trkpt lat="60.2474587038" lon="30.4767109081"><ele>88.10</ele><time>2026-08-29T09:16:31Z</time></trkpt><trkpt lat="60.2474339772" lon="30.4767147638"><ele>89.06</ele><time>2026-08-29T09:16:46Z</time></trkpt><trkpt lat="60.2473818418" lon="30.4767330363"><ele>90.02</ele><time>2026-08-29T09:16:59Z</time></trkpt><trkpt lat="60.2473509964" lon="30.4766943958"><ele>90.50</ele><time>2026-08-29T09:17:12Z</time></trkpt><trkpt lat="60.2473222464" lon="30.4767183680"><ele>91.94</ele><time>2026-08-29T09:17:26Z</time></trkpt><trkpt lat="60.2472853661" lon="30.4767520633"><ele>91.46</ele><time>2026-08-29T09:17:42Z</time></trkpt><trkpt lat="60.2472402714" lon="30.4767701682"><ele>91.94</ele><time>2026-08-29T09:17:52Z</time></trkpt><trkpt lat="60.2472247649" lon="30.4767366406"><ele>92.90</ele><time>2026-08-29T09:18:07Z</time></trkpt><trkpt lat="60.2472243458" lon="30.4767433461"><ele>92.90</ele><time>2026-08-29T09:18:20Z</time></trkpt><trkpt lat="60.2472292073" lon="30.4766414221"><ele>92.90</ele><time>2026-08-29T09:18:27Z</time></trkpt><trkpt lat="60.2471790835" lon="30.4765096586"><ele>94.35</ele><time>2026-08-29T09:18:40Z</time></trkpt><trkpt lat="60.2471101005" lon="30.4762655776"><ele>94.35</ele><time>2026-08-29T09:18:54Z</time></trkpt><trkpt lat="60.2471264452" lon="30.4760829359"><ele>94.35</ele><time>2026-08-29T09:19:07Z</time></trkpt><trkpt lat="60.2471515071" lon="30.4760358296"><ele>94.35</ele><time>2026-08-29T09:19:13Z</time></trkpt><trkpt lat="60.2472188137" lon="30.4759219196"><ele>94.83</ele><time>2026-08-29T09:19:24Z</time></trkpt><trkpt lat="60.2472701110" lon="30.4758714605"><ele>94.83</ele><time>2026-08-29T09:19:36Z</time></trkpt><trkpt lat="60.2472836059" lon="30.4758700356"><ele>94.83</ele><time>2026-08-29T09:19:47Z</time></trkpt><trkpt lat="60.2473392617" lon="30.4757751524"><ele>94.83</ele><time>2026-08-29T09:20:07Z</time></trkpt><trkpt lat="60.2473183908" lon="30.4758025613"><ele>94.83</ele><time>2026-08-29T09:20:11Z</time></trkpt><trkpt lat="60.2472200710" lon="30.4758623242"><ele>94.83</ele><time>2026-08-29T09:20:24Z</time></trkpt><trkpt lat="60.2471209131" lon="30.4759379290"><ele>94.83</ele><time>2026-08-29T09:20:35Z</time></trkpt><trkpt lat="60.2470681071" lon="30.4759448022"><ele>94.83</ele><time>2026-08-29T09:20:47Z</time></trkpt><trkpt lat="60.2470512595" lon="30.4760267772"><ele>94.83</ele><time>2026-08-29T09:20:54Z</time></trkpt><trkpt lat="60.2470261138" lon="30.4762571957"><ele>94.83</ele><time>2026-08-29T09:21:06Z</time></trkpt><trkpt lat="60.2470230963" lon="30.4765394144"><ele>94.83</ele><time>2026-08-29T09:21:20Z</time></trkpt><trkpt lat="60.2470251080" lon="30.4766757041"><ele>94.83</ele><time>2026-08-29T09:21:31Z</time></trkpt><trkpt lat="60.2469909098" lon="30.4766696692"><ele>95.31</ele><time>2026-08-29T09:21:49Z</time></trkpt><trkpt lat="60.2469389420" lon="30.4767426755"><ele>95.79</ele><time>2026-08-29T09:22:02Z</time></trkpt><trkpt lat="60.2468938474" lon="30.4768621176"><ele>96.75</ele><time>2026-08-29T09:22:13Z</time></trkpt><trkpt lat="60.2468645107" lon="30.4768902808"><ele>98.19</ele><time>2026-08-29T09:22:24Z</time></trkpt><trkpt lat="60.2467859723" lon="30.4768886045"><ele>98.19</ele><time>2026-08-29T09:22:35Z</time></trkpt><trkpt lat="60.2467713039" lon="30.4768749420"><ele>98.19</ele><time>2026-08-29T09:22:38Z</time></trkpt><trkpt lat="60.2467119601" lon="30.4769554082"><ele>98.19</ele><time>2026-08-29T09:22:50Z</time></trkpt><trkpt lat="60.2466819528" lon="30.4770159256"><ele>98.19</ele><time>2026-08-29T09:23:04Z</time></trkpt><trkpt lat="60.2466594893" lon="30.4770748504"><ele>98.19</ele><time>2026-08-29T09:23:17Z</time></trkpt><trkpt lat="60.2466539573" lon="30.4770867527"><ele>98.19</ele><time>2026-08-29T09:23:43Z</time></trkpt><trkpt lat="60.2466454916" lon="30.4770818911"><ele>98.19</ele><time>2026-08-29T09:24:11Z</time></trkpt><trkpt lat="60.2466408815" lon="30.4770825617"><ele>98.19</ele><time>2026-08-29T09:24:28Z</time></trkpt><trkpt lat="60.2466390375" lon="30.4770947155"><ele>98.19</ele><time>2026-08-29T09:24:55Z</time></trkpt><trkpt lat="60.2466442343" lon="30.4770886805"><ele>98.19</ele><time>2026-08-29T09:25:25Z</time></trkpt><trkpt lat="60.2466444019" lon="30.4770880099"><ele>98.19</ele><time>2026-08-29T09:25:45Z</time></trkpt><trkpt lat="60.2466397081" lon="30.4771184362"><ele>98.19</ele><time>2026-08-29T09:26:13Z</time></trkpt><trkpt lat="60.2465748321" lon="30.4771832284"><ele>98.19</ele><time>2026-08-29T09:26:27Z</time></trkpt><trkpt lat="60.2465501055" lon="30.4772419017"><ele>98.19</ele><time>2026-08-29T09:26:34Z</time></trkpt><trkpt lat="60.2464681305" lon="30.4773953743"><ele>98.19</ele><time>2026-08-29T09:26:46Z</time></trkpt><trkpt lat="60.2464063559" lon="30.4773095436"><ele>98.67</ele><time>2026-08-29T09:26:58Z</time></trkpt><trkpt lat="60.2463484369" lon="30.4773641936"><ele>99.15</ele><time>2026-08-29T09:27:06Z</time></trkpt><trkpt lat="60.2462461777" lon="30.4773870762"><ele>99.15</ele><time>2026-08-29T09:27:19Z</time></trkpt><trkpt lat="60.2461770270" lon="30.4773023352"><ele>99.63</ele><time>2026-08-29T09:27:30Z</time></trkpt><trkpt lat="60.2460901067" lon="30.4772748426"><ele>99.63</ele><time>2026-08-29T09:27:40Z</time></trkpt><trkpt lat="60.2460410725" lon="30.4773351923"><ele>99.63</ele><time>2026-08-29T09:27:47Z</time></trkpt><trkpt lat="60.2460148372" lon="30.4773123097"><ele>98.19</ele><time>2026-08-29T09:27:51Z</time></trkpt><trkpt lat="60.2459259890" lon="30.4773614276"><ele>98.19</ele><time>2026-08-29T09:28:04Z</time></trkpt><trkpt lat="60.2459000889" lon="30.4773933627"><ele>98.19</ele><time>2026-08-29T09:28:07Z</time></trkpt><trkpt lat="60.2458414156" lon="30.4774936941"><ele>98.19</ele><time>2026-08-29T09:28:15Z</time></trkpt><trkpt lat="60.2457608655" lon="30.4776427243"><ele>98.19</ele><time>2026-08-29T09:28:25Z</time></trkpt><trkpt lat="60.2457311936" lon="30.4776749946"><ele>99.15</ele><time>2026-08-29T09:28:29Z</time></trkpt><trkpt lat="60.2456651442" lon="30.4779155552"><ele>99.63</ele><time>2026-08-29T09:28:41Z</time></trkpt><trkpt lat="60.2456533257" lon="30.4781161342"><ele>99.63</ele><time>2026-08-29T09:28:54Z</time></trkpt><trkpt lat="60.2456485480" lon="30.4781331494"><ele>99.15</ele><time>2026-08-29T09:29:09Z</time></trkpt><trkpt lat="60.2456498891" lon="30.4781386815"><ele>99.15</ele><time>2026-08-29T09:29:24Z</time></trkpt><trkpt lat="60.2456492186" lon="30.4781361669"><ele>100.11</ele><time>2026-08-29T09:29:44Z</time></trkpt><trkpt lat="60.2456489671" lon="30.4781322274"><ele>100.11</ele><time>2026-08-29T09:30:11Z</time></trkpt><trkpt lat="60.2456504758" lon="30.4781368375"><ele>100.11</ele><time>2026-08-29T09:30:39Z</time></trkpt><trkpt lat="60.2456502244" lon="30.4781374242"><ele>100.11</ele><time>2026-08-29T09:31:08Z</time></trkpt><trkpt lat="60.2456523199" lon="30.4781380948"><ele>100.11</ele><time>2026-08-29T09:31:32Z</time></trkpt><trkpt lat="60.2456454467" lon="30.4780717939"><ele>100.11</ele><time>2026-08-29T09:31:44Z</time></trkpt><trkpt lat="60.2456312813" lon="30.4779707920"><ele>100.11</ele><time>2026-08-29T09:31:51Z</time></trkpt><trkpt lat="60.2456033695" lon="30.4779569618"><ele>100.11</ele><time>2026-08-29T09:31:54Z</time></trkpt><trkpt lat="60.2455316205" lon="30.4778163973"><ele>100.11</ele><time>2026-08-29T09:32:07Z</time></trkpt><trkpt lat="60.2455055527" lon="30.4777200893"><ele>100.11</ele><time>2026-08-29T09:32:13Z</time></trkpt><trkpt lat="60.2454876993" lon="30.4777112044"><ele>99.15</ele><time>2026-08-29T09:32:16Z</time></trkpt><trkpt lat="60.2454383299" lon="30.4776678700"><ele>99.15</ele><time>2026-08-29T09:32:25Z</time></trkpt><trkpt lat="60.2454125974" lon="30.4776487593"><ele>99.15</ele><time>2026-08-29T09:32:35Z</time></trkpt><trkpt lat="60.2453909721" lon="30.4776459094"><ele>98.67</ele><time>2026-08-29T09:32:40Z</time></trkpt><trkpt lat="60.2453314606" lon="30.4775955342"><ele>98.67</ele><time>2026-08-29T09:32:46Z</time></trkpt><trkpt lat="60.2452580351" lon="30.4775736574"><ele>98.67</ele><time>2026-08-29T09:32:58Z</time></trkpt><trkpt lat="60.2452518325" lon="30.4775688797"><ele>98.67</ele><time>2026-08-29T09:33:13Z</time></trkpt><trkpt lat="60.2452247590" lon="30.4775667004"><ele>98.67</ele><time>2026-08-29T09:33:25Z</time></trkpt><trkpt lat="60.2452300396" lon="30.4775518645"><ele>98.19</ele><time>2026-08-29T09:33:45Z</time></trkpt><trkpt lat="60.2452377509" lon="30.4775470030"><ele>98.19</ele><time>2026-08-29T09:34:22Z</time></trkpt><trkpt lat="60.2452226635" lon="30.4775559716"><ele>97.71</ele><time>2026-08-29T09:34:29Z</time></trkpt><trkpt lat="60.2451856155" lon="30.4775583185"><ele>97.71</ele><time>2026-08-29T09:34:39Z</time></trkpt><trkpt lat="60.2451902255" lon="30.4775687959"><ele>97.71</ele><time>2026-08-29T09:34:43Z</time></trkpt><trkpt lat="60.2452282794" lon="30.4775665328"><ele>97.71</ele><time>2026-08-29T09:34:53Z</time></trkpt><trkpt lat="60.2452329732" lon="30.4775635991"><ele>97.71</ele><time>2026-08-29T09:35:03Z</time></trkpt><trkpt lat="60.2452360746" lon="30.4775600787"><ele>97.71</ele><time>2026-08-29T09:35:11Z</time></trkpt><trkpt lat="60.2452312969" lon="30.4775408003"><ele>97.71</ele><time>2026-08-29T09:35:19Z</time></trkpt><trkpt lat="60.2452273574" lon="30.4775432311"><ele>97.71</ele><time>2026-08-29T09:35:23Z</time></trkpt><trkpt lat="60.2452224120" lon="30.4775636829"><ele>97.71</ele><time>2026-08-29T09:35:32Z</time></trkpt><trkpt lat="60.2452137787" lon="30.4775625933"><ele>98.19</ele><time>2026-08-29T09:35:47Z</time></trkpt><trkpt lat="60.2452197298" lon="30.4775582347"><ele>98.19</ele><time>2026-08-29T09:36:00Z</time></trkpt><trkpt lat="60.2452282794" lon="30.4775548819"><ele>98.19</ele><time>2026-08-29T09:36:20Z</time></trkpt><trkpt lat="60.2451126091" lon="30.4775943607"><ele>98.19</ele><time>2026-08-29T09:36:32Z</time></trkpt><trkpt lat="60.2450889722" lon="30.4776264634"><ele>98.19</ele><time>2026-08-29T09:36:43Z</time></trkpt><trkpt lat="60.2450792491" lon="30.4776286427"><ele>98.19</ele><time>2026-08-29T09:37:02Z</time></trkpt><trkpt lat="60.2450681850" lon="30.4776208475"><ele>97.71</ele><time>2026-08-29T09:37:33Z</time></trkpt><trkpt lat="60.2450101823" lon="30.4776614998"><ele>97.71</ele><time>2026-08-29T09:37:45Z</time></trkpt><trkpt lat="60.2450045664" lon="30.4776615836"><ele>97.71</ele><time>2026-08-29T09:37:46Z</time></trkpt><trkpt lat="60.2449638303" lon="30.4776846338"><ele>96.75</ele><time>2026-08-29T09:37:51Z</time></trkpt><trkpt lat="60.2448600624" lon="30.4777077679"><ele>96.27</ele><time>2026-08-29T09:38:03Z</time></trkpt><trkpt lat="60.2448436338" lon="30.4777064268"><ele>95.79</ele><time>2026-08-29T09:38:05Z</time></trkpt><trkpt lat="60.2448220085" lon="30.4777014814"><ele>95.79</ele><time>2026-08-29T09:38:07Z</time></trkpt><trkpt lat="60.2447672747" lon="30.4777118750"><ele>95.31</ele><time>2026-08-29T09:38:13Z</time></trkpt><trkpt lat="60.2446585614" lon="30.4777323268"><ele>94.83</ele><time>2026-08-29T09:38:23Z</time></trkpt><trkpt lat="60.2446322422" lon="30.4777428042"><ele>94.35</ele><time>2026-08-29T09:38:26Z</time></trkpt><trkpt lat="60.2446076833" lon="30.4777362663"><ele>94.35</ele><time>2026-08-29T09:38:29Z</time></trkpt><trkpt lat="60.2445097826" lon="30.4777495936"><ele>93.39</ele><time>2026-08-29T09:38:39Z</time></trkpt><trkpt lat="60.2444259636" lon="30.4777443968"><ele>92.90</ele><time>2026-08-29T09:38:46Z</time></trkpt><trkpt lat="60.2442992292" lon="30.4777583107"><ele>91.46</ele><time>2026-08-29T09:38:59Z</time></trkpt><trkpt lat="60.2442593314" lon="30.4777545389"><ele>90.98</ele><time>2026-08-29T09:39:03Z</time></trkpt><trkpt lat="60.2441811282" lon="30.4777478334"><ele>90.50</ele><time>2026-08-29T09:39:11Z</time></trkpt><trkpt lat="60.2440842334" lon="30.4778465722"><ele>89.54</ele><time>2026-08-29T09:39:23Z</time></trkpt><trkpt lat="60.2439978998" lon="30.4779414553"><ele>88.10</ele><time>2026-08-29T09:39:36Z</time></trkpt><trkpt lat="60.2439925354" lon="30.4779453110"><ele>87.14</ele><time>2026-08-29T09:39:40Z</time></trkpt><trkpt lat="60.2438404877" lon="30.4778594803"><ele>86.18</ele><time>2026-08-29T09:39:54Z</time></trkpt><trkpt lat="60.2437203750" lon="30.4778345861"><ele>85.69</ele><time>2026-08-29T09:40:05Z</time></trkpt><trkpt lat="60.2436283417" lon="30.4778446443"><ele>84.73</ele><time>2026-08-29T09:40:17Z</time></trkpt><trkpt lat="60.2436223906" lon="30.4779246077"><ele>84.25</ele><time>2026-08-29T09:40:28Z</time></trkpt><trkpt lat="60.2435606159" lon="30.4779570457"><ele>83.77</ele><time>2026-08-29T09:40:38Z</time></trkpt><trkpt lat="60.2435376495" lon="30.4779585544"><ele>83.77</ele><time>2026-08-29T09:40:40Z</time></trkpt><trkpt lat="60.2434720192" lon="30.4780244362"><ele>83.77</ele><time>2026-08-29T09:40:47Z</time></trkpt><trkpt lat="60.2434371505" lon="30.4780890606"><ele>83.77</ele><time>2026-08-29T09:40:52Z</time></trkpt><trkpt lat="60.2434223145" lon="30.4781536013"><ele>83.77</ele><time>2026-08-29T09:40:56Z</time></trkpt><trkpt lat="60.2433606237" lon="30.4781845305"><ele>83.77</ele><time>2026-08-29T09:41:08Z</time></trkpt><trkpt lat="60.2433531638" lon="30.4782090895"><ele>83.77</ele><time>2026-08-29T09:41:10Z</time></trkpt><trkpt lat="60.2433317900" lon="30.4782432877"><ele>83.77</ele><time>2026-08-29T09:41:14Z</time></trkpt><trkpt lat="60.2433512360" lon="30.4783451278"><ele>83.29</ele><time>2026-08-29T09:41:25Z</time></trkpt><trkpt lat="60.2433508169" lon="30.4783562757"><ele>83.29</ele><time>2026-08-29T09:41:26Z</time></trkpt><trkpt lat="60.2433079854" lon="30.4784407653"><ele>83.29</ele><time>2026-08-29T09:41:34Z</time></trkpt><trkpt lat="60.2432449535" lon="30.4784234148"><ele>83.29</ele><time>2026-08-29T09:41:49Z</time></trkpt><trkpt lat="60.2432063967" lon="30.4784301203"><ele>83.29</ele><time>2026-08-29T09:42:00Z</time></trkpt><trkpt lat="60.2431386709" lon="30.4784633126"><ele>82.33</ele><time>2026-08-29T09:42:10Z</time></trkpt><trkpt lat="60.2430872060" lon="30.4785222374"><ele>81.85</ele><time>2026-08-29T09:42:27Z</time></trkpt><trkpt lat="60.2430090867" lon="30.4785389174"><ele>81.85</ele><time>2026-08-29T09:42:37Z</time></trkpt><trkpt lat="60.2429689374" lon="30.4785574414"><ele>81.37</ele><time>2026-08-29T09:42:42Z</time></trkpt><trkpt lat="60.2429414447" lon="30.4785559326"><ele>81.37</ele><time>2026-08-29T09:42:46Z</time></trkpt><trkpt lat="60.2428427059" lon="30.4785840958"><ele>81.37</ele><time>2026-08-29T09:42:58Z</time></trkpt><trkpt lat="60.2428302169" lon="30.4785788152"><ele>81.37</ele><time>2026-08-29T09:43:01Z</time></trkpt><trkpt lat="60.2427831106" lon="30.4785652366"><ele>81.37</ele><time>2026-08-29T09:43:06Z</time></trkpt><trkpt lat="60.2427624911" lon="30.4785884544"><ele>81.37</ele><time>2026-08-29T09:43:08Z</time></trkpt><trkpt lat="60.2427030634" lon="30.4786041286"><ele>81.37</ele><time>2026-08-29T09:43:16Z</time></trkpt><trkpt lat="60.2426332422" lon="30.4785863589"><ele>81.37</ele><time>2026-08-29T09:43:25Z</time></trkpt><trkpt lat="60.2426148020" lon="30.4785721935"><ele>81.37</ele><time>2026-08-29T09:43:27Z</time></trkpt><trkpt lat="60.2425391134" lon="30.4786705133"><ele>81.37</ele><time>2026-08-29T09:43:39Z</time></trkpt><trkpt lat="60.2424293105" lon="30.4787363112"><ele>81.37</ele><time>2026-08-29T09:43:50Z</time></trkpt><trkpt lat="60.2424012311" lon="30.4787429329"><ele>81.37</ele><time>2026-08-29T09:43:53Z</time></trkpt><trkpt lat="60.2423261292" lon="30.4787958227"><ele>81.37</ele><time>2026-08-29T09:44:01Z</time></trkpt><trkpt lat="60.2422251273" lon="30.4788249079"><ele>81.37</ele><time>2026-08-29T09:44:14Z</time></trkpt><trkpt lat="60.2421694715" lon="30.4788541608"><ele>81.37</ele><time>2026-08-29T09:44:19Z</time></trkpt><trkpt lat="60.2421079483" lon="30.4788480420"><ele>81.37</ele><time>2026-08-29T09:44:25Z</time></trkpt><trkpt lat="60.2420888375" lon="30.4788308591"><ele>81.37</ele><time>2026-08-29T09:44:27Z</time></trkpt><trkpt lat="60.2420499455" lon="30.4788586032"><ele>81.37</ele><time>2026-08-29T09:44:32Z</time></trkpt><trkpt lat="60.2419745922" lon="30.4789481219"><ele>81.37</ele><time>2026-08-29T09:44:42Z</time></trkpt><trkpt lat="60.2419045195" lon="30.4789585993"><ele>81.37</ele><time>2026-08-29T09:44:51Z</time></trkpt><trkpt lat="60.2417721692" lon="30.4789740220"><ele>80.89</ele><time>2026-08-29T09:45:03Z</time></trkpt><trkpt lat="60.2417811379" lon="30.4789564200"><ele>80.89</ele><time>2026-08-29T09:45:16Z</time></trkpt><trkpt lat="60.2417834010" lon="30.4789518937"><ele>80.89</ele><time>2026-08-29T09:45:32Z</time></trkpt><trkpt lat="60.2416245639" lon="30.4790194519"><ele>80.89</ele><time>2026-08-29T09:45:46Z</time></trkpt><trkpt lat="60.2415532339" lon="30.4790388979"><ele>80.89</ele><time>2026-08-29T09:45:52Z</time></trkpt><trkpt lat="60.2415315248" lon="30.4790419154"><ele>80.89</ele><time>2026-08-29T09:45:54Z</time></trkpt><trkpt lat="60.2414568420" lon="30.4790275823"><ele>80.89</ele><time>2026-08-29T09:46:04Z</time></trkpt><trkpt lat="60.2413824107" lon="30.4790745210"><ele>80.89</ele><time>2026-08-29T09:46:14Z</time></trkpt><trkpt lat="60.2413090691" lon="30.4790886026"><ele>80.89</ele><time>2026-08-29T09:46:25Z</time></trkpt><trkpt lat="60.2413049620" lon="30.4790876806"><ele>80.89</ele><time>2026-08-29T09:46:39Z</time></trkpt><trkpt lat="60.2413075604" lon="30.4790880159"><ele>80.89</ele><time>2026-08-29T09:46:52Z</time></trkpt><trkpt lat="60.2412823308" lon="30.4790978227"><ele>80.89</ele><time>2026-08-29T09:47:09Z</time></trkpt><trkpt lat="60.2412605379" lon="30.4791121557"><ele>80.89</ele><time>2026-08-29T09:47:11Z</time></trkpt><trkpt lat="60.2412275970" lon="30.4791250639"><ele>80.89</ele><time>2026-08-29T09:47:14Z</time></trkpt><trkpt lat="60.2410853561" lon="30.4791611061"><ele>80.41</ele><time>2026-08-29T09:47:27Z</time></trkpt><trkpt lat="60.2410381660" lon="30.4791971482"><ele>80.41</ele><time>2026-08-29T09:47:33Z</time></trkpt><trkpt lat="60.2408825140" lon="30.4792797100"><ele>80.41</ele><time>2026-08-29T09:47:47Z</time></trkpt><trkpt lat="60.2408138663" lon="30.4792983178"><ele>80.41</ele><time>2026-08-29T09:47:53Z</time></trkpt><trkpt lat="60.2407654189" lon="30.4793047719"><ele>80.41</ele><time>2026-08-29T09:47:57Z</time></trkpt><trkpt lat="60.2406923287" lon="30.4793379642"><ele>80.41</ele><time>2026-08-29T09:48:09Z</time></trkpt><trkpt lat="60.2406831086" lon="30.4793313425"><ele>80.41</ele><time>2026-08-29T09:48:11Z</time></trkpt><trkpt lat="60.2406712063" lon="30.4792727530"><ele>80.41</ele><time>2026-08-29T09:48:24Z</time></trkpt><trkpt lat="60.2406700328" lon="30.4792681430"><ele>80.41</ele><time>2026-08-29T09:48:45Z</time></trkpt><trkpt lat="60.2406687755" lon="30.4792651255"><ele>80.41</ele><time>2026-08-29T09:48:59Z</time></trkpt><trkpt lat="60.2406735532" lon="30.4792554863"><ele>80.41</ele><time>2026-08-29T09:49:11Z</time></trkpt><trkpt lat="60.2406757325" lon="30.4792149179"><ele>80.41</ele><time>2026-08-29T09:49:25Z</time></trkpt><trkpt lat="60.2406748943" lon="30.4792312626"><ele>80.41</ele><time>2026-08-29T09:49:42Z</time></trkpt><trkpt lat="60.2406857070" lon="30.4792892653"><ele>80.41</ele><time>2026-08-29T09:49:55Z</time></trkpt><trkpt lat="60.2406848688" lon="30.4793141596"><ele>80.41</ele><time>2026-08-29T09:49:57Z</time></trkpt><trkpt lat="60.2406579629" lon="30.4793263972"><ele>80.41</ele><time>2026-08-29T09:50:00Z</time></trkpt><trkpt lat="60.2405808493" lon="30.4793953802"><ele>80.41</ele><time>2026-08-29T09:50:11Z</time></trkpt><trkpt lat="60.2405155543" lon="30.4793987330"><ele>80.41</ele><time>2026-08-29T09:50:20Z</time></trkpt><trkpt lat="60.2404714655" lon="30.4794124793"><ele>80.41</ele><time>2026-08-29T09:50:25Z</time></trkpt><trkpt lat="60.2404241916" lon="30.4794313386"><ele>80.41</ele><time>2026-08-29T09:50:30Z</time></trkpt><trkpt lat="60.2403215133" lon="30.4794167541"><ele>80.41</ele><time>2026-08-29T09:50:44Z</time></trkpt><trkpt lat="60.2403079346" lon="30.4794293270"><ele>80.41</ele><time>2026-08-29T09:50:57Z</time></trkpt><trkpt lat="60.2402304858" lon="30.4794665426"><ele>80.41</ele><time>2026-08-29T09:51:08Z</time></trkpt><trkpt lat="60.2401445713" lon="30.4795058537"><ele>80.41</ele><time>2026-08-29T09:51:15Z</time></trkpt><trkpt lat="60.2400214411" lon="30.4795696400"><ele>80.41</ele><time>2026-08-29T09:51:28Z</time></trkpt><trkpt lat="60.2399092913" lon="30.4796531238"><ele>80.41</ele><time>2026-08-29T09:51:38Z</time></trkpt><trkpt lat="60.2398685552" lon="30.4796961229"><ele>80.41</ele><time>2026-08-29T09:51:43Z</time></trkpt><trkpt lat="60.2398405597" lon="30.4796775989"><ele>80.41</ele><time>2026-08-29T09:51:46Z</time></trkpt><trkpt lat="60.2397648711" lon="30.4797155689"><ele>80.41</ele><time>2026-08-29T09:51:55Z</time></trkpt><trkpt lat="60.2396988217" lon="30.4797061812"><ele>80.41</ele><time>2026-08-29T09:52:02Z</time></trkpt><trkpt lat="60.2396284975" lon="30.4797123000"><ele>80.41</ele><time>2026-08-29T09:52:09Z</time></trkpt><trkpt lat="60.2395184431" lon="30.4797097016"><ele>80.41</ele><time>2026-08-29T09:52:19Z</time></trkpt><trkpt lat="60.2394495439" lon="30.4796936922"><ele>80.41</ele><time>2026-08-29T09:52:32Z</time></trkpt><trkpt lat="60.2394383959" lon="30.4796829633"><ele>80.41</ele><time>2026-08-29T09:52:42Z</time></trkpt><trkpt lat="60.2394230571" lon="30.4796812031"><ele>80.41</ele><time>2026-08-29T09:52:51Z</time></trkpt><trkpt lat="60.2394150104" lon="30.4797027446"><ele>80.41</ele><time>2026-08-29T09:52:53Z</time></trkpt><trkpt lat="60.2393948101" lon="30.4797385354"><ele>80.41</ele><time>2026-08-29T09:52:55Z</time></trkpt><trkpt lat="60.2393570077" lon="30.4797555506"><ele>80.41</ele><time>2026-08-29T09:52:58Z</time></trkpt><trkpt lat="60.2393232286" lon="30.4797628429"><ele>80.41</ele><time>2026-08-29T09:53:01Z</time></trkpt><trkpt lat="60.2392524853" lon="30.4798086081"><ele>80.41</ele><time>2026-08-29T09:53:08Z</time></trkpt><trkpt lat="60.2392288484" lon="30.4798199236"><ele>80.41</ele><time>2026-08-29T09:53:10Z</time></trkpt><trkpt lat="60.2390828356" lon="30.4798819497"><ele>80.41</ele><time>2026-08-29T09:53:22Z</time></trkpt><trkpt lat="60.2389524970" lon="30.4799146391"><ele>80.41</ele><time>2026-08-29T09:53:34Z</time></trkpt><trkpt lat="60.2388383355" lon="30.4799847957"><ele>80.41</ele><time>2026-08-29T09:53:45Z</time></trkpt><trkpt lat="60.2387970127" lon="30.4799770005"><ele>80.41</ele><time>2026-08-29T09:53:52Z</time></trkpt><trkpt lat="60.2387411892" lon="30.4799967818"><ele>80.41</ele><time>2026-08-29T09:54:04Z</time></trkpt><trkpt lat="60.2387332264" lon="30.4799963627"><ele>80.41</ele><time>2026-08-29T09:54:19Z</time></trkpt><trkpt lat="60.2387162950" lon="30.4800006375"><ele>80.41</ele><time>2026-08-29T09:54:47Z</time></trkpt><trkpt lat="60.2386516705" lon="30.4800199158"><ele>80.41</ele><time>2026-08-29T09:54:57Z</time></trkpt><trkpt lat="60.2385820169" lon="30.4800586402"><ele>80.41</ele><time>2026-08-29T09:55:09Z</time></trkpt><trkpt lat="60.2385323122" lon="30.4801097699"><ele>80.41</ele><time>2026-08-29T09:55:19Z</time></trkpt><trkpt lat="60.2385140397" lon="30.4801194090"><ele>80.41</ele><time>2026-08-29T09:55:32Z</time></trkpt><trkpt lat="60.2385077532" lon="30.4801099375"><ele>80.41</ele><time>2026-08-29T09:55:51Z</time></trkpt><trkpt lat="60.2385132853" lon="30.4801066685"><ele>80.41</ele><time>2026-08-29T09:55:54Z</time></trkpt><trkpt lat="60.2385554463" lon="30.4800833669"><ele>80.41</ele><time>2026-08-29T09:56:01Z</time></trkpt><trkpt lat="60.2385826875" lon="30.4800480790"><ele>80.41</ele><time>2026-08-29T09:56:05Z</time></trkpt><trkpt lat="60.2386530116" lon="30.4800176527"><ele>80.41</ele><time>2026-08-29T09:56:13Z</time></trkpt><trkpt lat="60.2387456317" lon="30.4800085165"><ele>80.41</ele><time>2026-08-29T09:56:27Z</time></trkpt><trkpt lat="60.2387448773" lon="30.4800397810"><ele>80.41</ele><time>2026-08-29T09:56:39Z</time></trkpt><trkpt lat="60.2387294546" lon="30.4801064171"><ele>80.41</ele><time>2026-08-29T09:56:50Z</time></trkpt><trkpt lat="60.2387269400" lon="30.4801281262"><ele>80.41</ele><time>2026-08-29T09:56:52Z</time></trkpt><trkpt lat="60.2387118526" lon="30.4801838659"><ele>80.41</ele><time>2026-08-29T09:56:55Z</time></trkpt><trkpt lat="60.2386706136" lon="30.4802137055"><ele>80.41</ele><time>2026-08-29T09:57:00Z</time></trkpt><trkpt lat="60.2386402711" lon="30.4802456405"><ele>80.41</ele><time>2026-08-29T09:57:03Z</time></trkpt><trkpt lat="60.2386278659" lon="30.4802444670"><ele>80.41</ele><time>2026-08-29T09:57:07Z</time></trkpt><trkpt lat="60.2385856211" lon="30.4802903999"><ele>80.41</ele><time>2026-08-29T09:57:21Z</time></trkpt><trkpt lat="60.2385642473" lon="30.4803207424"><ele>80.41</ele><time>2026-08-29T09:57:30Z</time></trkpt><trkpt lat="60.2384830266" lon="30.4803654179"><ele>80.41</ele><time>2026-08-29T09:57:39Z</time></trkpt><trkpt lat="60.2384219225" lon="30.4803812597"><ele>80.41</ele><time>2026-08-29T09:57:52Z</time></trkpt><trkpt lat="60.2383494191" lon="30.4804012086"><ele>80.41</ele><time>2026-08-29T09:58:00Z</time></trkpt><trkpt lat="60.2382868063" lon="30.4803996999"><ele>80.41</ele><time>2026-08-29T09:58:07Z</time></trkpt><trkpt lat="60.2381987963" lon="30.4804429505"><ele>80.41</ele><time>2026-08-29T09:58:17Z</time></trkpt><trkpt lat="60.2381485887" lon="30.4804417770"><ele>80.41</ele><time>2026-08-29T09:58:27Z</time></trkpt><trkpt lat="60.2381317411" lon="30.4804415256"><ele>80.41</ele><time>2026-08-29T09:58:44Z</time></trkpt><trkpt lat="60.2381268796" lon="30.4804312997"><ele>80.41</ele><time>2026-08-29T09:59:12Z</time></trkpt><trkpt lat="60.2381350938" lon="30.4804373346"><ele>80.41</ele><time>2026-08-29T09:59:42Z</time></trkpt><trkpt lat="60.2380783483" lon="30.4804783221"><ele>80.41</ele><time>2026-08-29T09:59:54Z</time></trkpt><trkpt lat="60.2380553819" lon="30.4805244226"><ele>80.41</ele><time>2026-08-29T09:59:58Z</time></trkpt><trkpt lat="60.2379686292" lon="30.4805017076"><ele>80.41</ele><time>2026-08-29T10:00:11Z</time></trkpt><trkpt lat="60.2379606664" lon="30.4805001989"><ele>80.41</ele><time>2026-08-29T10:00:12Z</time></trkpt><trkpt lat="60.2379134763" lon="30.4804439563"><ele>80.41</ele><time>2026-08-29T10:00:21Z</time></trkpt><trkpt lat="60.2379041724" lon="30.4803794995"><ele>80.41</ele><time>2026-08-29T10:00:29Z</time></trkpt><trkpt lat="60.2378907613" lon="30.4803023022"><ele>80.41</ele><time>2026-08-29T10:00:33Z</time></trkpt><trkpt lat="60.2378500253" lon="30.4802433774"><ele>80.41</ele><time>2026-08-29T10:00:44Z</time></trkpt><trkpt lat="60.2378471754" lon="30.4802369233"><ele>79.93</ele><time>2026-08-29T10:00:55Z</time></trkpt><trkpt lat="60.2378438227" lon="30.4802429583"><ele>79.93</ele><time>2026-08-29T10:01:05Z</time></trkpt><trkpt lat="60.2378159110" lon="30.4802468978"><ele>79.93</ele><time>2026-08-29T10:01:12Z</time></trkpt><trkpt lat="60.2377465088" lon="30.4802753124"><ele>79.93</ele><time>2026-08-29T10:01:20Z</time></trkpt><trkpt lat="60.2377242967" lon="30.4802842811"><ele>79.93</ele><time>2026-08-29T10:01:30Z</time></trkpt><trkpt lat="60.2377201896" lon="30.4803406913"><ele>79.93</ele><time>2026-08-29T10:01:41Z</time></trkpt><trkpt lat="60.2377031744" lon="30.4804117698"><ele>79.93</ele><time>2026-08-29T10:01:52Z</time></trkpt><trkpt lat="60.2376939543" lon="30.4804645758"><ele>79.93</ele><time>2026-08-29T10:02:03Z</time></trkpt><trkpt lat="60.2376549784" lon="30.4805441201"><ele>79.93</ele><time>2026-08-29T10:02:12Z</time></trkpt><trkpt lat="60.2376445010" lon="30.4805768933"><ele>79.93</ele><time>2026-08-29T10:02:14Z</time></trkpt><trkpt lat="60.2375939582" lon="30.4806322139"><ele>79.93</ele><time>2026-08-29T10:02:21Z</time></trkpt><trkpt lat="60.2375562396" lon="30.4806643166"><ele>79.93</ele><time>2026-08-29T10:02:25Z</time></trkpt><trkpt lat="60.2375278249" lon="30.4807115067"><ele>79.93</ele><time>2026-08-29T10:02:35Z</time></trkpt><trkpt lat="60.2374734264" lon="30.4807173740"><ele>79.93</ele><time>2026-08-29T10:02:47Z</time></trkpt><trkpt lat="60.2374556568" lon="30.4806760512"><ele>79.93</ele><time>2026-08-29T10:02:52Z</time></trkpt><trkpt lat="60.2374143340" lon="30.4806233291"><ele>79.93</ele><time>2026-08-29T10:03:03Z</time></trkpt><trkpt lat="60.2374136634" lon="30.4806296155"><ele>79.93</ele><time>2026-08-29T10:03:05Z</time></trkpt><trkpt lat="60.2373756934" lon="30.4806914739"><ele>79.93</ele><time>2026-08-29T10:03:10Z</time></trkpt><trkpt lat="60.2373055369" lon="30.4807421844"><ele>79.93</ele><time>2026-08-29T10:03:21Z</time></trkpt><trkpt lat="60.2372706681" lon="30.4807732813"><ele>79.93</ele><time>2026-08-29T10:03:32Z</time></trkpt><trkpt lat="60.2372423373" lon="30.4807907995"><ele>79.93</ele><time>2026-08-29T10:03:43Z</time></trkpt><trkpt lat="60.2372315247" lon="30.4807845969"><ele>79.93</ele><time>2026-08-29T10:03:56Z</time></trkpt><trkpt lat="60.2372280043" lon="30.4807850160"><ele>79.93</ele><time>2026-08-29T10:04:25Z</time></trkpt><trkpt lat="60.2372330334" lon="30.4808046296"><ele>79.93</ele><time>2026-08-29T10:04:53Z</time></trkpt><trkpt lat="60.2372370567" lon="30.4808001034"><ele>79.93</ele><time>2026-08-29T10:05:16Z</time></trkpt><trkpt lat="60.2372169401" lon="30.4807679169"><ele>79.93</ele><time>2026-08-29T10:05:28Z</time></trkpt><trkpt lat="60.2372050378" lon="30.4807076510"><ele>79.93</ele><time>2026-08-29T10:05:38Z</time></trkpt><trkpt lat="60.2371975780" lon="30.4806681722"><ele>79.93</ele><time>2026-08-29T10:05:49Z</time></trkpt><trkpt lat="60.2372010145" lon="30.4806424398"><ele>79.93</ele><time>2026-08-29T10:06:02Z</time></trkpt><trkpt lat="60.2371458616" lon="30.4805617221"><ele>79.93</ele><time>2026-08-29T10:06:16Z</time></trkpt><trkpt lat="60.2371005155" lon="30.4805667512"><ele>79.93</ele><time>2026-08-29T10:06:28Z</time></trkpt><trkpt lat="60.2370947320" lon="30.4805613868"><ele>79.93</ele><time>2026-08-29T10:06:47Z</time></trkpt><trkpt lat="60.2370866016" lon="30.4805623926"><ele>79.93</ele><time>2026-08-29T10:07:07Z</time></trkpt><trkpt lat="60.2370790578" lon="30.4805783182"><ele>79.93</ele><time>2026-08-29T10:07:23Z</time></trkpt><trkpt lat="60.2370819915" lon="30.4805648234"><ele>79.93</ele><time>2026-08-29T10:07:43Z</time></trkpt><trkpt lat="60.2370234020" lon="30.4805448744"><ele>79.93</ele><time>2026-08-29T10:07:58Z</time></trkpt><trkpt lat="60.2369711827" lon="30.4805708583"><ele>79.93</ele><time>2026-08-29T10:08:10Z</time></trkpt><trkpt lat="60.2368578594" lon="30.4806029610"><ele>79.93</ele><time>2026-08-29T10:08:22Z</time></trkpt><trkpt lat="60.2368160337" lon="30.4806232452"><ele>79.93</ele><time>2026-08-29T10:08:26Z</time></trkpt><trkpt lat="60.2367778961" lon="30.4806307890"><ele>79.93</ele><time>2026-08-29T10:08:30Z</time></trkpt><trkpt lat="60.2366459649" lon="30.4806773085"><ele>79.93</ele><time>2026-08-29T10:08:43Z</time></trkpt><trkpt lat="60.2366100065" lon="30.4806970898"><ele>79.93</ele><time>2026-08-29T10:08:55Z</time></trkpt><trkpt lat="60.2365021314" lon="30.4807346407"><ele>79.93</ele><time>2026-08-29T10:09:05Z</time></trkpt><trkpt lat="60.2364786621" lon="30.4807297792"><ele>79.93</ele><time>2026-08-29T10:09:07Z</time></trkpt><trkpt lat="60.2364015486" lon="30.4807734489"><ele>79.93</ele><time>2026-08-29T10:09:16Z</time></trkpt><trkpt lat="60.2362988703" lon="30.4807944037"><ele>79.93</ele><time>2026-08-29T10:09:27Z</time></trkpt><trkpt lat="60.2362639178" lon="30.4808010254"><ele>79.93</ele><time>2026-08-29T10:09:39Z</time></trkpt><trkpt lat="60.2362535242" lon="30.4808026180"><ele>79.93</ele><time>2026-08-29T10:09:44Z</time></trkpt><trkpt lat="60.2362335753" lon="30.4808253329"><ele>79.93</ele><time>2026-08-29T10:09:46Z</time></trkpt><trkpt lat="60.2361395303" lon="30.4808762111"><ele>79.93</ele><time>2026-08-29T10:09:53Z</time></trkpt><trkpt lat="60.2361132950" lon="30.4808992613"><ele>79.93</ele><time>2026-08-29T10:09:55Z</time></trkpt><trkpt lat="60.2360899933" lon="30.4809028655"><ele>79.93</ele><time>2026-08-29T10:09:57Z</time></trkpt><trkpt lat="60.2360325772" lon="30.4809218924"><ele>79.93</ele><time>2026-08-29T10:10:02Z</time></trkpt><trkpt lat="60.2360132989" lon="30.4809463676"><ele>79.93</ele><time>2026-08-29T10:10:04Z</time></trkpt><trkpt lat="60.2359942719" lon="30.4809579346"><ele>79.93</ele><time>2026-08-29T10:10:06Z</time></trkpt><trkpt lat="60.2358729020" lon="30.4809870198"><ele>79.93</ele><time>2026-08-29T10:10:18Z</time></trkpt><trkpt lat="60.2358365245" lon="30.4810142610"><ele>79.93</ele><time>2026-08-29T10:10:24Z</time></trkpt><trkpt lat="60.2358076070" lon="30.4810103215"><ele>79.93</ele><time>2026-08-29T10:10:28Z</time></trkpt><trkpt lat="60.2357546333" lon="30.4810243193"><ele>79.93</ele><time>2026-08-29T10:10:35Z</time></trkpt><trkpt lat="60.2357253805" lon="30.4810100701"><ele>79.93</ele><time>2026-08-29T10:10:39Z</time></trkpt><trkpt lat="60.2356534638" lon="30.4810419213"><ele>79.93</ele><time>2026-08-29T10:10:46Z</time></trkpt><trkpt lat="60.2356227022" lon="30.4810471181"><ele>79.93</ele><time>2026-08-29T10:10:49Z</time></trkpt><trkpt lat="60.2355165873" lon="30.4810937215"><ele>79.93</ele><time>2026-08-29T10:11:00Z</time></trkpt><trkpt lat="60.2354943752" lon="30.4810938891"><ele>79.93</ele><time>2026-08-29T10:11:02Z</time></trkpt><trkpt lat="60.2354934532" lon="30.4811337870"><ele>79.93</ele><time>2026-08-29T10:11:14Z</time></trkpt><trkpt lat="60.2354651224" lon="30.4811326973"><ele>79.93</ele><time>2026-08-29T10:11:29Z</time></trkpt><trkpt lat="60.2354493644" lon="30.4811417498"><ele>79.93</ele><time>2026-08-29T10:11:31Z</time></trkpt><trkpt lat="60.2353983186" lon="30.4812354594"><ele>79.93</ele><time>2026-08-29T10:11:39Z</time></trkpt><trkpt lat="60.2353647910" lon="30.4811767023"><ele>79.93</ele><time>2026-08-29T10:11:52Z</time></trkpt><trkpt lat="60.2353581693" lon="30.4812057875"><ele>79.93</ele><time>2026-08-29T10:12:06Z</time></trkpt><trkpt lat="60.2353164274" lon="30.4811728466"><ele>79.93</ele><time>2026-08-29T10:12:17Z</time></trkpt><trkpt lat="60.2352957241" lon="30.4811460245"><ele>79.93</ele><time>2026-08-29T10:12:20Z</time></trkpt><trkpt lat="60.2351840772" lon="30.4812059551"><ele>79.93</ele><time>2026-08-29T10:12:31Z</time></trkpt><trkpt lat="60.2351427544" lon="30.4812251497"><ele>79.93</ele><time>2026-08-29T10:12:35Z</time></trkpt><trkpt lat="60.2350312751" lon="30.4812440928"><ele>79.93</ele><time>2026-08-29T10:12:46Z</time></trkpt><trkpt lat="60.2349590231" lon="30.4812894389"><ele>79.93</ele><time>2026-08-29T10:12:55Z</time></trkpt><trkpt lat="60.2348722704" lon="30.4813203681"><ele>79.93</ele><time>2026-08-29T10:13:04Z</time></trkpt><trkpt lat="60.2348678280" lon="30.4813215416"><ele>79.93</ele><time>2026-08-29T10:13:05Z</time></trkpt><trkpt lat="60.2347573545" lon="30.4813379701"><ele>79.93</ele><time>2026-08-29T10:13:16Z</time></trkpt><trkpt lat="60.2347385790" lon="30.4813502077"><ele>79.93</ele><time>2026-08-29T10:13:18Z</time></trkpt><trkpt lat="60.2347181272" lon="30.4813538119"><ele>79.93</ele><time>2026-08-29T10:13:20Z</time></trkpt><trkpt lat="60.2346366551" lon="30.4813768622"><ele>79.93</ele><time>2026-08-29T10:13:28Z</time></trkpt><trkpt lat="60.2346212324" lon="30.4813472740"><ele>79.93</ele><time>2026-08-29T10:13:40Z</time></trkpt><trkpt lat="60.2346203942" lon="30.4813561589"><ele>79.93</ele><time>2026-08-29T10:13:55Z</time></trkpt><trkpt lat="60.2345498186" lon="30.4813958053"><ele>79.93</ele><time>2026-08-29T10:14:08Z</time></trkpt><trkpt lat="60.2344227489" lon="30.4814594239"><ele>79.45</ele><time>2026-08-29T10:14:21Z</time></trkpt><trkpt lat="60.2342907339" lon="30.4815015849"><ele>79.45</ele><time>2026-08-29T10:14:32Z</time></trkpt><trkpt lat="60.2341645863" lon="30.4815384652"><ele>79.45</ele><time>2026-08-29T10:14:43Z</time></trkpt><trkpt lat="60.2340832818" lon="30.4815516248"><ele>79.45</ele><time>2026-08-29T10:14:50Z</time></trkpt><trkpt lat="60.2340251114" lon="30.4815619346"><ele>79.45</ele><time>2026-08-29T10:15:01Z</time></trkpt><trkpt lat="60.2340112813" lon="30.4815258924"><ele>79.45</ele><time>2026-08-29T10:15:04Z</time></trkpt><trkpt lat="60.2339182422" lon="30.4815410636"><ele>79.45</ele><time>2026-08-29T10:15:15Z</time></trkpt><trkpt lat="60.2338951919" lon="30.4815313406"><ele>79.45</ele><time>2026-08-29T10:15:18Z</time></trkpt><trkpt lat="60.2338561323" lon="30.4815698974"><ele>79.45</ele><time>2026-08-29T10:15:24Z</time></trkpt><trkpt lat="60.2338331658" lon="30.4816118907"><ele>79.45</ele><time>2026-08-29T10:15:30Z</time></trkpt><trkpt lat="60.2337757498" lon="30.4816647805"><ele>79.45</ele><time>2026-08-29T10:15:40Z</time></trkpt><trkpt lat="60.2336707246" lon="30.4816634394"><ele>79.45</ele><time>2026-08-29T10:15:54Z</time></trkpt><trkpt lat="60.2335924376" lon="30.4817056004"><ele>79.45</ele><time>2026-08-29T10:16:03Z</time></trkpt><trkpt lat="60.2335492708" lon="30.4817185923"><ele>79.45</ele><time>2026-08-29T10:16:09Z</time></trkpt><trkpt lat="60.2334362827" lon="30.4817587417"><ele>79.45</ele><time>2026-08-29T10:16:21Z</time></trkpt><trkpt lat="60.2334175073" lon="30.4817578197"><ele>79.45</ele><time>2026-08-29T10:16:23Z</time></trkpt><trkpt lat="60.2333092131" lon="30.4817993101"><ele>79.45</ele><time>2026-08-29T10:16:35Z</time></trkpt><trkpt lat="60.2332520485" lon="30.4818570614"><ele>79.45</ele><time>2026-08-29T10:16:44Z</time></trkpt><trkpt lat="60.2332057804" lon="30.4818718135"><ele>79.45</ele><time>2026-08-29T10:16:48Z</time></trkpt><trkpt lat="60.2331590094" lon="30.4818827100"><ele>79.45</ele><time>2026-08-29T10:17:02Z</time></trkpt><trkpt lat="60.2331466880" lon="30.4818837997"><ele>79.45</ele><time>2026-08-29T10:17:25Z</time></trkpt><trkpt lat="60.2331015095" lon="30.4818855599"><ele>79.45</ele><time>2026-08-29T10:17:45Z</time></trkpt><trkpt lat="60.2330494579" lon="30.4819029942"><ele>79.45</ele><time>2026-08-29T10:17:50Z</time></trkpt><trkpt lat="60.2330332808" lon="30.4819226917"><ele>79.45</ele><time>2026-08-29T10:17:52Z</time></trkpt><trkpt lat="60.2329894435" lon="30.4819417186"><ele>79.45</ele><time>2026-08-29T10:17:56Z</time></trkpt><trkpt lat="60.2328983322" lon="30.4819819517"><ele>79.45</ele><time>2026-08-29T10:18:06Z</time></trkpt><trkpt lat="60.2328345459" lon="30.4819940217"><ele>79.45</ele><time>2026-08-29T10:18:19Z</time></trkpt><trkpt lat="60.2327473741" lon="30.4820250347"><ele>79.45</ele><time>2026-08-29T10:18:29Z</time></trkpt><trkpt lat="60.2327260841" lon="30.4820236098"><ele>79.45</ele><time>2026-08-29T10:18:31Z</time></trkpt><trkpt lat="60.2326548379" lon="30.4820675310"><ele>79.45</ele><time>2026-08-29T10:18:37Z</time></trkpt><trkpt lat="60.2326322068" lon="30.4820941016"><ele>79.45</ele><time>2026-08-29T10:18:39Z</time></trkpt><trkpt lat="60.2325760480" lon="30.4821255337"><ele>79.45</ele><time>2026-08-29T10:18:44Z</time></trkpt><trkpt lat="60.2325532492" lon="30.4821262881"><ele>79.45</ele><time>2026-08-29T10:18:46Z</time></trkpt><trkpt lat="60.2325258404" lon="30.4821441416"><ele>79.45</ele><time>2026-08-29T10:18:52Z</time></trkpt><trkpt lat="60.2325535845" lon="30.4821143020"><ele>79.45</ele><time>2026-08-29T10:18:56Z</time></trkpt><trkpt lat="60.2325458732" lon="30.4820846301"><ele>79.45</ele><time>2026-08-29T10:18:58Z</time></trkpt><trkpt lat="60.2325315401" lon="30.4820821993"><ele>79.45</ele><time>2026-08-29T10:19:01Z</time></trkpt><trkpt lat="60.2324307896" lon="30.4820896592"><ele>79.45</ele><time>2026-08-29T10:19:12Z</time></trkpt><trkpt lat="60.2323059831" lon="30.4821422137"><ele>79.45</ele><time>2026-08-29T10:19:24Z</time></trkpt><trkpt lat="60.2322323062" lon="30.4821710475"><ele>79.45</ele><time>2026-08-29T10:19:32Z</time></trkpt><trkpt lat="60.2322090045" lon="30.4821635876"><ele>78.97</ele><time>2026-08-29T10:19:45Z</time></trkpt><trkpt lat="60.2322603855" lon="30.4821329936"><ele>78.97</ele><time>2026-08-29T10:19:56Z</time></trkpt><trkpt lat="60.2322844416" lon="30.4821339995"><ele>78.97</ele><time>2026-08-29T10:20:03Z</time></trkpt><trkpt lat="60.2323452942" lon="30.4820758291"><ele>78.97</ele><time>2026-08-29T10:20:10Z</time></trkpt><trkpt lat="60.2324131038" lon="30.4820604064"><ele>78.97</ele><time>2026-08-29T10:20:20Z</time></trkpt><trkpt lat="60.2324258443" lon="30.4820562154"><ele>78.97</ele><time>2026-08-29T10:20:22Z</time></trkpt><trkpt lat="60.2324801590" lon="30.4820430558"><ele>78.97</ele><time>2026-08-29T10:20:27Z</time></trkpt><trkpt lat="60.2325752098" lon="30.4820294771"><ele>78.97</ele><time>2026-08-29T10:20:37Z</time></trkpt><trkpt lat="60.2326599509" lon="30.4819870647"><ele>78.97</ele><time>2026-08-29T10:20:47Z</time></trkpt><trkpt lat="60.2327436861" lon="30.4819914233"><ele>78.97</ele><time>2026-08-29T10:20:54Z</time></trkpt><trkpt lat="60.2328048740" lon="30.4819531180"><ele>78.97</ele><time>2026-08-29T10:21:02Z</time></trkpt><trkpt lat="60.2328130044" lon="30.4818230309"><ele>78.97</ele><time>2026-08-29T10:21:10Z</time></trkpt><trkpt lat="60.2328338753" lon="30.4818212707"><ele>78.97</ele><time>2026-08-29T10:21:22Z</time></trkpt><trkpt lat="60.2328456938" lon="30.4818266351"><ele>78.97</ele><time>2026-08-29T10:21:33Z</time></trkpt><trkpt lat="60.2328603622" lon="30.4818216898"><ele>78.97</ele><time>2026-08-29T10:21:49Z</time></trkpt><trkpt lat="60.2328682411" lon="30.4818268865"><ele>78.97</ele><time>2026-08-29T10:22:04Z</time></trkpt><trkpt lat="60.2328709234" lon="30.4818457458"><ele>78.97</ele><time>2026-08-29T10:22:14Z</time></trkpt><trkpt lat="60.2328717615" lon="30.4818467516"><ele>78.48</ele><time>2026-08-29T10:22:30Z</time></trkpt><trkpt lat="60.2328690793" lon="30.4818364419"><ele>78.48</ele><time>2026-08-29T10:22:57Z</time></trkpt><trkpt lat="60.2328731027" lon="30.4818415549"><ele>78.48</ele><time>2026-08-29T10:23:32Z</time></trkpt><trkpt lat="60.2328708395" lon="30.4818392918"><ele>78.48</ele><time>2026-08-29T10:24:01Z</time></trkpt><trkpt lat="60.2328676544" lon="30.4818357714"><ele>78.48</ele><time>2026-08-29T10:24:33Z</time></trkpt><trkpt lat="60.2328684088" lon="30.4818357714"><ele>78.48</ele><time>2026-08-29T10:25:03Z</time></trkpt><trkpt lat="60.2328681573" lon="30.4818419740"><ele>78.48</ele><time>2026-08-29T10:25:40Z</time></trkpt><trkpt lat="60.2328679897" lon="30.4818380345"><ele>78.48</ele><time>2026-08-29T10:26:12Z</time></trkpt><trkpt lat="60.2328642178" lon="30.4818188399"><ele>78.48</ele><time>2026-08-29T10:26:41Z</time></trkpt><trkpt lat="60.2328713425" lon="30.4818035848"><ele>79.45</ele><time>2026-08-29T10:26:49Z</time></trkpt><trkpt lat="60.2328723483" lon="30.4817914311"><ele>79.45</ele><time>2026-08-29T10:26:59Z</time></trkpt><trkpt lat="60.2328704204" lon="30.4817953706"><ele>79.45</ele><time>2026-08-29T10:27:11Z</time></trkpt><trkpt lat="60.2328682411" lon="30.4817773495"><ele>79.45</ele><time>2026-08-29T10:27:26Z</time></trkpt><trkpt lat="60.2328725997" lon="30.4817715660"><ele>79.45</ele><time>2026-08-29T10:27:41Z</time></trkpt><trkpt lat="60.2328694984" lon="30.4817584064"><ele>79.45</ele><time>2026-08-29T10:27:54Z</time></trkpt><trkpt lat="60.2328653913" lon="30.4817210231"><ele>79.45</ele><time>2026-08-29T10:28:09Z</time></trkpt><trkpt lat="60.2328239009" lon="30.4816746712"><ele>79.45</ele><time>2026-08-29T10:28:22Z</time></trkpt><trkpt lat="60.2327863500" lon="30.4816884175"><ele>79.45</ele><time>2026-08-29T10:28:34Z</time></trkpt><trkpt lat="60.2327751182" lon="30.4816957936"><ele>79.45</ele><time>2026-08-29T10:28:54Z</time></trkpt><trkpt lat="60.2327517327" lon="30.4816985596"><ele>79.45</ele><time>2026-08-29T10:29:11Z</time></trkpt><trkpt lat="60.2327498887" lon="30.4816711508"><ele>79.45</ele><time>2026-08-29T10:29:13Z</time></trkpt><trkpt lat="60.2327416744" lon="30.4816092923"><ele>79.45</ele><time>2026-08-29T10:29:23Z</time></trkpt><trkpt lat="60.2327347174" lon="30.4815476015"><ele>79.45</ele><time>2026-08-29T10:29:32Z</time></trkpt><trkpt lat="60.2326792292" lon="30.4814680573"><ele>79.45</ele><time>2026-08-29T10:29:44Z</time></trkpt><trkpt lat="60.2326414268" lon="30.4814199451"><ele>79.45</ele><time>2026-08-29T10:29:53Z</time></trkpt><trkpt lat="60.2325654868" lon="30.4813905247"><ele>79.45</ele><time>2026-08-29T10:30:05Z</time></trkpt><trkpt lat="60.2325457055" lon="30.4813667201"><ele>79.45</ele><time>2026-08-29T10:30:12Z</time></trkpt><trkpt lat="60.2325203083" lon="30.4813231342"><ele>79.45</ele><time>2026-08-29T10:30:22Z</time></trkpt><trkpt lat="60.2324799914" lon="30.4813623615"><ele>79.45</ele><time>2026-08-29T10:30:30Z</time></trkpt><trkpt lat="60.2324118465" lon="30.4814243875"><ele>79.45</ele><time>2026-08-29T10:30:40Z</time></trkpt><trkpt lat="60.2323849406" lon="30.4814375471"><ele>79.45</ele><time>2026-08-29T10:30:43Z</time></trkpt><trkpt lat="60.2323313802" lon="30.4814672191"><ele>79.45</ele><time>2026-08-29T10:30:51Z</time></trkpt><trkpt lat="60.2322536800" lon="30.4815355316"><ele>79.45</ele><time>2026-08-29T10:31:01Z</time></trkpt><trkpt lat="60.2321617305" lon="30.4815546423"><ele>79.45</ele><time>2026-08-29T10:31:11Z</time></trkpt><trkpt lat="60.2320868801" lon="30.4815812130"><ele>79.45</ele><time>2026-08-29T10:31:21Z</time></trkpt><trkpt lat="60.2320640814" lon="30.4816012457"><ele>79.45</ele><time>2026-08-29T10:31:26Z</time></trkpt><trkpt lat="60.2320383489" lon="30.4816164169"><ele>79.45</ele><time>2026-08-29T10:31:29Z</time></trkpt><trkpt lat="60.2320024744" lon="30.4816387128"><ele>79.45</ele><time>2026-08-29T10:31:40Z</time></trkpt><trkpt lat="60.2319712099" lon="30.4816435743"><ele>79.45</ele><time>2026-08-29T10:31:43Z</time></trkpt><trkpt lat="60.2319431305" lon="30.4816394672"><ele>79.45</ele><time>2026-08-29T10:31:46Z</time></trkpt><trkpt lat="60.2318204194" lon="30.4816978890"><ele>79.45</ele><time>2026-08-29T10:31:59Z</time></trkpt><trkpt lat="60.2317969501" lon="30.4816844780"><ele>79.45</ele><time>2026-08-29T10:32:01Z</time></trkpt><trkpt lat="60.2317498438" lon="30.4817003198"><ele>79.45</ele><time>2026-08-29T10:32:15Z</time></trkpt><trkpt lat="60.2317420486" lon="30.4817218613"><ele>78.97</ele><time>2026-08-29T10:32:39Z</time></trkpt><trkpt lat="60.2317323256" lon="30.4817233700"><ele>78.97</ele><time>2026-08-29T10:32:43Z</time></trkpt><trkpt lat="60.2316873148" lon="30.4817659501"><ele>78.97</ele><time>2026-08-29T10:32:54Z</time></trkpt><trkpt lat="60.2316753287" lon="30.4817371164"><ele>78.97</ele><time>2026-08-29T10:33:07Z</time></trkpt><trkpt lat="60.2316647675" lon="30.4817405529"><ele>78.97</ele><time>2026-08-29T10:33:22Z</time></trkpt><trkpt lat="60.2316503506" lon="30.4817506112"><ele>78.97</ele><time>2026-08-29T10:33:56Z</time></trkpt><trkpt lat="60.2316447347" lon="30.4817150719"><ele>78.97</ele><time>2026-08-29T10:34:30Z</time></trkpt><trkpt lat="60.2316426393" lon="30.4817080311"><ele>78.97</ele><time>2026-08-29T10:35:07Z</time></trkpt><trkpt lat="60.2316440642" lon="30.4817113001"><ele>78.97</ele><time>2026-08-29T10:35:39Z</time></trkpt><trkpt lat="60.2316536196" lon="30.4817236215"><ele>78.48</ele><time>2026-08-29T10:36:13Z</time></trkpt><trkpt lat="60.2316589002" lon="30.4817361105"><ele>78.48</ele><time>2026-08-29T10:36:46Z</time></trkpt><trkpt lat="60.2316613309" lon="30.4817399662"><ele>78.48</ele><time>2026-08-29T10:37:24Z</time></trkpt><trkpt lat="60.2316544577" lon="30.4817298241"><ele>78.48</ele><time>2026-08-29T10:38:05Z</time></trkpt><trkpt lat="60.2316542901" lon="30.4817273095"><ele>78.48</ele><time>2026-08-29T10:38:47Z</time></trkpt><trkpt lat="60.2316537034" lon="30.4817037564"><ele>78.48</ele><time>2026-08-29T10:39:28Z</time></trkpt><trkpt lat="60.2316627558" lon="30.4817275610"><ele>78.48</ele><time>2026-08-29T10:40:02Z</time></trkpt><trkpt lat="60.2316620853" lon="30.4817237891"><ele>78.48</ele><time>2026-08-29T10:40:40Z</time></trkpt><trkpt lat="60.2316588163" lon="30.4817134794"><ele>79.45</ele><time>2026-08-29T10:41:09Z</time></trkpt><trkpt lat="60.2316148113" lon="30.4817682132"><ele>78.97</ele><time>2026-08-29T10:41:19Z</time></trkpt><trkpt lat="60.2315935213" lon="30.4818262998"><ele>79.45</ele><time>2026-08-29T10:41:31Z</time></trkpt><trkpt lat="60.2315556351" lon="30.4818307422"><ele>79.45</ele><time>2026-08-29T10:41:42Z</time></trkpt><trkpt lat="60.2315449901" lon="30.4818406329"><ele>79.45</ele><time>2026-08-29T10:42:00Z</time></trkpt><trkpt lat="60.2315375302" lon="30.4818427283"><ele>79.45</ele><time>2026-08-29T10:42:02Z</time></trkpt><trkpt lat="60.2315083612" lon="30.4818490148"><ele>79.45</ele><time>2026-08-29T10:42:05Z</time></trkpt><trkpt lat="60.2314879932" lon="30.4818651080"><ele>79.45</ele><time>2026-08-29T10:42:07Z</time></trkpt><trkpt lat="60.2314679604" lon="30.4818646051"><ele>79.45</ele><time>2026-08-29T10:42:09Z</time></trkpt><trkpt lat="60.2314329240" lon="30.4818891641"><ele>79.45</ele><time>2026-08-29T10:42:17Z</time></trkpt><trkpt lat="60.2314087842" lon="30.4818866495"><ele>79.45</ele><time>2026-08-29T10:42:20Z</time></trkpt><trkpt lat="60.2313155774" lon="30.4818861466"><ele>79.45</ele><time>2026-08-29T10:42:31Z</time></trkpt><trkpt lat="60.2312439121" lon="30.4818808660"><ele>79.45</ele><time>2026-08-29T10:42:37Z</time></trkpt><trkpt lat="60.2312244661" lon="30.4818945285"><ele>79.45</ele><time>2026-08-29T10:42:39Z</time></trkpt><trkpt lat="60.2311156690" lon="30.4818628449"><ele>79.45</ele><time>2026-08-29T10:42:52Z</time></trkpt><trkpt lat="60.2310324367" lon="30.4818813689"><ele>79.45</ele><time>2026-08-29T10:43:03Z</time></trkpt><trkpt lat="60.2310095541" lon="30.4818745796"><ele>79.45</ele><time>2026-08-29T10:43:07Z</time></trkpt><trkpt lat="60.2309122402" lon="30.4818786029"><ele>78.97</ele><time>2026-08-29T10:43:19Z</time></trkpt><trkpt lat="60.2308697440" lon="30.4819125496"><ele>78.97</ele><time>2026-08-29T10:43:23Z</time></trkpt><trkpt lat="60.2308171894" lon="30.4819326662"><ele>78.97</ele><time>2026-08-29T10:43:29Z</time></trkpt><trkpt lat="60.2307352144" lon="30.4819707200"><ele>78.97</ele><time>2026-08-29T10:43:41Z</time></trkpt><trkpt lat="60.2307261620" lon="30.4819681216"><ele>78.97</ele><time>2026-08-29T10:44:02Z</time></trkpt><trkpt lat="60.2306840848" lon="30.4820247833"><ele>78.97</ele><time>2026-08-29T10:44:13Z</time></trkpt><trkpt lat="60.2306773793" lon="30.4820330814"><ele>78.97</ele><time>2026-08-29T10:44:16Z</time></trkpt><trkpt lat="60.2306690812" lon="30.4821521044"><ele>78.97</ele><time>2026-08-29T10:44:26Z</time></trkpt><trkpt lat="60.2306592744" lon="30.4822115321"><ele>78.97</ele><time>2026-08-29T10:44:36Z</time></trkpt><trkpt lat="60.2306562569" lon="30.4822227638"><ele>78.97</ele><time>2026-08-29T10:44:38Z</time></trkpt><trkpt lat="60.2306404151" lon="30.4823095165"><ele>78.97</ele><time>2026-08-29T10:44:47Z</time></trkpt><trkpt lat="60.2306273393" lon="30.4824578762"><ele>78.97</ele><time>2026-08-29T10:44:57Z</time></trkpt><trkpt lat="60.2305980865" lon="30.4825191479"><ele>78.48</ele><time>2026-08-29T10:45:03Z</time></trkpt><trkpt lat="60.2305265050" lon="30.4825073294"><ele>78.48</ele><time>2026-08-29T10:45:13Z</time></trkpt><trkpt lat="60.2304975875" lon="30.4825082514"><ele>78.48</ele><time>2026-08-29T10:45:16Z</time></trkpt><trkpt lat="60.2304241620" lon="30.4825078323"><ele>78.48</ele><time>2026-08-29T10:45:26Z</time></trkpt><trkpt lat="60.2304198872" lon="30.4825267754"><ele>78.48</ele><time>2026-08-29T10:45:29Z</time></trkpt><trkpt lat="60.2304049674" lon="30.4825939983"><ele>78.48</ele><time>2026-08-29T10:45:32Z</time></trkpt><trkpt lat="60.2303661592" lon="30.4826516658"><ele>78.48</ele><time>2026-08-29T10:45:38Z</time></trkpt><trkpt lat="60.2303431928" lon="30.4826128576"><ele>78.48</ele><time>2026-08-29T10:45:41Z</time></trkpt><trkpt lat="60.2302541770" lon="30.4825536814"><ele>78.48</ele><time>2026-08-29T10:45:51Z</time></trkpt><trkpt lat="60.2302483935" lon="30.4825604707"><ele>78.48</ele><time>2026-08-29T10:45:52Z</time></trkpt><trkpt lat="60.2301930729" lon="30.4826285318"><ele>78.48</ele><time>2026-08-29T10:46:02Z</time></trkpt><trkpt lat="60.2301613893" lon="30.4826446250"><ele>78.48</ele><time>2026-08-29T10:46:07Z</time></trkpt><trkpt lat="60.2301376686" lon="30.4826488160"><ele>78.48</ele><time>2026-08-29T10:46:09Z</time></trkpt><trkpt lat="60.2300851140" lon="30.4827150330"><ele>78.48</ele><time>2026-08-29T10:46:19Z</time></trkpt><trkpt lat="60.2300305478" lon="30.4827354848"><ele>78.48</ele><time>2026-08-29T10:46:26Z</time></trkpt><trkpt lat="60.2299950086" lon="30.4827068187"><ele>78.48</ele><time>2026-08-29T10:46:35Z</time></trkpt><trkpt lat="60.2299479861" lon="30.4827042203"><ele>78.48</ele><time>2026-08-29T10:46:42Z</time></trkpt><trkpt lat="60.2298728842" lon="30.4826251790"><ele>78.48</ele><time>2026-08-29T10:46:53Z</time></trkpt><trkpt lat="60.2298208326" lon="30.4826212395"><ele>78.97</ele><time>2026-08-29T10:47:00Z</time></trkpt><trkpt lat="60.2297486644" lon="30.4825922381"><ele>78.97</ele><time>2026-08-29T10:47:11Z</time></trkpt><trkpt lat="60.2297183219" lon="30.4825756419"><ele>78.97</ele><time>2026-08-29T10:47:24Z</time></trkpt><trkpt lat="60.2296946850" lon="30.4825694393"><ele>78.97</ele><time>2026-08-29T10:47:39Z</time></trkpt><trkpt lat="60.2296743169" lon="30.4825532623"><ele>78.97</ele><time>2026-08-29T10:47:44Z</time></trkpt><trkpt lat="60.2296035737" lon="30.4824821837"><ele>78.97</ele><time>2026-08-29T10:47:55Z</time></trkpt><trkpt lat="60.2295844629" lon="30.4824801721"><ele>78.97</ele><time>2026-08-29T10:48:00Z</time></trkpt><trkpt lat="60.2294980455" lon="30.4824913200"><ele>78.48</ele><time>2026-08-29T10:48:11Z</time></trkpt><trkpt lat="60.2294662781" lon="30.4824796692"><ele>78.48</ele><time>2026-08-29T10:48:24Z</time></trkpt><trkpt lat="60.2294407971" lon="30.4824945889"><ele>78.48</ele><time>2026-08-29T10:48:54Z</time></trkpt><trkpt lat="60.2293298207" lon="30.4825703613"><ele>78.48</ele><time>2026-08-29T10:49:05Z</time></trkpt><trkpt lat="60.2292370331" lon="30.4826001171"><ele>78.48</ele><time>2026-08-29T10:49:15Z</time></trkpt><trkpt lat="60.2291764319" lon="30.4826053139"><ele>78.48</ele><time>2026-08-29T10:49:28Z</time></trkpt><trkpt lat="60.2291627694" lon="30.4826257657"><ele>78.97</ele><time>2026-08-29T10:49:30Z</time></trkpt><trkpt lat="60.2290716581" lon="30.4827119317"><ele>78.97</ele><time>2026-08-29T10:49:41Z</time></trkpt><trkpt lat="60.2290377114" lon="30.4827407654"><ele>78.97</ele><time>2026-08-29T10:49:49Z</time></trkpt><trkpt lat="60.2289877553" lon="30.4827348981"><ele>78.97</ele><time>2026-08-29T10:50:03Z</time></trkpt><trkpt lat="60.2288924530" lon="30.4827297851"><ele>78.97</ele><time>2026-08-29T10:50:15Z</time></trkpt><trkpt lat="60.2288541477" lon="30.4827045556"><ele>78.97</ele><time>2026-08-29T10:50:24Z</time></trkpt><trkpt lat="60.2288071252" lon="30.4827369936"><ele>78.97</ele><time>2026-08-29T10:50:29Z</time></trkpt><trkpt lat="60.2286962327" lon="30.4827677552"><ele>78.97</ele><time>2026-08-29T10:50:42Z</time></trkpt><trkpt lat="60.2286222205" lon="30.4827952478"><ele>78.48</ele><time>2026-08-29T10:50:54Z</time></trkpt><trkpt lat="60.2285511419" lon="30.4828050546"><ele>78.48</ele><time>2026-08-29T10:51:02Z</time></trkpt><trkpt lat="60.2284750342" lon="30.4828077368"><ele>78.48</ele><time>2026-08-29T10:51:10Z</time></trkpt><trkpt lat="60.2283804864" lon="30.4827977624"><ele>78.48</ele><time>2026-08-29T10:51:20Z</time></trkpt><trkpt lat="60.2282831725" lon="30.4827758018"><ele>78.97</ele><time>2026-08-29T10:51:32Z</time></trkpt><trkpt lat="60.2282677498" lon="30.4827893805"><ele>78.97</ele><time>2026-08-29T10:51:34Z</time></trkpt><trkpt lat="60.2281588688" lon="30.4829082359"><ele>78.97</ele><time>2026-08-29T10:51:45Z</time></trkpt><trkpt lat="60.2281299513" lon="30.4829290230"><ele>78.97</ele><time>2026-08-29T10:51:52Z</time></trkpt><trkpt lat="60.2280511614" lon="30.4829485528"><ele>78.97</ele><time>2026-08-29T10:52:04Z</time></trkpt><trkpt lat="60.2279845253" lon="30.4829498939"><ele>78.97</ele><time>2026-08-29T10:52:14Z</time></trkpt><trkpt lat="60.2279677615" lon="30.4829524923"><ele>78.97</ele><time>2026-08-29T10:52:17Z</time></trkpt><trkpt lat="60.2279345691" lon="30.4829819966"><ele>78.97</ele><time>2026-08-29T10:52:21Z</time></trkpt><trkpt lat="60.2278857864" lon="30.4830065556"><ele>78.97</ele><time>2026-08-29T10:52:25Z</time></trkpt><trkpt lat="60.2278603055" lon="30.4830079805"><ele>78.97</ele><time>2026-08-29T10:52:27Z</time></trkpt><trkpt lat="60.2277299669" lon="30.4830616247"><ele>78.48</ele><time>2026-08-29T10:52:37Z</time></trkpt><trkpt lat="60.2277082577" lon="30.4830875248"><ele>78.48</ele><time>2026-08-29T10:52:39Z</time></trkpt><trkpt lat="60.2276503388" lon="30.4830991756"><ele>78.48</ele><time>2026-08-29T10:52:51Z</time></trkpt><trkpt lat="60.2275531925" lon="30.4831323680"><ele>78.48</ele><time>2026-08-29T10:53:02Z</time></trkpt><trkpt lat="60.2275187429" lon="30.4831425101"><ele>78.48</ele><time>2026-08-29T10:53:14Z</time></trkpt><trkpt lat="60.2275026496" lon="30.4831461143"><ele>78.48</ele><time>2026-08-29T10:53:39Z</time></trkpt><trkpt lat="60.2275038231" lon="30.4831431806"><ele>78.48</ele><time>2026-08-29T10:53:45Z</time></trkpt><trkpt lat="60.2274211776" lon="30.4831774626"><ele>78.48</ele><time>2026-08-29T10:53:56Z</time></trkpt><trkpt lat="60.2273338381" lon="30.4831767082"><ele>78.48</ele><time>2026-08-29T10:54:09Z</time></trkpt><trkpt lat="60.2272623405" lon="30.4832137562"><ele>78.00</ele><time>2026-08-29T10:54:19Z</time></trkpt><trkpt lat="60.2272528689" lon="30.4832194559"><ele>78.00</ele><time>2026-08-29T10:54:20Z</time></trkpt><trkpt lat="60.2272273041" lon="30.4832106549"><ele>78.00</ele><time>2026-08-29T10:54:22Z</time></trkpt><trkpt lat="60.2271951176" lon="30.4832247365"><ele>78.00</ele><time>2026-08-29T10:54:26Z</time></trkpt><trkpt lat="60.2271485142" lon="30.4832440149"><ele>78.00</ele><time>2026-08-29T10:54:32Z</time></trkpt><trkpt lat="60.2270856500" lon="30.4832480382"><ele>78.00</ele><time>2026-08-29T10:54:45Z</time></trkpt><trkpt lat="60.2270496916" lon="30.4832681548"><ele>78.00</ele><time>2026-08-29T10:54:52Z</time></trkpt><trkpt lat="60.2269356977" lon="30.4833388142"><ele>78.00</ele><time>2026-08-29T10:55:04Z</time></trkpt><trkpt lat="60.2268496156" lon="30.4833710846"><ele>78.00</ele><time>2026-08-29T10:55:16Z</time></trkpt><trkpt lat="60.2268276550" lon="30.4833751079"><ele>78.00</ele><time>2026-08-29T10:55:18Z</time></trkpt><trkpt lat="60.2267440036" lon="30.4834127426"><ele>78.00</ele><time>2026-08-29T10:55:28Z</time></trkpt><trkpt lat="60.2267062850" lon="30.4833987448"><ele>77.52</ele><time>2026-08-29T10:55:32Z</time></trkpt><trkpt lat="60.2266194485" lon="30.4834711645"><ele>77.52</ele><time>2026-08-29T10:55:43Z</time></trkpt><trkpt lat="60.2265529800" lon="30.4834927898"><ele>77.52</ele><time>2026-08-29T10:55:53Z</time></trkpt><trkpt lat="60.2265088074" lon="30.4834885150"><ele>77.52</ele><time>2026-08-29T10:56:04Z</time></trkpt><trkpt lat="60.2264536545" lon="30.4835482780"><ele>77.52</ele><time>2026-08-29T10:56:14Z</time></trkpt><trkpt lat="60.2264384832" lon="30.4835595936"><ele>77.52</ele><time>2026-08-29T10:56:17Z</time></trkpt><trkpt lat="60.2264121640" lon="30.4835971445"><ele>77.52</ele><time>2026-08-29T10:56:20Z</time></trkpt><trkpt lat="60.2263337933" lon="30.4836380482"><ele>77.52</ele><time>2026-08-29T10:56:32Z</time></trkpt><trkpt lat="60.2262741979" lon="30.4836233798"><ele>77.52</ele><time>2026-08-29T10:56:46Z</time></trkpt><trkpt lat="60.2261944022" lon="30.4836695641"><ele>78.00</ele><time>2026-08-29T10:56:58Z</time></trkpt><trkpt lat="60.2261884511" lon="30.4836776946"><ele>78.00</ele><time>2026-08-29T10:56:59Z</time></trkpt><trkpt lat="60.2261182945" lon="30.4836667143"><ele>78.00</ele><time>2026-08-29T10:57:08Z</time></trkpt><trkpt lat="60.2260751277" lon="30.4836625233"><ele>78.00</ele><time>2026-08-29T10:57:12Z</time></trkpt><trkpt lat="60.2260474674" lon="30.4836464301"><ele>77.52</ele><time>2026-08-29T10:57:15Z</time></trkpt><trkpt lat="60.2259716112" lon="30.4836645350"><ele>77.52</ele><time>2026-08-29T10:57:25Z</time></trkpt><trkpt lat="60.2258697711" lon="30.4837305006"><ele>77.52</ele><time>2026-08-29T10:57:35Z</time></trkpt><trkpt lat="60.2258429490" lon="30.4837527964"><ele>77.52</ele><time>2026-08-29T10:57:37Z</time></trkpt><trkpt lat="60.2257598005" lon="30.4837385472"><ele>77.52</ele><time>2026-08-29T10:57:48Z</time></trkpt><trkpt lat="60.2256767359" lon="30.4837978911"><ele>77.52</ele><time>2026-08-29T10:57:57Z</time></trkpt><trkpt lat="60.2255908214" lon="30.4838088714"><ele>77.52</ele><time>2026-08-29T10:58:09Z</time></trkpt><trkpt lat="60.2255009674" lon="30.4838680476"><ele>77.52</ele><time>2026-08-29T10:58:21Z</time></trkpt><trkpt lat="60.2254531067" lon="30.4838817939"><ele>77.52</ele><time>2026-08-29T10:58:33Z</time></trkpt><trkpt lat="60.2254180703" lon="30.4838811234"><ele>77.52</ele><time>2026-08-29T10:58:42Z</time></trkpt><trkpt lat="60.2253620792" lon="30.4838940315"><ele>77.04</ele><time>2026-08-29T10:58:48Z</time></trkpt><trkpt lat="60.2252873126" lon="30.4839081131"><ele>77.04</ele><time>2026-08-29T10:58:59Z</time></trkpt><trkpt lat="60.2252213471" lon="30.4839098733"><ele>77.04</ele><time>2026-08-29T10:59:07Z</time></trkpt><trkpt lat="60.2250928525" lon="30.4839515314"><ele>77.52</ele><time>2026-08-29T10:59:19Z</time></trkpt><trkpt lat="60.2249643579" lon="30.4840066843"><ele>77.52</ele><time>2026-08-29T10:59:31Z</time></trkpt><trkpt lat="60.2249569818" lon="30.4840086121"><ele>77.52</ele><time>2026-08-29T10:59:32Z</time></trkpt><trkpt lat="60.2248953748" lon="30.4840133060"><ele>78.00</ele><time>2026-08-29T10:59:48Z</time></trkpt><trkpt lat="60.2248890046" lon="30.4840201791"><ele>78.00</ele><time>2026-08-29T11:00:07Z</time></trkpt><trkpt lat="60.2249011584" lon="30.4840594064"><ele>77.52</ele><time>2026-08-29T11:00:19Z</time></trkpt><trkpt lat="60.2249106299" lon="30.4840812832"><ele>78.00</ele><time>2026-08-29T11:00:35Z</time></trkpt><trkpt lat="60.2249143180" lon="30.4840907548"><ele>78.00</ele><time>2026-08-29T11:00:42Z</time></trkpt><trkpt lat="60.2249062713" lon="30.4841232765"><ele>78.00</ele><time>2026-08-29T11:00:53Z</time></trkpt><trkpt lat="60.2249138989" lon="30.4841307364"><ele>78.00</ele><time>2026-08-29T11:01:16Z</time></trkpt><trkpt lat="60.2249148209" lon="30.4841488414"><ele>78.00</ele><time>2026-08-29T11:01:44Z</time></trkpt><trkpt lat="60.2249121387" lon="30.4841667786"><ele>78.00</ele><time>2026-08-29T11:02:20Z</time></trkpt><trkpt lat="60.2249113843" lon="30.4841672815"><ele>78.00</ele><time>2026-08-29T11:02:39Z</time></trkpt><trkpt lat="60.2249120548" lon="30.4841718916"><ele>78.00</ele><time>2026-08-29T11:03:17Z</time></trkpt><trkpt lat="60.2249164134" lon="30.4841710534"><ele>78.00</ele><time>2026-08-29T11:03:46Z</time></trkpt><trkpt lat="60.2249169163" lon="30.4841891583"><ele>78.00</ele><time>2026-08-29T11:04:17Z</time></trkpt><trkpt lat="60.2249185927" lon="30.4841868114"><ele>78.00</ele><time>2026-08-29T11:04:46Z</time></trkpt><trkpt lat="60.2249186765" lon="30.4841969535"><ele>78.00</ele><time>2026-08-29T11:05:19Z</time></trkpt><trkpt lat="60.2249196824" lon="30.4842129629"><ele>78.00</ele><time>2026-08-29T11:05:48Z</time></trkpt><trkpt lat="60.2249180060" lon="30.4842183273"><ele>78.00</ele><time>2026-08-29T11:06:21Z</time></trkpt><trkpt lat="60.2249010745" lon="30.4842053354"><ele>78.00</ele><time>2026-08-29T11:06:54Z</time></trkpt><trkpt lat="60.2248895913" lon="30.4841897450"><ele>78.00</ele><time>2026-08-29T11:07:25Z</time></trkpt><trkpt lat="60.2248856518" lon="30.4841890745"><ele>78.00</ele><time>2026-08-29T11:07:55Z</time></trkpt><trkpt lat="60.2248856518" lon="30.4841860570"><ele>78.48</ele><time>2026-08-29T11:08:27Z</time></trkpt><trkpt lat="60.2248894237" lon="30.4841998871"><ele>78.48</ele><time>2026-08-29T11:09:00Z</time></trkpt><trkpt lat="60.2248926926" lon="30.4842143040"><ele>78.48</ele><time>2026-08-29T11:09:30Z</time></trkpt><trkpt lat="60.2248907648" lon="30.4842167348"><ele>78.48</ele><time>2026-08-29T11:09:59Z</time></trkpt><trkpt lat="60.2248906810" lon="30.4842195008"><ele>78.48</ele><time>2026-08-29T11:10:32Z</time></trkpt><trkpt lat="60.2248993982" lon="30.4842263740"><ele>78.48</ele><time>2026-08-29T11:10:58Z</time></trkpt><trkpt lat="60.2248982247" lon="30.4842177406"><ele>78.48</ele><time>2026-08-29T11:11:23Z</time></trkpt><trkpt lat="60.2248999849" lon="30.4842181597"><ele>78.97</ele><time>2026-08-29T11:11:52Z</time></trkpt><trkpt lat="60.2249006554" lon="30.4842143040"><ele>78.97</ele><time>2026-08-29T11:12:23Z</time></trkpt><trkpt lat="60.2249016613" lon="30.4842156451"><ele>79.45</ele><time>2026-08-29T11:12:50Z</time></trkpt><trkpt lat="60.2248972189" lon="30.4842141364"><ele>79.45</ele><time>2026-08-29T11:13:22Z</time></trkpt><trkpt lat="60.2248898428" lon="30.4842246138"><ele>79.45</ele><time>2026-08-29T11:13:50Z</time></trkpt><trkpt lat="60.2248880826" lon="30.4842140526"><ele>79.45</ele><time>2026-08-29T11:14:20Z</time></trkpt><trkpt lat="60.2248828020" lon="30.4842114542"><ele>79.45</ele><time>2026-08-29T11:14:47Z</time></trkpt><trkpt lat="60.2248756774" lon="30.4842204228"><ele>79.93</ele><time>2026-08-29T11:15:15Z</time></trkpt><trkpt lat="60.2248650324" lon="30.4842180759"><ele>79.93</ele><time>2026-08-29T11:15:47Z</time></trkpt><trkpt lat="60.2248641104" lon="30.4842291400"><ele>80.41</ele><time>2026-08-29T11:16:14Z</time></trkpt><trkpt lat="60.2248660382" lon="30.4842277151"><ele>80.41</ele><time>2026-08-29T11:16:42Z</time></trkpt><trkpt lat="60.2248652000" lon="30.4842173215"><ele>80.41</ele><time>2026-08-29T11:17:08Z</time></trkpt><trkpt lat="60.2248700615" lon="30.4842254519"><ele>80.41</ele><time>2026-08-29T11:17:33Z</time></trkpt><trkpt lat="60.2248760965" lon="30.4842256196"><ele>80.41</ele><time>2026-08-29T11:17:53Z</time></trkpt><trkpt lat="60.2248937823" lon="30.4842053354"><ele>80.89</ele><time>2026-08-29T11:18:05Z</time></trkpt><trkpt lat="60.2249151561" lon="30.4841170739"><ele>80.89</ele><time>2026-08-29T11:18:17Z</time></trkpt><trkpt lat="60.2248689719" lon="30.4841019027"><ele>80.89</ele><time>2026-08-29T11:18:27Z</time></trkpt><trkpt lat="60.2248090412" lon="30.4840905871"><ele>80.89</ele><time>2026-08-29T11:18:36Z</time></trkpt><trkpt lat="60.2247519605" lon="30.4841081891"><ele>80.89</ele><time>2026-08-29T11:18:42Z</time></trkpt><trkpt lat="60.2246576641" lon="30.4841167387"><ele>80.89</ele><time>2026-08-29T11:18:53Z</time></trkpt><trkpt lat="60.2245944645" lon="30.4842314031"><ele>80.89</ele><time>2026-08-29T11:19:04Z</time></trkpt><trkpt lat="60.2245372161" lon="30.4843450617"><ele>80.89</ele><time>2026-08-29T11:19:13Z</time></trkpt><trkpt lat="60.2245341986" lon="30.4844158888"><ele>80.89</ele><time>2026-08-29T11:19:17Z</time></trkpt><trkpt lat="60.2244831529" lon="30.4844472371"><ele>80.89</ele><time>2026-08-29T11:19:26Z</time></trkpt><trkpt lat="60.2244926244" lon="30.4844400287"><ele>80.89</ele><time>2026-08-29T11:19:48Z</time></trkpt><trkpt lat="60.2244673949" lon="30.4844174813"><ele>80.89</ele><time>2026-08-29T11:19:55Z</time></trkpt><trkpt lat="60.2244479489" lon="30.4843387753"><ele>80.89</ele><time>2026-08-29T11:20:05Z</time></trkpt><trkpt lat="60.2244050335" lon="30.4842491727"><ele>80.89</ele><time>2026-08-29T11:20:16Z</time></trkpt><trkpt lat="60.2243642975" lon="30.4841840453"><ele>80.89</ele><time>2026-08-29T11:20:26Z</time></trkpt><trkpt lat="60.2242566738" lon="30.4841749091"><ele>80.89</ele><time>2026-08-29T11:20:38Z</time></trkpt><trkpt lat="60.2241301071" lon="30.4842081852"><ele>80.89</ele><time>2026-08-29T11:20:51Z</time></trkpt><trkpt lat="60.2240172867" lon="30.4842455685"><ele>80.89</ele><time>2026-08-29T11:21:04Z</time></trkpt><trkpt lat="60.2239484712" lon="30.4843215924"><ele>80.89</ele><time>2026-08-29T11:21:13Z</time></trkpt><trkpt lat="60.2238403447" lon="30.4843513481"><ele>80.89</ele><time>2026-08-29T11:21:25Z</time></trkpt><trkpt lat="60.2237780672" lon="30.4843811039"><ele>80.89</ele><time>2026-08-29T11:21:37Z</time></trkpt><trkpt lat="60.2237310447" lon="30.4844339937"><ele>80.89</ele><time>2026-08-29T11:21:48Z</time></trkpt><trkpt lat="60.2237109281" lon="30.4844256956"><ele>81.37</ele><time>2026-08-29T11:22:11Z</time></trkpt><trkpt lat="60.2236695215" lon="30.4844380170"><ele>81.37</ele><time>2026-08-29T11:22:22Z</time></trkpt><trkpt lat="60.2236746345" lon="30.4844391905"><ele>81.37</ele><time>2026-08-29T11:22:23Z</time></trkpt><trkpt lat="60.2237073239" lon="30.4843302257"><ele>81.37</ele><time>2026-08-29T11:22:33Z</time></trkpt><trkpt lat="60.2236597985" lon="30.4841776751"><ele>81.37</ele><time>2026-08-29T11:22:46Z</time></trkpt><trkpt lat="60.2236080822" lon="30.4841414653"><ele>81.37</ele><time>2026-08-29T11:23:10Z</time></trkpt><trkpt lat="60.2236111835" lon="30.4840843007"><ele>81.37</ele><time>2026-08-29T11:23:25Z</time></trkpt><trkpt lat="60.2236015443" lon="30.4840227775"><ele>81.37</ele><time>2026-08-29T11:23:35Z</time></trkpt><trkpt lat="60.2235729620" lon="30.4839820415"><ele>81.37</ele><time>2026-08-29T11:23:45Z</time></trkpt><trkpt lat="60.2235535998" lon="30.4839650262"><ele>81.37</ele><time>2026-08-29T11:23:54Z</time></trkpt><trkpt lat="60.2235525101" lon="30.4839621764"><ele>81.37</ele><time>2026-08-29T11:23:55Z</time></trkpt><trkpt lat="60.2235455532" lon="30.4839425627"><ele>81.37</ele><time>2026-08-29T11:23:57Z</time></trkpt><trkpt lat="60.2234990336" lon="30.4839047603"><ele>81.37</ele><time>2026-08-29T11:24:02Z</time></trkpt><trkpt lat="60.2234284580" lon="30.4838196002"><ele>81.37</ele><time>2026-08-29T11:24:13Z</time></trkpt><trkpt lat="60.2234122809" lon="30.4838170856"><ele>81.85</ele><time>2026-08-29T11:24:25Z</time></trkpt><trkpt lat="60.2234198246" lon="30.4837912694"><ele>81.85</ele><time>2026-08-29T11:24:43Z</time></trkpt><trkpt lat="60.2234069165" lon="30.4837175924"><ele>81.85</ele><time>2026-08-29T11:24:53Z</time></trkpt><trkpt lat="60.2234070841" lon="30.4836169258"><ele>81.85</ele><time>2026-08-29T11:25:01Z</time></trkpt><trkpt lat="60.2234038990" lon="30.4836009163"><ele>81.85</ele><time>2026-08-29T11:25:02Z</time></trkpt><trkpt lat="60.2233952656" lon="30.4835005011"><ele>82.81</ele><time>2026-08-29T11:25:15Z</time></trkpt><trkpt lat="60.2233956009" lon="30.4834957235"><ele>82.81</ele><time>2026-08-29T11:25:17Z</time></trkpt><trkpt lat="60.2233909909" lon="30.4834074620"><ele>83.77</ele><time>2026-08-29T11:25:28Z</time></trkpt><trkpt lat="60.2234423719" lon="30.4833480343"><ele>84.25</ele><time>2026-08-29T11:25:40Z</time></trkpt><trkpt lat="60.2234662604" lon="30.4833194520"><ele>84.25</ele><time>2026-08-29T11:25:55Z</time></trkpt><trkpt lat="60.2234688587" lon="30.4833272472"><ele>83.77</ele><time>2026-08-29T11:26:10Z</time></trkpt><trkpt lat="60.2234659251" lon="30.4833345395"><ele>83.77</ele><time>2026-08-29T11:26:13Z</time></trkpt><trkpt lat="60.2233526856" lon="30.4834524728"><ele>83.77</ele><time>2026-08-29T11:26:24Z</time></trkpt><trkpt lat="60.2232347522" lon="30.4835599288"><ele>83.77</ele><time>2026-08-29T11:26:34Z</time></trkpt><trkpt lat="60.2230864763" lon="30.4836946260"><ele>83.77</ele><time>2026-08-29T11:26:46Z</time></trkpt><trkpt lat="60.2229650225" lon="30.4837914370"><ele>83.77</ele><time>2026-08-29T11:26:56Z</time></trkpt><trkpt lat="60.2228527889" lon="30.4838734120"><ele>83.77</ele><time>2026-08-29T11:27:05Z</time></trkpt><trkpt lat="60.2227242943" lon="30.4839499388"><ele>83.77</ele><time>2026-08-29T11:27:15Z</time></trkpt><trkpt lat="60.2225999907" lon="30.4840352666"><ele>83.77</ele><time>2026-08-29T11:27:25Z</time></trkpt><trkpt lat="60.2225207817" lon="30.4840951134"><ele>84.25</ele><time>2026-08-29T11:27:34Z</time></trkpt><trkpt lat="60.2224017587" lon="30.4842091911"><ele>84.25</ele><time>2026-08-29T11:27:45Z</time></trkpt><trkpt lat="60.2222678158" lon="30.4842872266"><ele>84.25</ele><time>2026-08-29T11:27:56Z</time></trkpt><trkpt lat="60.2221388184" lon="30.4843939282"><ele>84.25</ele><time>2026-08-29T11:28:07Z</time></trkpt><trkpt lat="60.2220294345" lon="30.4844771605"><ele>83.77</ele><time>2026-08-29T11:28:16Z</time></trkpt><trkpt lat="60.2220172808" lon="30.4844862130"><ele>83.77</ele><time>2026-08-29T11:28:17Z</time></trkpt><trkpt lat="60.2218669094" lon="30.4845898133"><ele>83.77</ele><time>2026-08-29T11:28:29Z</time></trkpt><trkpt lat="60.2217722777" lon="30.4846654180"><ele>83.77</ele><time>2026-08-29T11:28:39Z</time></trkpt><trkpt lat="60.2217116766" lon="30.4847241752"><ele>83.77</ele><time>2026-08-29T11:28:51Z</time></trkpt><trkpt lat="60.2217033785" lon="30.4847204033"><ele>84.25</ele><time>2026-08-29T11:29:13Z</time></trkpt><trkpt lat="60.2216722816" lon="30.4847398493"><ele>84.25</ele><time>2026-08-29T11:29:31Z</time></trkpt><trkpt lat="60.2216332220" lon="30.4847624805"><ele>84.25</ele><time>2026-08-29T11:29:35Z</time></trkpt><trkpt lat="60.2215369977" lon="30.4848189745"><ele>84.25</ele><time>2026-08-29T11:29:43Z</time></trkpt><trkpt lat="60.2214306314" lon="30.4849131871"><ele>84.25</ele><time>2026-08-29T11:29:55Z</time></trkpt><trkpt lat="60.2214348223" lon="30.4848960042"><ele>84.25</ele><time>2026-08-29T11:30:09Z</time></trkpt><trkpt lat="60.2214839403" lon="30.4848369118"><ele>84.25</ele><time>2026-08-29T11:30:17Z</time></trkpt><trkpt lat="60.2216247562" lon="30.4847354069"><ele>84.73</ele><time>2026-08-29T11:30:30Z</time></trkpt><trkpt lat="60.2217779774" lon="30.4846131150"><ele>84.25</ele><time>2026-08-29T11:30:44Z</time></trkpt><trkpt lat="60.2219318692" lon="30.4845115263"><ele>84.25</ele><time>2026-08-29T11:30:58Z</time></trkpt><trkpt lat="60.2221067157" lon="30.4843832832"><ele>84.25</ele><time>2026-08-29T11:31:13Z</time></trkpt><trkpt lat="60.2221946418" lon="30.4843272083"><ele>84.25</ele><time>2026-08-29T11:31:21Z</time></trkpt><trkpt lat="60.2223648783" lon="30.4841630068"><ele>84.25</ele><time>2026-08-29T11:31:38Z</time></trkpt><trkpt lat="60.2223839890" lon="30.4841452371"><ele>84.25</ele><time>2026-08-29T11:31:40Z</time></trkpt><trkpt lat="60.2225587517" lon="30.4840243701"><ele>84.25</ele><time>2026-08-29T11:31:54Z</time></trkpt><trkpt lat="60.2227084525" lon="30.4839230329"><ele>84.25</ele><time>2026-08-29T11:32:07Z</time></trkpt><trkpt lat="60.2228762582" lon="30.4837903474"><ele>84.25</ele><time>2026-08-29T11:32:22Z</time></trkpt><trkpt lat="60.2230407950" lon="30.4836797062"><ele>83.77</ele><time>2026-08-29T11:32:35Z</time></trkpt><trkpt lat="60.2231897414" lon="30.4835768603"><ele>83.77</ele><time>2026-08-29T11:32:48Z</time></trkpt><trkpt lat="60.2233463153" lon="30.4834597651"><ele>83.77</ele><time>2026-08-29T11:33:02Z</time></trkpt><trkpt lat="60.2233828604" lon="30.4834750202"><ele>83.77</ele><time>2026-08-29T11:33:15Z</time></trkpt><trkpt lat="60.2234016359" lon="30.4834625311"><ele>83.77</ele><time>2026-08-29T11:33:28Z</time></trkpt><trkpt lat="60.2234973572" lon="30.4833738506"><ele>83.77</ele><time>2026-08-29T11:33:40Z</time></trkpt><trkpt lat="60.2235489897" lon="30.4833400715"><ele>83.77</ele><time>2026-08-29T11:33:45Z</time></trkpt><trkpt lat="60.2235650830" lon="30.4833198711"><ele>83.77</ele><time>2026-08-29T11:33:47Z</time></trkpt><trkpt lat="60.2236868721" lon="30.4832600243"><ele>83.77</ele><time>2026-08-29T11:34:02Z</time></trkpt><trkpt lat="60.2236995287" lon="30.4832652211"><ele>83.77</ele><time>2026-08-29T11:34:10Z</time></trkpt><trkpt lat="60.2237393428" lon="30.4832215514"><ele>83.77</ele><time>2026-08-29T11:34:14Z</time></trkpt><trkpt lat="60.2238505706" lon="30.4831324518"><ele>83.77</ele><time>2026-08-29T11:34:24Z</time></trkpt><trkpt lat="60.2240082342" lon="30.4830151889"><ele>83.77</ele><time>2026-08-29T11:34:38Z</time></trkpt><trkpt lat="60.2241486311" lon="30.4828978423"><ele>83.77</ele><time>2026-08-29T11:34:51Z</time></trkpt><trkpt lat="60.2242882736" lon="30.4828099161"><ele>83.77</ele><time>2026-08-29T11:35:04Z</time></trkpt><trkpt lat="60.2244385611" lon="30.4826845229"><ele>83.77</ele><time>2026-08-29T11:35:18Z</time></trkpt><trkpt lat="60.2245567460" lon="30.4825929087"><ele>83.77</ele><time>2026-08-29T11:35:30Z</time></trkpt><trkpt lat="60.2245657984" lon="30.4825827666"><ele>83.29</ele><time>2026-08-29T11:35:31Z</time></trkpt><trkpt lat="60.2247566544" lon="30.4824543558"><ele>83.29</ele><time>2026-08-29T11:35:47Z</time></trkpt><trkpt lat="60.2249090374" lon="30.4823565390"><ele>83.29</ele><time>2026-08-29T11:36:00Z</time></trkpt><trkpt lat="60.2250662819" lon="30.4822163098"><ele>83.29</ele><time>2026-08-29T11:36:15Z</time></trkpt><trkpt lat="60.2250737417" lon="30.4822367616"><ele>83.29</ele><time>2026-08-29T11:36:27Z</time></trkpt><trkpt lat="60.2250755019" lon="30.4822353367"><ele>83.29</ele><time>2026-08-29T11:36:45Z</time></trkpt><trkpt lat="60.2251343429" lon="30.4821911640"><ele>83.29</ele><time>2026-08-29T11:36:57Z</time></trkpt><trkpt lat="60.2252497617" lon="30.4820885696"><ele>83.29</ele><time>2026-08-29T11:37:09Z</time></trkpt><trkpt lat="60.2253997140" lon="30.4819475859"><ele>83.29</ele><time>2026-08-29T11:37:23Z</time></trkpt><trkpt lat="60.2254085988" lon="30.4819410481"><ele>83.29</ele><time>2026-08-29T11:37:24Z</time></trkpt><trkpt lat="60.2255500853" lon="30.4818291496"><ele>83.29</ele><time>2026-08-29T11:37:37Z</time></trkpt><trkpt lat="60.2256960981" lon="30.4817110486"><ele>83.29</ele><time>2026-08-29T11:37:50Z</time></trkpt><trkpt lat="60.2257599682" lon="30.4816854000"><ele>83.29</ele><time>2026-08-29T11:37:55Z</time></trkpt><trkpt lat="60.2258062363" lon="30.4816418979"><ele>83.29</ele><time>2026-08-29T11:37:59Z</time></trkpt><trkpt lat="60.2259551827" lon="30.4815417342"><ele>83.29</ele><time>2026-08-29T11:38:13Z</time></trkpt><trkpt lat="60.2261066437" lon="30.4814348649"><ele>83.29</ele><time>2026-08-29T11:38:27Z</time></trkpt><trkpt lat="60.2262528241" lon="30.4813313484"><ele>83.29</ele><time>2026-08-29T11:38:40Z</time></trkpt><trkpt lat="60.2264054585" lon="30.4812127445"><ele>82.81</ele><time>2026-08-29T11:38:54Z</time></trkpt><trkpt lat="60.2264159359" lon="30.4812061228"><ele>82.81</ele><time>2026-08-29T11:38:55Z</time></trkpt><trkpt lat="60.2265786286" lon="30.4810715932"><ele>82.81</ele><time>2026-08-29T11:39:09Z</time></trkpt><trkpt lat="60.2266195323" lon="30.4810516443"><ele>82.81</ele><time>2026-08-29T11:39:12Z</time></trkpt><trkpt lat="60.2267192770" lon="30.4809746984"><ele>82.81</ele><time>2026-08-29T11:39:20Z</time></trkpt><trkpt lat="60.2268156689" lon="30.4808843415"><ele>82.81</ele><time>2026-08-29T11:39:29Z</time></trkpt><trkpt lat="60.2268415689" lon="30.4808826651"><ele>82.81</ele><time>2026-08-29T11:39:32Z</time></trkpt><trkpt lat="60.2268875018" lon="30.4808363132"><ele>82.81</ele><time>2026-08-29T11:39:36Z</time></trkpt><trkpt lat="60.2269459236" lon="30.4808254167"><ele>82.81</ele><time>2026-08-29T11:39:51Z</time></trkpt><trkpt lat="60.2269575745" lon="30.4808159452"><ele>82.81</ele><time>2026-08-29T11:40:05Z</time></trkpt><trkpt lat="60.2270782739" lon="30.4807105009"><ele>82.81</ele><time>2026-08-29T11:40:18Z</time></trkpt><trkpt lat="60.2270993125" lon="30.4806896299"><ele>82.81</ele><time>2026-08-29T11:40:20Z</time></trkpt><trkpt lat="60.2271496039" lon="30.4806528334"><ele>82.81</ele><time>2026-08-29T11:40:24Z</time></trkpt><trkpt lat="60.2271712292" lon="30.4806385003"><ele>82.81</ele><time>2026-08-29T11:40:26Z</time></trkpt><trkpt lat="60.2272813674" lon="30.4805480596"><ele>82.81</ele><time>2026-08-29T11:40:39Z</time></trkpt><trkpt lat="60.2273640968" lon="30.4804929905"><ele>82.81</ele><time>2026-08-29T11:40:54Z</time></trkpt><trkpt lat="60.2274019830" lon="30.4804867879"><ele>82.33</ele><time>2026-08-29T11:41:04Z</time></trkpt><trkpt lat="60.2274625003" lon="30.4804458842"><ele>82.33</ele><time>2026-08-29T11:41:10Z</time></trkpt><trkpt lat="60.2276208345" lon="30.4803245142"><ele>82.33</ele><time>2026-08-29T11:41:25Z</time></trkpt><trkpt lat="60.2276667673" lon="30.4802937526"><ele>82.33</ele><time>2026-08-29T11:41:29Z</time></trkpt><trkpt lat="60.2277163882" lon="30.4802612308"><ele>82.33</ele><time>2026-08-29T11:41:33Z</time></trkpt><trkpt lat="60.2277838625" lon="30.4802319780"><ele>82.33</ele><time>2026-08-29T11:41:38Z</time></trkpt><trkpt lat="60.2279027179" lon="30.4801585525"><ele>82.33</ele><time>2026-08-29T11:41:50Z</time></trkpt><trkpt lat="60.2280317154" lon="30.4800647590"><ele>82.33</ele><time>2026-08-29T11:42:03Z</time></trkpt><trkpt lat="60.2280981839" lon="30.4800110310"><ele>82.33</ele><time>2026-08-29T11:42:09Z</time></trkpt><trkpt lat="60.2282342222" lon="30.4798982944"><ele>82.33</ele><time>2026-08-29T11:42:22Z</time></trkpt><trkpt lat="60.2283078153" lon="30.4798361845"><ele>82.33</ele><time>2026-08-29T11:42:29Z</time></trkpt><trkpt lat="60.2283969987" lon="30.4797642678"><ele>82.33</ele><time>2026-08-29T11:42:37Z</time></trkpt><trkpt lat="60.2284307778" lon="30.4797470849"><ele>82.33</ele><time>2026-08-29T11:42:40Z</time></trkpt><trkpt lat="60.2286015172" lon="30.4796278942"><ele>82.33</ele><time>2026-08-29T11:42:55Z</time></trkpt><trkpt lat="60.2286829893" lon="30.4795714840"><ele>82.33</ele><time>2026-08-29T11:43:02Z</time></trkpt><trkpt lat="60.2288455144" lon="30.4794515390"><ele>82.33</ele><time>2026-08-29T11:43:17Z</time></trkpt><trkpt lat="60.2288529743" lon="30.4794537183"><ele>82.33</ele><time>2026-08-29T11:43:30Z</time></trkpt><trkpt lat="60.2288941294" lon="30.4794345237"><ele>82.81</ele><time>2026-08-29T11:43:47Z</time></trkpt><trkpt lat="60.2290160023" lon="30.4793244693"><ele>82.81</ele><time>2026-08-29T11:43:59Z</time></trkpt><trkpt lat="60.2290867455" lon="30.4792708252"><ele>82.81</ele><time>2026-08-29T11:44:11Z</time></trkpt><trkpt lat="60.2292051818" lon="30.4791802168"><ele>82.81</ele><time>2026-08-29T11:44:23Z</time></trkpt><trkpt lat="60.2293599956" lon="30.4790708330"><ele>82.81</ele><time>2026-08-29T11:44:38Z</time></trkpt><trkpt lat="60.2293673716" lon="30.4790497944"><ele>82.33</ele><time>2026-08-29T11:44:54Z</time></trkpt><trkpt lat="60.2293622587" lon="30.4790036939"><ele>82.33</ele><time>2026-08-29T11:44:58Z</time></trkpt><trkpt lat="60.2293538768" lon="30.4789942224"><ele>82.33</ele><time>2026-08-29T11:45:10Z</time></trkpt><trkpt lat="60.2293550503" lon="30.4789953958"><ele>82.33</ele><time>2026-08-29T11:45:11Z</time></trkpt><trkpt lat="60.2294533700" lon="30.4789537378"><ele>82.33</ele><time>2026-08-29T11:45:23Z</time></trkpt><trkpt lat="60.2295210119" lon="30.4789070506"><ele>82.33</ele><time>2026-08-29T11:45:34Z</time></trkpt><trkpt lat="60.2296303120" lon="30.4788132571"><ele>82.33</ele><time>2026-08-29T11:45:46Z</time></trkpt><trkpt lat="60.2296465728" lon="30.4788001813"><ele>82.33</ele><time>2026-08-29T11:45:48Z</time></trkpt><trkpt lat="60.2297369298" lon="30.4787256662"><ele>82.33</ele><time>2026-08-29T11:46:00Z</time></trkpt><trkpt lat="60.2297690324" lon="30.4787179548"><ele>82.33</ele><time>2026-08-29T11:46:03Z</time></trkpt><trkpt lat="60.2298085950" lon="30.4786399193"><ele>82.81</ele><time>2026-08-29T11:46:10Z</time></trkpt><trkpt lat="60.2297960222" lon="30.4785654042"><ele>82.81</ele><time>2026-08-29T11:46:15Z</time></trkpt><trkpt lat="60.2297986206" lon="30.4784913920"><ele>82.81</ele><time>2026-08-29T11:46:29Z</time></trkpt><trkpt lat="60.2298003808" lon="30.4784710240"><ele>81.37</ele><time>2026-08-29T11:46:41Z</time></trkpt><trkpt lat="60.2298001293" lon="30.4784752987"><ele>81.37</ele><time>2026-08-29T11:46:58Z</time></trkpt><trkpt lat="60.2298058290" lon="30.4784984328"><ele>81.37</ele><time>2026-08-29T11:47:06Z</time></trkpt><trkpt lat="60.2298405301" lon="30.4786116723"><ele>81.37</ele><time>2026-08-29T11:47:17Z</time></trkpt><trkpt lat="60.2298802603" lon="30.4786020331"><ele>81.37</ele><time>2026-08-29T11:47:23Z</time></trkpt><trkpt lat="60.2299287077" lon="30.4786337167"><ele>82.33</ele><time>2026-08-29T11:47:30Z</time></trkpt><trkpt lat="60.2300746366" lon="30.4785081558"><ele>82.33</ele><time>2026-08-29T11:47:43Z</time></trkpt><trkpt lat="60.2302157879" lon="30.4783996101"><ele>82.33</ele><time>2026-08-29T11:47:55Z</time></trkpt><trkpt lat="60.2302366588" lon="30.4783781525"><ele>82.33</ele><time>2026-08-29T11:47:57Z</time></trkpt><trkpt lat="60.2302539255" lon="30.4783695191"><ele>82.33</ele><time>2026-08-29T11:47:59Z</time></trkpt><trkpt lat="60.2303210646" lon="30.4783114325"><ele>82.33</ele><time>2026-08-29T11:48:05Z</time></trkpt><trkpt lat="60.2304182108" lon="30.4782367498"><ele>82.33</ele><time>2026-08-29T11:48:14Z</time></trkpt><trkpt lat="60.2305586915" lon="30.4781375080"><ele>82.33</ele><time>2026-08-29T11:48:27Z</time></trkpt><trkpt lat="60.2307258267" lon="30.4780134559"><ele>82.33</ele><time>2026-08-29T11:48:41Z</time></trkpt><trkpt lat="60.2308581769" lon="30.4779204167"><ele>82.33</ele><time>2026-08-29T11:48:53Z</time></trkpt><trkpt lat="60.2308929618" lon="30.4778902419"><ele>82.33</ele><time>2026-08-29T11:48:57Z</time></trkpt><trkpt lat="60.2310412377" lon="30.4777864739"><ele>82.33</ele><time>2026-08-29T11:49:10Z</time></trkpt><trkpt lat="60.2311379649" lon="30.4777348414"><ele>82.81</ele><time>2026-08-29T11:49:22Z</time></trkpt><trkpt lat="60.2311537229" lon="30.4777428880"><ele>82.81</ele><time>2026-08-29T11:49:33Z</time></trkpt><trkpt lat="60.2311556507" lon="30.4777319916"><ele>82.33</ele><time>2026-08-29T11:49:55Z</time></trkpt><trkpt lat="60.2311560698" lon="30.4777223524"><ele>82.33</ele><time>2026-08-29T11:50:20Z</time></trkpt><trkpt lat="60.2311660443" lon="30.4776859749"><ele>82.33</ele><time>2026-08-29T11:50:37Z</time></trkpt><trkpt lat="60.2312010806" lon="30.4776725639"><ele>82.33</ele><time>2026-08-29T11:50:49Z</time></trkpt><trkpt lat="60.2312076185" lon="30.4776760004"><ele>82.33</ele><time>2026-08-29T11:51:12Z</time></trkpt><trkpt lat="60.2312294114" lon="30.4776288103"><ele>82.33</ele><time>2026-08-29T11:51:29Z</time></trkpt><trkpt lat="60.2312491927" lon="30.4776173271"><ele>82.33</ele><time>2026-08-29T11:51:31Z</time></trkpt><trkpt lat="60.2312691417" lon="30.4776100349"><ele>82.33</ele><time>2026-08-29T11:51:33Z</time></trkpt><trkpt lat="60.2313066926" lon="30.4775834642"><ele>82.33</ele><time>2026-08-29T11:51:37Z</time></trkpt><trkpt lat="60.2314471733" lon="30.4774757568"><ele>82.33</ele><time>2026-08-29T11:51:50Z</time></trkpt><trkpt lat="60.2315468341" lon="30.4773936979"><ele>82.33</ele><time>2026-08-29T11:52:03Z</time></trkpt><trkpt lat="60.2315958682" lon="30.4773584101"><ele>82.33</ele><time>2026-08-29T11:52:08Z</time></trkpt><trkpt lat="60.2317379415" lon="30.4772670474"><ele>81.85</ele><time>2026-08-29T11:52:20Z</time></trkpt><trkpt lat="60.2318708785" lon="30.4771605134"><ele>81.85</ele><time>2026-08-29T11:52:32Z</time></trkpt><trkpt lat="60.2320040669" lon="30.4770511296"><ele>81.85</ele><time>2026-08-29T11:52:44Z</time></trkpt><trkpt lat="60.2320838626" lon="30.4769997485"><ele>81.85</ele><time>2026-08-29T11:52:57Z</time></trkpt><trkpt lat="60.2320799232" lon="30.4769971501"><ele>81.85</ele><time>2026-08-29T11:53:11Z</time></trkpt><trkpt lat="60.2321623173" lon="30.4769383930"><ele>81.85</ele><time>2026-08-29T11:53:23Z</time></trkpt><trkpt lat="60.2323093358" lon="30.4768317752"><ele>81.85</ele><time>2026-08-29T11:53:36Z</time></trkpt><trkpt lat="60.2323170472" lon="30.4768251535"><ele>81.85</ele><time>2026-08-29T11:53:37Z</time></trkpt><trkpt lat="60.2324431110" lon="30.4767229781"><ele>81.37</ele><time>2026-08-29T11:53:49Z</time></trkpt><trkpt lat="60.2325338870" lon="30.4766567610"><ele>81.37</ele><time>2026-08-29T11:54:00Z</time></trkpt><trkpt lat="60.2326913830" lon="30.4765576869"><ele>81.37</ele><time>2026-08-29T11:54:13Z</time></trkpt><trkpt lat="60.2328399103" lon="30.4764494766"><ele>81.85</ele><time>2026-08-29T11:54:25Z</time></trkpt><trkpt lat="60.2329062950" lon="30.4764016159"><ele>81.85</ele><time>2026-08-29T11:54:30Z</time></trkpt><trkpt lat="60.2329837438" lon="30.4763467982"><ele>81.85</ele><time>2026-08-29T11:54:36Z</time></trkpt><trkpt lat="60.2330572531" lon="30.4762937408"><ele>81.85</ele><time>2026-08-29T11:54:43Z</time></trkpt><trkpt lat="60.2332300041" lon="30.4761649948"><ele>81.85</ele><time>2026-08-29T11:54:58Z</time></trkpt><trkpt lat="60.2333372086" lon="30.4760806728"><ele>81.37</ele><time>2026-08-29T11:55:08Z</time></trkpt><trkpt lat="60.2334146574" lon="30.4760223348"><ele>81.37</ele><time>2026-08-29T11:55:15Z</time></trkpt><trkpt lat="60.2335408051" lon="30.4759166390"><ele>81.37</ele><time>2026-08-29T11:55:28Z</time></trkpt><trkpt lat="60.2335812896" lon="30.4758610670"><ele>81.37</ele><time>2026-08-29T11:55:39Z</time></trkpt><trkpt lat="60.2336181700" lon="30.4758390225"><ele>81.37</ele><time>2026-08-29T11:56:01Z</time></trkpt><trkpt lat="60.2337718941" lon="30.4757426307"><ele>81.37</ele><time>2026-08-29T11:56:15Z</time></trkpt><trkpt lat="60.2339138836" lon="30.4756362643"><ele>80.89</ele><time>2026-08-29T11:56:28Z</time></trkpt><trkpt lat="60.2339989599" lon="30.4755682033"><ele>80.89</ele><time>2026-08-29T11:56:36Z</time></trkpt><trkpt lat="60.2341660112" lon="30.4754283931"><ele>80.89</ele><time>2026-08-29T11:56:51Z</time></trkpt><trkpt lat="60.2343369182" lon="30.4753173329"><ele>80.89</ele><time>2026-08-29T11:57:05Z</time></trkpt><trkpt lat="60.2344419435" lon="30.4752337653"><ele>81.37</ele><time>2026-08-29T11:57:14Z</time></trkpt><trkpt lat="60.2344981022" lon="30.4751942866"><ele>81.37</ele><time>2026-08-29T11:57:19Z</time></trkpt><trkpt lat="60.2346597891" lon="30.4750729166"><ele>81.37</ele><time>2026-08-29T11:57:33Z</time></trkpt><trkpt lat="60.2347292751" lon="30.4750217870"><ele>81.37</ele><time>2026-08-29T11:57:48Z</time></trkpt><trkpt lat="60.2348052990" lon="30.4749701545"><ele>80.89</ele><time>2026-08-29T11:58:01Z</time></trkpt><trkpt lat="60.2348770481" lon="30.4749222100"><ele>80.89</ele><time>2026-08-29T11:58:07Z</time></trkpt><trkpt lat="60.2349229809" lon="30.4748862516"><ele>80.89</ele><time>2026-08-29T11:58:11Z</time></trkpt><trkpt lat="60.2350794710" lon="30.4747826513"><ele>80.89</ele><time>2026-08-29T11:58:24Z</time></trkpt><trkpt lat="60.2351288404" lon="30.4747207928"><ele>80.89</ele><time>2026-08-29T11:58:30Z</time></trkpt><trkpt lat="60.2352174371" lon="30.4746478703"><ele>81.37</ele><time>2026-08-29T11:58:39Z</time></trkpt><trkpt lat="60.2353431657" lon="30.4745558370"><ele>81.37</ele><time>2026-08-29T11:58:51Z</time></trkpt><trkpt lat="60.2353634499" lon="30.4745381512"><ele>81.37</ele><time>2026-08-29T11:58:53Z</time></trkpt><trkpt lat="60.2355013322" lon="30.4744470399"><ele>81.37</ele><time>2026-08-29T11:59:05Z</time></trkpt><trkpt lat="60.2356460039" lon="30.4743384104"><ele>81.37</ele><time>2026-08-29T11:59:18Z</time></trkpt><trkpt lat="60.2356538828" lon="30.4743266758"><ele>81.37</ele><time>2026-08-29T11:59:19Z</time></trkpt><trkpt lat="60.2357008215" lon="30.4742906336"><ele>81.37</ele><time>2026-08-29T11:59:23Z</time></trkpt><trkpt lat="60.2358740754" lon="30.4741558526"><ele>81.37</ele><time>2026-08-29T11:59:38Z</time></trkpt><trkpt lat="60.2360005584" lon="30.4740658309"><ele>81.85</ele><time>2026-08-29T11:59:50Z</time></trkpt><trkpt lat="60.2360267099" lon="30.4740363266"><ele>81.85</ele><time>2026-08-29T11:59:54Z</time></trkpt><trkpt lat="60.2360755764" lon="30.4740033858"><ele>81.37</ele><time>2026-08-29T12:00:07Z</time></trkpt><trkpt lat="60.2360910829" lon="30.4739943333"><ele>81.85</ele><time>2026-08-29T12:00:24Z</time></trkpt><trkpt lat="60.2361711301" lon="30.4739196505"><ele>81.85</ele><time>2026-08-29T12:00:40Z</time></trkpt><trkpt lat="60.2362982836" lon="30.4738083389"><ele>81.85</ele><time>2026-08-29T12:00:53Z</time></trkpt><trkpt lat="60.2364312205" lon="30.4737111926"><ele>81.85</ele><time>2026-08-29T12:01:07Z</time></trkpt><trkpt lat="60.2364810929" lon="30.4736775812"><ele>81.85</ele><time>2026-08-29T12:01:12Z</time></trkpt><trkpt lat="60.2365552727" lon="30.4736205004"><ele>81.85</ele><time>2026-08-29T12:01:19Z</time></trkpt><trkpt lat="60.2367028780" lon="30.4735496733"><ele>81.85</ele><time>2026-08-29T12:01:33Z</time></trkpt><trkpt lat="60.2368302830" lon="30.4734113719"><ele>81.85</ele><time>2026-08-29T12:01:47Z</time></trkpt><trkpt lat="60.2369002718" lon="30.4733158182"><ele>81.85</ele><time>2026-08-29T12:01:54Z</time></trkpt><trkpt lat="60.2369475458" lon="30.4732910078"><ele>81.85</ele><time>2026-08-29T12:01:58Z</time></trkpt><trkpt lat="60.2371337079" lon="30.4731754214"><ele>81.37</ele><time>2026-08-29T12:02:12Z</time></trkpt><trkpt lat="60.2371692471" lon="30.4731450789"><ele>81.37</ele><time>2026-08-29T12:02:15Z</time></trkpt><trkpt lat="60.2372330334" lon="30.4730892554"><ele>81.85</ele><time>2026-08-29T12:02:21Z</time></trkpt><trkpt lat="60.2373827342" lon="30.4729853198"><ele>81.85</ele><time>2026-08-29T12:02:34Z</time></trkpt><trkpt lat="60.2375160065" lon="30.4728715774"><ele>81.85</ele><time>2026-08-29T12:02:47Z</time></trkpt><trkpt lat="60.2376411483" lon="30.4727676418"><ele>81.37</ele><time>2026-08-29T12:03:01Z</time></trkpt><trkpt lat="60.2376926970" lon="30.4727451783"><ele>81.37</ele><time>2026-08-29T12:03:05Z</time></trkpt><trkpt lat="60.2377326787" lon="30.4727133270"><ele>81.37</ele><time>2026-08-29T12:03:09Z</time></trkpt><trkpt lat="60.2377761807" lon="30.4726865049"><ele>81.37</ele><time>2026-08-29T12:03:12Z</time></trkpt><trkpt lat="60.2378044277" lon="30.4726776201"><ele>81.37</ele><time>2026-08-29T12:03:14Z</time></trkpt><trkpt lat="60.2380210161" lon="30.4725378100"><ele>80.89</ele><time>2026-08-29T12:03:31Z</time></trkpt><trkpt lat="60.2380391210" lon="30.4725154303"><ele>80.89</ele><time>2026-08-29T12:03:33Z</time></trkpt><trkpt lat="60.2381190844" lon="30.4724627081"><ele>80.89</ele><time>2026-08-29T12:03:44Z</time></trkpt><trkpt lat="60.2382131293" lon="30.4723925516"><ele>80.89</ele><time>2026-08-29T12:03:52Z</time></trkpt><trkpt lat="60.2382718865" lon="30.4723585211"><ele>80.89</ele><time>2026-08-29T12:03:57Z</time></trkpt><trkpt lat="60.2383112814" lon="30.4723081458"><ele>81.37</ele><time>2026-08-29T12:04:01Z</time></trkpt><trkpt lat="60.2383830305" lon="30.4722571000"><ele>80.89</ele><time>2026-08-29T12:04:12Z</time></trkpt><trkpt lat="60.2384141274" lon="30.4722363129"><ele>80.89</ele><time>2026-08-29T12:04:26Z</time></trkpt><trkpt lat="60.2384499181" lon="30.4722080659"><ele>80.89</ele><time>2026-08-29T12:04:33Z</time></trkpt><trkpt lat="60.2385338210" lon="30.4721595347"><ele>80.89</ele><time>2026-08-29T12:04:41Z</time></trkpt><trkpt lat="60.2386876289" lon="30.4720302019"><ele>80.89</ele><time>2026-08-29T12:04:55Z</time></trkpt><trkpt lat="60.2388406824" lon="30.4719630629"><ele>80.41</ele><time>2026-08-29T12:05:08Z</time></trkpt><trkpt lat="60.2388959192" lon="30.4719280265"><ele>80.41</ele><time>2026-08-29T12:05:12Z</time></trkpt><trkpt lat="60.2389496472" lon="30.4718832672"><ele>80.41</ele><time>2026-08-29T12:05:16Z</time></trkpt><trkpt lat="60.2390041295" lon="30.4718517512"><ele>80.41</ele><time>2026-08-29T12:05:21Z</time></trkpt><trkpt lat="60.2391766291" lon="30.4717291240"><ele>80.41</ele><time>2026-08-29T12:05:35Z</time></trkpt><trkpt lat="60.2391881123" lon="30.4717191495"><ele>80.41</ele><time>2026-08-29T12:05:36Z</time></trkpt><trkpt lat="60.2393583488" lon="30.4716006294"><ele>80.41</ele><time>2026-08-29T12:05:51Z</time></trkpt><trkpt lat="60.2393758669" lon="30.4715722986"><ele>80.41</ele><time>2026-08-29T12:05:53Z</time></trkpt><trkpt lat="60.2395494562" lon="30.4714427143"><ele>80.41</ele><time>2026-08-29T12:06:07Z</time></trkpt><trkpt lat="60.2397256438" lon="30.4713279661"><ele>80.41</ele><time>2026-08-29T12:06:22Z</time></trkpt><trkpt lat="60.2398527134" lon="30.4712194204"><ele>80.41</ele><time>2026-08-29T12:06:33Z</time></trkpt><trkpt lat="60.2400330082" lon="30.4710972961"><ele>79.93</ele><time>2026-08-29T12:06:48Z</time></trkpt><trkpt lat="60.2400417253" lon="30.4710877407"><ele>79.93</ele><time>2026-08-29T12:06:49Z</time></trkpt><trkpt lat="60.2400908433" lon="30.4710399639"><ele>79.93</ele><time>2026-08-29T12:06:53Z</time></trkpt><trkpt lat="60.2401884925" lon="30.4709777702"><ele>79.93</ele><time>2026-08-29T12:07:08Z</time></trkpt><trkpt lat="60.2401929349" lon="30.4709654488"><ele>79.93</ele><time>2026-08-29T12:07:24Z</time></trkpt><trkpt lat="60.2402008977" lon="30.4709750880"><ele>79.93</ele><time>2026-08-29T12:07:39Z</time></trkpt><trkpt lat="60.2402102854" lon="30.4709798656"><ele>79.93</ele><time>2026-08-29T12:08:04Z</time></trkpt><trkpt lat="60.2402143087" lon="30.4709967133"><ele>79.93</ele><time>2026-08-29T12:08:33Z</time></trkpt><trkpt lat="60.2402129676" lon="30.4710131418"><ele>79.93</ele><time>2026-08-29T12:08:56Z</time></trkpt><trkpt lat="60.2402119618" lon="30.4710127227"><ele>79.93</ele><time>2026-08-29T12:09:19Z</time></trkpt><trkpt lat="60.2402207628" lon="30.4710346833"><ele>79.93</ele><time>2026-08-29T12:09:29Z</time></trkpt><trkpt lat="60.2402241156" lon="30.4710489325"><ele>78.48</ele><time>2026-08-29T12:09:42Z</time></trkpt><trkpt lat="60.2402310725" lon="30.4711081926"><ele>78.48</ele><time>2026-08-29T12:09:54Z</time></trkpt><trkpt lat="60.2402397059" lon="30.4711732361"><ele>78.48</ele><time>2026-08-29T12:10:06Z</time></trkpt><trkpt lat="60.2402770892" lon="30.4712424707"><ele>78.48</ele><time>2026-08-29T12:10:21Z</time></trkpt><trkpt lat="60.2402879018" lon="30.4712781776"><ele>78.48</ele><time>2026-08-29T12:10:34Z</time></trkpt><trkpt lat="60.2403092757" lon="30.4712983780"><ele>78.00</ele><time>2026-08-29T12:10:48Z</time></trkpt><trkpt lat="60.2403250337" lon="30.4713506810"><ele>78.00</ele><time>2026-08-29T12:11:09Z</time></trkpt><trkpt lat="60.2403281350" lon="30.4713655170"><ele>78.00</ele><time>2026-08-29T12:11:10Z</time></trkpt><trkpt lat="60.2403587289" lon="30.4715371784"><ele>78.00</ele><time>2026-08-29T12:11:20Z</time></trkpt><trkpt lat="60.2404096071" lon="30.4716650024"><ele>78.00</ele><time>2026-08-29T12:11:30Z</time></trkpt><trkpt lat="60.2404224314" lon="30.4717770685"><ele>77.52</ele><time>2026-08-29T12:11:42Z</time></trkpt><trkpt lat="60.2404471580" lon="30.4718038067"><ele>77.52</ele><time>2026-08-29T12:11:57Z</time></trkpt><trkpt lat="60.2404521033" lon="30.4718064051"><ele>77.52</ele><time>2026-08-29T12:12:17Z</time></trkpt><trkpt lat="60.2404619940" lon="30.4718186427"><ele>77.52</ele><time>2026-08-29T12:12:41Z</time></trkpt><trkpt lat="60.2404819429" lon="30.4718482308"><ele>77.52</ele><time>2026-08-29T12:13:09Z</time></trkpt><trkpt lat="60.2404821943" lon="30.4718494043"><ele>77.52</ele><time>2026-08-29T12:13:25Z</time></trkpt><trkpt lat="60.2404813562" lon="30.4718502425"><ele>77.52</ele><time>2026-08-29T12:13:52Z</time></trkpt><trkpt lat="60.2404877264" lon="30.4718440399"><ele>77.04</ele><time>2026-08-29T12:14:10Z</time></trkpt><trkpt lat="60.2404900733" lon="30.4718603007"><ele>77.04</ele><time>2026-08-29T12:14:35Z</time></trkpt><trkpt lat="60.2404896542" lon="30.4718339816"><ele>77.04</ele><time>2026-08-29T12:14:53Z</time></trkpt><trkpt lat="60.2404811047" lon="30.4717222508"><ele>77.04</ele><time>2026-08-29T12:15:03Z</time></trkpt><trkpt lat="60.2404767461" lon="30.4717017151"><ele>77.04</ele><time>2026-08-29T12:15:06Z</time></trkpt><trkpt lat="60.2404485829" lon="30.4715820216"><ele>77.04</ele><time>2026-08-29T12:15:18Z</time></trkpt><trkpt lat="60.2404468227" lon="30.4715668503"><ele>77.04</ele><time>2026-08-29T12:15:19Z</time></trkpt><trkpt lat="60.2404457331" lon="30.4714454804"><ele>77.04</ele><time>2026-08-29T12:15:30Z</time></trkpt><trkpt lat="60.2404306456" lon="30.4713803530"><ele>77.04</ele><time>2026-08-29T12:15:42Z</time></trkpt><trkpt lat="60.2403526939" lon="30.4712330829"><ele>77.04</ele><time>2026-08-29T12:15:53Z</time></trkpt><trkpt lat="60.2403367683" lon="30.4710656963"><ele>77.04</ele><time>2026-08-29T12:16:05Z</time></trkpt><trkpt lat="60.2403175738" lon="30.4709674604"><ele>78.00</ele><time>2026-08-29T12:16:15Z</time></trkpt><trkpt lat="60.2403162327" lon="30.4708868265"><ele>78.48</ele><time>2026-08-29T12:16:23Z</time></trkpt><trkpt lat="60.2403683681" lon="30.4708337691"><ele>79.45</ele><time>2026-08-29T12:16:35Z</time></trkpt><trkpt lat="60.2403771691" lon="30.4708349425"><ele>79.45</ele><time>2026-08-29T12:16:49Z</time></trkpt><trkpt lat="60.2403924242" lon="30.4708102159"><ele>79.45</ele><time>2026-08-29T12:16:51Z</time></trkpt><trkpt lat="60.2405340783" lon="30.4707050230"><ele>79.45</ele><time>2026-08-29T12:17:05Z</time></trkpt><trkpt lat="60.2406880539" lon="30.4705912806"><ele>79.45</ele><time>2026-08-29T12:17:19Z</time></trkpt><trkpt lat="60.2407932468" lon="30.4705235548"><ele>79.45</ele><time>2026-08-29T12:17:29Z</time></trkpt><trkpt lat="60.2409350686" lon="30.4704126623"><ele>79.45</ele><time>2026-08-29T12:17:42Z</time></trkpt><trkpt lat="60.2411204763" lon="30.4702689964"><ele>79.45</ele><time>2026-08-29T12:17:58Z</time></trkpt><trkpt lat="60.2412799839" lon="30.4701681621"><ele>79.93</ele><time>2026-08-29T12:18:10Z</time></trkpt><trkpt lat="60.2413187921" lon="30.4701476265"><ele>79.93</ele><time>2026-08-29T12:18:13Z</time></trkpt><trkpt lat="60.2414752822" lon="30.4700222332"><ele>79.93</ele><time>2026-08-29T12:18:27Z</time></trkpt><trkpt lat="60.2415897790" lon="30.4699319601"><ele>79.93</ele><time>2026-08-29T12:18:42Z</time></trkpt><trkpt lat="60.2415866777" lon="30.4699265957"><ele>79.93</ele><time>2026-08-29T12:19:09Z</time></trkpt><trkpt lat="60.2417466044" lon="30.4698194750"><ele>79.93</ele><time>2026-08-29T12:19:24Z</time></trkpt><trkpt lat="60.2419298328" lon="30.4696877953"><ele>79.93</ele><time>2026-08-29T12:19:40Z</time></trkpt><trkpt lat="60.2420631051" lon="30.4696184769"><ele>79.93</ele><time>2026-08-29T12:19:53Z</time></trkpt><trkpt lat="60.2420907654" lon="30.4695920739"><ele>79.93</ele><time>2026-08-29T12:19:56Z</time></trkpt><trkpt lat="60.2422363590" lon="30.4695247672"><ele>79.93</ele><time>2026-08-29T12:20:10Z</time></trkpt><trkpt lat="60.2423521969" lon="30.4694295488"><ele>79.45</ele><time>2026-08-29T12:20:23Z</time></trkpt><trkpt lat="60.2425040770" lon="30.4693181533"><ele>79.45</ele><time>2026-08-29T12:20:37Z</time></trkpt><trkpt lat="60.2426522691" lon="30.4692103621"><ele>79.45</ele><time>2026-08-29T12:20:51Z</time></trkpt><trkpt lat="60.2426851261" lon="30.4691825341"><ele>79.45</ele><time>2026-08-29T12:20:54Z</time></trkpt><trkpt lat="60.2426994592" lon="30.4691577237"><ele>79.45</ele><time>2026-08-29T12:20:56Z</time></trkpt><trkpt lat="60.2428095974" lon="30.4690663610"><ele>79.45</ele><time>2026-08-29T12:21:12Z</time></trkpt><trkpt lat="60.2428142913" lon="30.4690663610"><ele>79.93</ele><time>2026-08-29T12:21:28Z</time></trkpt><trkpt lat="60.2428263612" lon="30.4690774251"><ele>79.93</ele><time>2026-08-29T12:21:43Z</time></trkpt><trkpt lat="60.2427728847" lon="30.4691293091"><ele>79.93</ele><time>2026-08-29T12:21:53Z</time></trkpt><trkpt lat="60.2427132893" lon="30.4691846296"><ele>79.93</ele><time>2026-08-29T12:22:06Z</time></trkpt><trkpt lat="60.2427050751" lon="30.4691899102"><ele>79.93</ele><time>2026-08-29T12:22:30Z</time></trkpt><trkpt lat="60.2427075896" lon="30.4691870604"><ele>79.93</ele><time>2026-08-29T12:22:51Z</time></trkpt><trkpt lat="60.2427173965" lon="30.4691796843"><ele>79.93</ele><time>2026-08-29T12:23:13Z</time></trkpt><trkpt lat="60.2427168097" lon="30.4691580590"><ele>80.41</ele><time>2026-08-29T12:23:29Z</time></trkpt><trkpt lat="60.2427054942" lon="30.4691502638"><ele>80.41</ele><time>2026-08-29T12:23:56Z</time></trkpt><trkpt lat="60.2427107748" lon="30.4691381101"><ele>80.41</ele><time>2026-08-29T12:24:18Z</time></trkpt><trkpt lat="60.2427113615" lon="30.4691370204"><ele>80.41</ele><time>2026-08-29T12:24:19Z</time></trkpt><trkpt lat="60.2428507525" lon="30.4690215178"><ele>80.41</ele><time>2026-08-29T12:24:33Z</time></trkpt><trkpt lat="60.2429918200" lon="30.4689216893"><ele>80.41</ele><time>2026-08-29T12:24:47Z</time></trkpt><trkpt lat="60.2431313787" lon="30.4688472580"><ele>80.41</ele><time>2026-08-29T12:25:00Z</time></trkpt><trkpt lat="60.2432463784" lon="30.4687429033"><ele>80.41</ele><time>2026-08-29T12:25:13Z</time></trkpt><trkpt lat="60.2434003539" lon="30.4686579946"><ele>80.41</ele><time>2026-08-29T12:25:27Z</time></trkpt><trkpt lat="60.2435572632" lon="30.4685707390"><ele>80.41</ele><time>2026-08-29T12:25:41Z</time></trkpt><trkpt lat="60.2436005138" lon="30.4686123133"><ele>80.89</ele><time>2026-08-29T12:25:52Z</time></trkpt><trkpt lat="60.2436006814" lon="30.4686302505"><ele>80.89</ele><time>2026-08-29T12:25:55Z</time></trkpt><trkpt lat="60.2436057944" lon="30.4686669633"><ele>80.89</ele><time>2026-08-29T12:26:04Z</time></trkpt><trkpt lat="60.2436238155" lon="30.4686792847"><ele>80.89</ele><time>2026-08-29T12:26:12Z</time></trkpt><trkpt lat="60.2437303495" lon="30.4686348606"><ele>80.89</ele><time>2026-08-29T12:26:25Z</time></trkpt><trkpt lat="60.2438689023" lon="30.4685240518"><ele>81.37</ele><time>2026-08-29T12:26:38Z</time></trkpt><trkpt lat="60.2439939603" lon="30.4684274923"><ele>81.37</ele><time>2026-08-29T12:26:50Z</time></trkpt><trkpt lat="60.2441111393" lon="30.4683570843"><ele>81.37</ele><time>2026-08-29T12:27:02Z</time></trkpt><trkpt lat="60.2441686392" lon="30.4682969023"><ele>81.37</ele><time>2026-08-29T12:27:13Z</time></trkpt><trkpt lat="60.2443110477" lon="30.4681640491"><ele>81.37</ele><time>2026-08-29T12:27:26Z</time></trkpt><trkpt lat="60.2444815356" lon="30.4680067208"><ele>81.37</ele><time>2026-08-29T12:27:40Z</time></trkpt><trkpt lat="60.2445798554" lon="30.4679185431"><ele>81.37</ele><time>2026-08-29T12:27:48Z</time></trkpt><trkpt lat="60.2446478326" lon="30.4678446986"><ele>81.37</ele><time>2026-08-29T12:27:54Z</time></trkpt><trkpt lat="60.2447916660" lon="30.4677086603"><ele>81.37</ele><time>2026-08-29T12:28:07Z</time></trkpt><trkpt lat="60.2449320629" lon="30.4675620608"><ele>81.37</ele><time>2026-08-29T12:28:21Z</time></trkpt><trkpt lat="60.2449608129" lon="30.4675670899"><ele>81.37</ele><time>2026-08-29T12:28:28Z</time></trkpt><trkpt lat="60.2449613158" lon="30.4675857816"><ele>81.37</ele><time>2026-08-29T12:28:40Z</time></trkpt><trkpt lat="60.2449608967" lon="30.4676215723"><ele>81.37</ele><time>2026-08-29T12:28:52Z</time></trkpt><trkpt lat="60.2449764032" lon="30.4676448740"><ele>81.37</ele><time>2026-08-29T12:29:11Z</time></trkpt><trkpt lat="60.2450232580" lon="30.4676259309"><ele>80.89</ele><time>2026-08-29T12:29:25Z</time></trkpt><trkpt lat="60.2450862899" lon="30.4675574508"><ele>80.89</ele><time>2026-08-29T12:29:33Z</time></trkpt><trkpt lat="60.2452234179" lon="30.4674459714"><ele>80.89</ele><time>2026-08-29T12:29:46Z</time></trkpt><trkpt lat="60.2453395911" lon="30.4673044011"><ele>80.89</ele><time>2026-08-29T12:30:00Z</time></trkpt><trkpt lat="60.2453931514" lon="30.4672749806"><ele>80.89</ele><time>2026-08-29T12:30:12Z</time></trkpt><trkpt lat="60.2454003599" lon="30.4672396090"><ele>80.89</ele><time>2026-08-29T12:30:18Z</time></trkpt><trkpt lat="60.2454508189" lon="30.4671449773"><ele>80.89</ele><time>2026-08-29T12:30:24Z</time></trkpt><trkpt lat="60.2455306984" lon="30.4670103639"><ele>80.89</ele><time>2026-08-29T12:30:33Z</time></trkpt><trkpt lat="60.2455806546" lon="30.4669411294"><ele>80.89</ele><time>2026-08-29T12:30:38Z</time></trkpt><trkpt lat="60.2456248272" lon="30.4668729845"><ele>80.89</ele><time>2026-08-29T12:30:52Z</time></trkpt><trkpt lat="60.2457576804" lon="30.4667128902"><ele>80.89</ele><time>2026-08-29T12:31:05Z</time></trkpt><trkpt lat="60.2457989193" lon="30.4666659515"><ele>80.89</ele><time>2026-08-29T12:31:09Z</time></trkpt><trkpt lat="60.2459574211" lon="30.4665322602"><ele>80.89</ele><time>2026-08-29T12:31:22Z</time></trkpt><trkpt lat="60.2460788749" lon="30.4662856646"><ele>80.89</ele><time>2026-08-29T12:31:37Z</time></trkpt><trkpt lat="60.2461784519" lon="30.4660606105"><ele>81.37</ele><time>2026-08-29T12:31:50Z</time></trkpt><trkpt lat="60.2462567389" lon="30.4659457784"><ele>81.37</ele><time>2026-08-29T12:31:58Z</time></trkpt><trkpt lat="60.2462632768" lon="30.4658914637"><ele>81.37</ele><time>2026-08-29T12:32:01Z</time></trkpt><trkpt lat="60.2461865824" lon="30.4656182136"><ele>81.37</ele><time>2026-08-29T12:32:15Z</time></trkpt><trkpt lat="60.2460934594" lon="30.4653259367"><ele>81.37</ele><time>2026-08-29T12:32:29Z</time></trkpt><trkpt lat="60.2460911125" lon="30.4652701132"><ele>81.37</ele><time>2026-08-29T12:32:32Z</time></trkpt><trkpt lat="60.2461292502" lon="30.4652002919"><ele>81.37</ele><time>2026-08-29T12:32:37Z</time></trkpt><trkpt lat="60.2462890930" lon="30.4650038201"><ele>81.85</ele><time>2026-08-29T12:32:52Z</time></trkpt><trkpt lat="60.2463358641" lon="30.4649566300"><ele>81.85</ele><time>2026-08-29T12:32:56Z</time></trkpt><trkpt lat="60.2463711519" lon="30.4648895748"><ele>81.85</ele><time>2026-08-29T12:33:06Z</time></trkpt><trkpt lat="60.2465136442" lon="30.4647302348"><ele>81.85</ele><time>2026-08-29T12:33:21Z</time></trkpt><trkpt lat="60.2466318291" lon="30.4645946156"><ele>81.85</ele><time>2026-08-29T12:33:32Z</time></trkpt><trkpt lat="60.2467193361" lon="30.4644926079"><ele>81.85</ele><time>2026-08-29T12:33:40Z</time></trkpt><trkpt lat="60.2468501776" lon="30.4643266462"><ele>81.85</ele><time>2026-08-29T12:33:52Z</time></trkpt><trkpt lat="60.2469165623" lon="30.4642730020"><ele>81.85</ele><time>2026-08-29T12:34:03Z</time></trkpt><trkpt lat="60.2470230125" lon="30.4641865846"><ele>81.85</ele><time>2026-08-29T12:34:14Z</time></trkpt><trkpt lat="60.2471617330" lon="30.4640418291"><ele>81.85</ele><time>2026-08-29T12:34:26Z</time></trkpt><trkpt lat="60.2472820971" lon="30.4638324492"><ele>81.85</ele><time>2026-08-29T12:34:37Z</time></trkpt><trkpt lat="60.2473540138" lon="30.4637565091"><ele>81.85</ele><time>2026-08-29T12:34:42Z</time></trkpt><trkpt lat="60.2474790718" lon="30.4635973368"><ele>81.85</ele><time>2026-08-29T12:34:53Z</time></trkpt><trkpt lat="60.2476647310" lon="30.4633658286"><ele>81.85</ele><time>2026-08-29T12:35:09Z</time></trkpt><trkpt lat="60.2478185389" lon="30.4631828517"><ele>81.37</ele><time>2026-08-29T12:35:22Z</time></trkpt><trkpt lat="60.2479270007" lon="30.4630728811"><ele>81.37</ele><time>2026-08-29T12:35:34Z</time></trkpt><trkpt lat="60.2479497995" lon="30.4630597215"><ele>81.37</ele><time>2026-08-29T12:35:46Z</time></trkpt><trkpt lat="60.2479570080" lon="30.4630484059"><ele>81.37</ele><time>2026-08-29T12:36:03Z</time></trkpt><trkpt lat="60.2479574271" lon="30.4630571231"><ele>81.37</ele><time>2026-08-29T12:36:19Z</time></trkpt><trkpt lat="60.2479601931" lon="30.4630621523"><ele>81.37</ele><time>2026-08-29T12:36:44Z</time></trkpt><trkpt lat="60.2479652222" lon="30.4630450532"><ele>81.37</ele><time>2026-08-29T12:37:07Z</time></trkpt><trkpt lat="60.2479659766" lon="30.4630487412"><ele>81.37</ele><time>2026-08-29T12:37:29Z</time></trkpt><trkpt lat="60.2479627915" lon="30.4630612303"><ele>81.37</ele><time>2026-08-29T12:37:42Z</time></trkpt><trkpt lat="60.2478340454" lon="30.4631817620"><ele>81.37</ele><time>2026-08-29T12:37:55Z</time></trkpt><trkpt lat="60.2477152739" lon="30.4633046407"><ele>81.37</ele><time>2026-08-29T12:38:09Z</time></trkpt><trkpt lat="60.2475840971" lon="30.4635002743"><ele>81.37</ele><time>2026-08-29T12:38:23Z</time></trkpt><trkpt lat="60.2474898007" lon="30.4636305291"><ele>81.37</ele><time>2026-08-29T12:38:32Z</time></trkpt><trkpt lat="60.2474242542" lon="30.4637322854"><ele>81.37</ele><time>2026-08-29T12:38:39Z</time></trkpt><trkpt lat="60.2473274432" lon="30.4638565890"><ele>81.37</ele><time>2026-08-29T12:38:49Z</time></trkpt><trkpt lat="60.2471125312" lon="30.4641223792"><ele>81.37</ele><time>2026-08-29T12:39:07Z</time></trkpt><trkpt lat="60.2470432967" lon="30.4642701522"><ele>81.37</ele><time>2026-08-29T12:39:16Z</time></trkpt><trkpt lat="60.2469301410" lon="30.4643732496"><ele>81.37</ele><time>2026-08-29T12:39:24Z</time></trkpt><trkpt lat="60.2467617486" lon="30.4645398818"><ele>81.37</ele><time>2026-08-29T12:39:38Z</time></trkpt><trkpt lat="60.2466085274" lon="30.4647124652"><ele>81.37</ele><time>2026-08-29T12:39:52Z</time></trkpt><trkpt lat="60.2464737464" lon="30.4648644291"><ele>81.37</ele><time>2026-08-29T12:40:04Z</time></trkpt><trkpt lat="60.2464563958" lon="30.4648936819"><ele>81.37</ele><time>2026-08-29T12:40:18Z</time></trkpt><trkpt lat="60.2464163303" lon="30.4649350047"><ele>82.33</ele><time>2026-08-29T12:40:22Z</time></trkpt><trkpt lat="60.2462101355" lon="30.4651641659"><ele>82.33</ele><time>2026-08-29T12:40:38Z</time></trkpt><trkpt lat="60.2461030986" lon="30.4653386772"><ele>82.33</ele><time>2026-08-29T12:40:52Z</time></trkpt><trkpt lat="60.2461077087" lon="30.4653523397"><ele>82.33</ele><time>2026-08-29T12:40:53Z</time></trkpt><trkpt lat="60.2461864147" lon="30.4656381626"><ele>82.33</ele><time>2026-08-29T12:41:07Z</time></trkpt><trkpt lat="60.2463127300" lon="30.4659643862"><ele>82.33</ele><time>2026-08-29T12:41:23Z</time></trkpt><trkpt lat="60.2463407256" lon="30.4659752827"><ele>82.33</ele><time>2026-08-29T12:41:27Z</time></trkpt><trkpt lat="60.2463584114" lon="30.4660280887"><ele>82.33</ele><time>2026-08-29T12:41:34Z</time></trkpt><trkpt lat="60.2463052701" lon="30.4661471117"><ele>82.33</ele><time>2026-08-29T12:41:43Z</time></trkpt><trkpt lat="60.2463154960" lon="30.4661912005"><ele>82.33</ele><time>2026-08-29T12:41:46Z</time></trkpt><trkpt lat="60.2463142388" lon="30.4663026799"><ele>82.33</ele><time>2026-08-29T12:41:51Z</time></trkpt><trkpt lat="60.2463122271" lon="30.4664665461"><ele>82.33</ele><time>2026-08-29T12:41:58Z</time></trkpt><trkpt lat="60.2463460062" lon="30.4664807953"><ele>82.33</ele><time>2026-08-29T12:42:02Z</time></trkpt><trkpt lat="60.2465026639" lon="30.4663519654"><ele>82.33</ele><time>2026-08-29T12:42:17Z</time></trkpt><trkpt lat="60.2465967089" lon="30.4662912805"><ele>82.33</ele><time>2026-08-29T12:42:29Z</time></trkpt><trkpt lat="60.2467826195" lon="30.4662760254"><ele>82.33</ele><time>2026-08-29T12:42:43Z</time></trkpt><trkpt lat="60.2469785046" lon="30.4663198628"><ele>82.33</ele><time>2026-08-29T12:42:58Z</time></trkpt><trkpt lat="60.2471256070" lon="30.4663268197"><ele>82.33</ele><time>2026-08-29T12:43:11Z</time></trkpt><trkpt lat="60.2471442986" lon="30.4663403146"><ele>82.33</ele><time>2026-08-29T12:43:24Z</time></trkpt><trkpt lat="60.2472686861" lon="30.4662898555"><ele>82.33</ele><time>2026-08-29T12:43:34Z</time></trkpt><trkpt lat="60.2473893855" lon="30.4662416596"><ele>82.33</ele><time>2026-08-29T12:43:43Z</time></trkpt><trkpt lat="60.2474645711" lon="30.4662497900"><ele>82.33</ele><time>2026-08-29T12:43:48Z</time></trkpt><trkpt lat="60.2475325484" lon="30.4662326910"><ele>82.33</ele><time>2026-08-29T12:43:52Z</time></trkpt><trkpt lat="60.2476797346" lon="30.4662276618"><ele>82.33</ele><time>2026-08-29T12:44:03Z</time></trkpt><trkpt lat="60.2476932295" lon="30.4662210401"><ele>82.33</ele><time>2026-08-29T12:44:04Z</time></trkpt><trkpt lat="60.2477928065" lon="30.4662584234"><ele>82.33</ele><time>2026-08-29T12:44:17Z</time></trkpt><trkpt lat="60.2477829158" lon="30.4663015902"><ele>82.33</ele><time>2026-08-29T12:44:34Z</time></trkpt><trkpt lat="60.2477730252" lon="30.4663270712"><ele>81.37</ele><time>2026-08-29T12:44:51Z</time></trkpt><trkpt lat="60.2477677446" lon="30.4663366266"><ele>81.37</ele><time>2026-08-29T12:45:09Z</time></trkpt><trkpt lat="60.2477655653" lon="30.4663471878"><ele>81.37</ele><time>2026-08-29T12:45:32Z</time></trkpt><trkpt lat="60.2477708459" lon="30.4663476907"><ele>81.37</ele><time>2026-08-29T12:45:58Z</time></trkpt><trkpt lat="60.2477747016" lon="30.4663619399"><ele>81.37</ele><time>2026-08-29T12:46:24Z</time></trkpt><trkpt lat="60.2477807365" lon="30.4663466010"><ele>81.37</ele><time>2026-08-29T12:46:53Z</time></trkpt><trkpt lat="60.2477770485" lon="30.4663423263"><ele>81.37</ele><time>2026-08-29T12:47:15Z</time></trkpt><trkpt lat="60.2477819938" lon="30.4663383868"><ele>81.85</ele><time>2026-08-29T12:47:44Z</time></trkpt><trkpt lat="60.2477758750" lon="30.4663334414"><ele>81.85</ele><time>2026-08-29T12:47:57Z</time></trkpt><trkpt lat="60.2477736119" lon="30.4663460143"><ele>81.85</ele><time>2026-08-29T12:48:15Z</time></trkpt><trkpt lat="60.2477482148" lon="30.4664072022"><ele>81.85</ele><time>2026-08-29T12:48:19Z</time></trkpt><trkpt lat="60.2477443591" lon="30.4666732438"><ele>81.85</ele><time>2026-08-29T12:48:29Z</time></trkpt><trkpt lat="60.2477334626" lon="30.4668314103"><ele>81.85</ele><time>2026-08-29T12:48:35Z</time></trkpt><trkpt lat="60.2477004379" lon="30.4671122879"><ele>81.85</ele><time>2026-08-29T12:48:47Z</time></trkpt><trkpt lat="60.2476888709" lon="30.4671213403"><ele>81.85</ele><time>2026-08-29T12:48:48Z</time></trkpt><trkpt lat="60.2476732805" lon="30.4672225937"><ele>81.85</ele><time>2026-08-29T12:48:52Z</time></trkpt><trkpt lat="60.2476723585" lon="30.4672659282"><ele>81.85</ele><time>2026-08-29T12:48:53Z</time></trkpt><trkpt lat="60.2476748731" lon="30.4672987014"><ele>81.85</ele><time>2026-08-29T12:48:54Z</time></trkpt><trkpt lat="60.2476669103" lon="30.4674316384"><ele>81.85</ele><time>2026-08-29T12:48:59Z</time></trkpt><trkpt lat="60.2476611268" lon="30.4674572032"><ele>81.85</ele><time>2026-08-29T12:49:00Z</time></trkpt><trkpt lat="60.2476557624" lon="30.4674919881"><ele>81.85</ele><time>2026-08-29T12:49:01Z</time></trkpt><trkpt lat="60.2476537507" lon="30.4675128590"><ele>81.85</ele><time>2026-08-29T12:49:02Z</time></trkpt><trkpt lat="60.2476504818" lon="30.4675442073"><ele>81.85</ele><time>2026-08-29T12:49:03Z</time></trkpt><trkpt lat="60.2476098295" lon="30.4677494802"><ele>81.85</ele><time>2026-08-29T12:49:09Z</time></trkpt><trkpt lat="60.2476034593" lon="30.4678014480"><ele>81.85</ele><time>2026-08-29T12:49:11Z</time></trkpt><trkpt lat="60.2475954127" lon="30.4678146075"><ele>81.85</ele><time>2026-08-29T12:49:12Z</time></trkpt><trkpt lat="60.2475887910" lon="30.4678318743"><ele>81.85</ele><time>2026-08-29T12:49:13Z</time></trkpt><trkpt lat="60.2475692611" lon="30.4679248296"><ele>81.85</ele><time>2026-08-29T12:49:17Z</time></trkpt><trkpt lat="60.2475661598" lon="30.4679477122"><ele>81.85</ele><time>2026-08-29T12:49:18Z</time></trkpt><trkpt lat="60.2475550957" lon="30.4679633863"><ele>81.85</ele><time>2026-08-29T12:49:19Z</time></trkpt><trkpt lat="60.2475462947" lon="30.4679852631"><ele>81.85</ele><time>2026-08-29T12:49:20Z</time></trkpt><trkpt lat="60.2475390024" lon="30.4680023622"><ele>81.85</ele><time>2026-08-29T12:49:21Z</time></trkpt><trkpt lat="60.2475298662" lon="30.4680200480"><ele>81.85</ele><time>2026-08-29T12:49:22Z</time></trkpt><trkpt lat="60.2475199755" lon="30.4680327885"><ele>81.85</ele><time>2026-08-29T12:49:23Z</time></trkpt><trkpt lat="60.2474923991" lon="30.4681195412"><ele>81.85</ele><time>2026-08-29T12:49:27Z</time></trkpt><trkpt lat="60.2474916447" lon="30.4681465309"><ele>81.85</ele><time>2026-08-29T12:49:28Z</time></trkpt><trkpt lat="60.2474877890" lon="30.4681723472"><ele>81.85</ele><time>2026-08-29T12:49:29Z</time></trkpt><trkpt lat="60.2474841010" lon="30.4681969061"><ele>81.85</ele><time>2026-08-29T12:49:30Z</time></trkpt><trkpt lat="60.2474742942" lon="30.4682256561"><ele>81.85</ele><time>2026-08-29T12:49:31Z</time></trkpt><trkpt lat="60.2474701870" lon="30.4682620335"><ele>81.85</ele><time>2026-08-29T12:49:32Z</time></trkpt><trkpt lat="60.2474721149" lon="30.4682973213"><ele>81.85</ele><time>2026-08-29T12:49:33Z</time></trkpt><trkpt lat="60.2474746294" lon="30.4683265742"><ele>81.85</ele><time>2026-08-29T12:49:34Z</time></trkpt><trkpt lat="60.2474668343" lon="30.4684953019"><ele>81.85</ele><time>2026-08-29T12:49:42Z</time></trkpt><trkpt lat="60.2474530879" lon="30.4685508739"><ele>81.85</ele><time>2026-08-29T12:49:45Z</time></trkpt><trkpt lat="60.2474088315" lon="30.4687415622"><ele>81.85</ele><time>2026-08-29T12:49:52Z</time></trkpt><trkpt lat="60.2473992761" lon="30.4688112158"><ele>81.37</ele><time>2026-08-29T12:49:55Z</time></trkpt><trkpt lat="60.2473830152" lon="30.4689244553"><ele>81.37</ele><time>2026-08-29T12:49:59Z</time></trkpt><trkpt lat="60.2473540138" lon="30.4691048339"><ele>81.37</ele><time>2026-08-29T12:50:13Z</time></trkpt><trkpt lat="60.2473520022" lon="30.4691278003"><ele>81.37</ele><time>2026-08-29T12:50:14Z</time></trkpt><trkpt lat="60.2473186422" lon="30.4693811852"><ele>81.37</ele><time>2026-08-29T12:50:25Z</time></trkpt><trkpt lat="60.2472355776" lon="30.4697341472"><ele>81.37</ele><time>2026-08-29T12:50:36Z</time></trkpt><trkpt lat="60.2472143713" lon="30.4697877914"><ele>81.37</ele><time>2026-08-29T12:50:40Z</time></trkpt><trkpt lat="60.2471804246" lon="30.4698639829"><ele>81.37</ele><time>2026-08-29T12:50:44Z</time></trkpt><trkpt lat="60.2471615653" lon="30.4698825907"><ele>81.37</ele><time>2026-08-29T12:50:45Z</time></trkpt><trkpt lat="60.2471484896" lon="30.4699087422"><ele>81.37</ele><time>2026-08-29T12:50:46Z</time></trkpt><trkpt lat="60.2471366711" lon="30.4699324630"><ele>81.37</ele><time>2026-08-29T12:50:47Z</time></trkpt><trkpt lat="60.2471247688" lon="30.4699548427"><ele>81.37</ele><time>2026-08-29T12:50:48Z</time></trkpt><trkpt lat="60.2471035626" lon="30.4699871968"><ele>81.37</ele><time>2026-08-29T12:50:50Z</time></trkpt><trkpt lat="60.2470422909" lon="30.4700886179"><ele>81.37</ele><time>2026-08-29T12:50:55Z</time></trkpt><trkpt lat="60.2470209170" lon="30.4701954871"><ele>81.37</ele><time>2026-08-29T12:51:00Z</time></trkpt><trkpt lat="60.2470113616" lon="30.4702224769"><ele>81.37</ele><time>2026-08-29T12:51:01Z</time></trkpt><trkpt lat="60.2469984535" lon="30.4702483770"><ele>81.37</ele><time>2026-08-29T12:51:02Z</time></trkpt><trkpt lat="60.2469822764" lon="30.4702728521"><ele>81.37</ele><time>2026-08-29T12:51:03Z</time></trkpt><trkpt lat="60.2469704580" lon="30.4702919628"><ele>81.37</ele><time>2026-08-29T12:51:04Z</time></trkpt><trkpt lat="60.2469686139" lon="30.4703125823"><ele>81.37</ele><time>2026-08-29T12:51:05Z</time></trkpt><trkpt lat="60.2469635010" lon="30.4705238063"><ele>82.81</ele><time>2026-08-29T12:51:14Z</time></trkpt><trkpt lat="60.2469511796" lon="30.4705457669"><ele>82.33</ele><time>2026-08-29T12:51:15Z</time></trkpt><trkpt lat="60.2469282132" lon="30.4705755226"><ele>82.33</ele><time>2026-08-29T12:51:17Z</time></trkpt><trkpt lat="60.2469069231" lon="30.4706158396"><ele>82.81</ele><time>2026-08-29T12:51:19Z</time></trkpt><trkpt lat="60.2468668576" lon="30.4706888460"><ele>82.81</ele><time>2026-08-29T12:51:24Z</time></trkpt><trkpt lat="60.2468623314" lon="30.4707281571"><ele>82.81</ele><time>2026-08-29T12:51:25Z</time></trkpt><trkpt lat="60.2468556259" lon="30.4707603436"><ele>82.81</ele><time>2026-08-29T12:51:26Z</time></trkpt><trkpt lat="60.2468469925" lon="30.4708077013"><ele>82.81</ele><time>2026-08-29T12:51:28Z</time></trkpt><trkpt lat="60.2468397003" lon="30.4708336852"><ele>82.81</ele><time>2026-08-29T12:51:29Z</time></trkpt><trkpt lat="60.2468306478" lon="30.4708594177"><ele>82.81</ele><time>2026-08-29T12:51:30Z</time></trkpt><trkpt lat="60.2468213439" lon="30.4710734915"><ele>82.33</ele><time>2026-08-29T12:51:40Z</time></trkpt><trkpt lat="60.2468490042" lon="30.4714232683"><ele>83.29</ele><time>2026-08-29T12:51:51Z</time></trkpt><trkpt lat="60.2468449809" lon="30.4716556147"><ele>83.29</ele><time>2026-08-29T12:51:59Z</time></trkpt><trkpt lat="60.2468438074" lon="30.4720300343"><ele>82.81</ele><time>2026-08-29T12:52:13Z</time></trkpt><trkpt lat="60.2468073461" lon="30.4722851794"><ele>81.85</ele><time>2026-08-29T12:52:24Z</time></trkpt><trkpt lat="60.2467718069" lon="30.4725951422"><ele>81.37</ele><time>2026-08-29T12:52:36Z</time></trkpt><trkpt lat="60.2467500139" lon="30.4728521314"><ele>81.37</ele><time>2026-08-29T12:52:47Z</time></trkpt><trkpt lat="60.2467506006" lon="30.4728858266"><ele>81.37</ele><time>2026-08-29T12:52:48Z</time></trkpt><trkpt lat="60.2467495948" lon="30.4729221202"><ele>81.37</ele><time>2026-08-29T12:52:49Z</time></trkpt><trkpt lat="60.2467366029" lon="30.4731687158"><ele>81.37</ele><time>2026-08-29T12:52:57Z</time></trkpt><trkpt lat="60.2467267960" lon="30.4732491821"><ele>82.33</ele><time>2026-08-29T12:53:00Z</time></trkpt><trkpt lat="60.2467210125" lon="30.4732739925"><ele>82.33</ele><time>2026-08-29T12:53:01Z</time></trkpt><trkpt lat="60.2467169054" lon="30.4732978810"><ele>82.33</ele><time>2026-08-29T12:53:02Z</time></trkpt><trkpt lat="60.2466691285" lon="30.4736124538"><ele>83.77</ele><time>2026-08-29T12:53:16Z</time></trkpt><trkpt lat="60.2466694638" lon="30.4739792459"><ele>84.73</ele><time>2026-08-29T12:53:29Z</time></trkpt><trkpt lat="60.2466278058" lon="30.4743481334"><ele>85.21</ele><time>2026-08-29T12:53:42Z</time></trkpt><trkpt lat="60.2465960383" lon="30.4746292625"><ele>85.21</ele><time>2026-08-29T12:53:56Z</time></trkpt><trkpt lat="60.2465535421" lon="30.4748849943"><ele>85.21</ele><time>2026-08-29T12:54:07Z</time></trkpt><trkpt lat="60.2465181705" lon="30.4751167540"><ele>85.21</ele><time>2026-08-29T12:54:17Z</time></trkpt><trkpt lat="60.2464989759" lon="30.4752578214"><ele>85.21</ele><time>2026-08-29T12:54:23Z</time></trkpt><trkpt lat="60.2464475948" lon="30.4754906707"><ele>86.18</ele><time>2026-08-29T12:54:36Z</time></trkpt><trkpt lat="60.2463634405" lon="30.4757169820"><ele>87.62</ele><time>2026-08-29T12:54:50Z</time></trkpt><trkpt lat="60.2462944575" lon="30.4759888910"><ele>89.06</ele><time>2026-08-29T12:55:03Z</time></trkpt><trkpt lat="60.2462133206" lon="30.4762536753"><ele>90.98</ele><time>2026-08-29T12:55:18Z</time></trkpt><trkpt lat="60.2461620234" lon="30.4764901288"><ele>92.90</ele><time>2026-08-29T12:55:29Z</time></trkpt><trkpt lat="60.2460756060" lon="30.4766657297"><ele>93.39</ele><time>2026-08-29T12:55:38Z</time></trkpt><trkpt lat="60.2459727600" lon="30.4770628642"><ele>93.87</ele><time>2026-08-29T12:55:52Z</time></trkpt><trkpt lat="60.2458811458" lon="30.4774034210"><ele>93.87</ele><time>2026-08-29T12:56:04Z</time></trkpt><trkpt lat="60.2458467800" lon="30.4774915148"><ele>93.87</ele><time>2026-08-29T12:56:08Z</time></trkpt><trkpt lat="60.2457206324" lon="30.4776773416"><ele>94.83</ele><time>2026-08-29T12:56:19Z</time></trkpt><trkpt lat="60.2456619591" lon="30.4779259488"><ele>94.35</ele><time>2026-08-29T12:56:28Z</time></trkpt><trkpt lat="60.2456472907" lon="30.4783235863"><ele>94.83</ele><time>2026-08-29T12:56:42Z</time></trkpt><trkpt lat="60.2456375677" lon="30.4784839321"><ele>94.83</ele><time>2026-08-29T12:56:49Z</time></trkpt><trkpt lat="60.2456099913" lon="30.4786015302"><ele>93.39</ele><time>2026-08-29T12:56:56Z</time></trkpt><trkpt lat="60.2455990948" lon="30.4786353931"><ele>93.87</ele><time>2026-08-29T12:56:58Z</time></trkpt><trkpt lat="60.2455298603" lon="30.4787809867"><ele>90.50</ele><time>2026-08-29T12:57:06Z</time></trkpt><trkpt lat="60.2455141861" lon="30.4788400792"><ele>87.14</ele><time>2026-08-29T12:57:10Z</time></trkpt><trkpt lat="60.2454928122" lon="30.4789461941"><ele>84.25</ele><time>2026-08-29T12:57:16Z</time></trkpt><trkpt lat="60.2454626374" lon="30.4790737666"><ele>84.25</ele><time>2026-08-29T12:57:27Z</time></trkpt><trkpt lat="60.2453989349" lon="30.4794773553"><ele>81.85</ele><time>2026-08-29T12:57:40Z</time></trkpt><trkpt lat="60.2453348972" lon="30.4797924310"><ele>79.45</ele><time>2026-08-29T12:57:54Z</time></trkpt><trkpt lat="60.2453423571" lon="30.4798168223"><ele>79.45</ele><time>2026-08-29T12:57:55Z</time></trkpt><trkpt lat="60.2453539241" lon="30.4800269566"><ele>78.97</ele><time>2026-08-29T12:58:02Z</time></trkpt><trkpt lat="60.2453379147" lon="30.4803557787"><ele>78.48</ele><time>2026-08-29T12:58:13Z</time></trkpt><trkpt lat="60.2453402616" lon="30.4806770571"><ele>78.00</ele><time>2026-08-29T12:58:26Z</time></trkpt><trkpt lat="60.2453520801" lon="30.4808617104"><ele>77.52</ele><time>2026-08-29T12:58:33Z</time></trkpt><trkpt lat="60.2454669122" lon="30.4813036881"><ele>77.52</ele><time>2026-08-29T12:58:45Z</time></trkpt><trkpt lat="60.2454799879" lon="30.4816939496"><ele>77.04</ele><time>2026-08-29T12:58:57Z</time></trkpt><trkpt lat="60.2454994339" lon="30.4820412956"><ele>77.04</ele><time>2026-08-29T12:59:09Z</time></trkpt><trkpt lat="60.2455144376" lon="30.4822383542"><ele>77.04</ele><time>2026-08-29T12:59:16Z</time></trkpt><trkpt lat="60.2455394994" lon="30.4825142026"><ele>77.04</ele><time>2026-08-29T12:59:26Z</time></trkpt><trkpt lat="60.2455280162" lon="30.4827224091"><ele>78.48</ele><time>2026-08-29T12:59:38Z</time></trkpt><trkpt lat="60.2455310337" lon="30.4828542564"><ele>78.48</ele><time>2026-08-29T12:59:44Z</time></trkpt><trkpt lat="60.2455545869" lon="30.4829246644"><ele>78.97</ele><time>2026-08-29T12:59:47Z</time></trkpt><trkpt lat="60.2455931436" lon="30.4830784723"><ele>78.97</ele><time>2026-08-29T12:59:57Z</time></trkpt><trkpt lat="60.2455980889" lon="30.4831040371"><ele>78.97</ele><time>2026-08-29T12:59:59Z</time></trkpt><trkpt lat="60.2456079796" lon="30.4833445977"><ele>78.97</ele><time>2026-08-29T13:00:10Z</time></trkpt><trkpt lat="60.2456140146" lon="30.4834737629"><ele>78.97</ele><time>2026-08-29T13:00:17Z</time></trkpt><trkpt lat="60.2455257531" lon="30.4838139843"><ele>78.97</ele><time>2026-08-29T13:00:29Z</time></trkpt><trkpt lat="60.2454926446" lon="30.4840330873"><ele>79.45</ele><time>2026-08-29T13:00:40Z</time></trkpt><trkpt lat="60.2454669122" lon="30.4844639171"><ele>79.93</ele><time>2026-08-29T13:00:55Z</time></trkpt><trkpt lat="60.2454654872" lon="30.4846668430"><ele>79.93</ele><time>2026-08-29T13:01:02Z</time></trkpt><trkpt lat="60.2454597875" lon="30.4847463034"><ele>79.45</ele><time>2026-08-29T13:01:05Z</time></trkpt><trkpt lat="60.2454645652" lon="30.4849989340"><ele>79.93</ele><time>2026-08-29T13:01:17Z</time></trkpt><trkpt lat="60.2454600390" lon="30.4853938054"><ele>80.41</ele><time>2026-08-29T13:01:29Z</time></trkpt><trkpt lat="60.2454659902" lon="30.4855144210"><ele>80.41</ele><time>2026-08-29T13:01:35Z</time></trkpt><trkpt lat="60.2454866096" lon="30.4856512975"><ele>80.41</ele><time>2026-08-29T13:01:47Z</time></trkpt><trkpt lat="60.2455671597" lon="30.4857886769"><ele>80.89</ele><time>2026-08-29T13:02:02Z</time></trkpt><trkpt lat="60.2455806546" lon="30.4858084582"><ele>81.85</ele><time>2026-08-29T13:02:18Z</time></trkpt><trkpt lat="60.2456081472" lon="30.4858618509"><ele>82.81</ele><time>2026-08-29T13:02:33Z</time></trkpt><trkpt lat="60.2456206363" lon="30.4858395550"><ele>82.81</ele><time>2026-08-29T13:02:43Z</time></trkpt><trkpt lat="60.2456277609" lon="30.4858360346"><ele>82.81</ele><time>2026-08-29T13:02:57Z</time></trkpt><trkpt lat="60.2456333768" lon="30.4858483560"><ele>82.81</ele><time>2026-08-29T13:03:12Z</time></trkpt><trkpt lat="60.2456367295" lon="30.4858588334"><ele>82.81</ele><time>2026-08-29T13:03:27Z</time></trkpt><trkpt lat="60.2456356399" lon="30.4858765192"><ele>82.81</ele><time>2026-08-29T13:03:40Z</time></trkpt><trkpt lat="60.2456385735" lon="30.4858661257"><ele>82.81</ele><time>2026-08-29T13:04:02Z</time></trkpt><trkpt lat="60.2456435189" lon="30.4858578276"><ele>82.81</ele><time>2026-08-29T13:04:34Z</time></trkpt><trkpt lat="60.2456469554" lon="30.4858652875"><ele>82.81</ele><time>2026-08-29T13:04:59Z</time></trkpt><trkpt lat="60.2456346340" lon="30.4858552292"><ele>82.81</ele><time>2026-08-29T13:05:22Z</time></trkpt><trkpt lat="60.2456268389" lon="30.4858629405"><ele>82.81</ele><time>2026-08-29T13:05:48Z</time></trkpt><trkpt lat="60.2456226479" lon="30.4858507868"><ele>83.29</ele><time>2026-08-29T13:06:17Z</time></trkpt><trkpt lat="60.2456239890" lon="30.4858385492"><ele>83.29</ele><time>2026-08-29T13:06:45Z</time></trkpt><trkpt lat="60.2456200495" lon="30.4858478531"><ele>83.29</ele><time>2026-08-29T13:07:05Z</time></trkpt><trkpt lat="60.2456233185" lon="30.4858476855"><ele>83.29</ele><time>2026-08-29T13:07:26Z</time></trkpt><trkpt lat="60.2456204686" lon="30.4858535528"><ele>83.29</ele><time>2026-08-29T13:07:53Z</time></trkpt><trkpt lat="60.2456284314" lon="30.4858470988"><ele>83.29</ele><time>2026-08-29T13:08:28Z</time></trkpt><trkpt lat="60.2456253301" lon="30.4858494457"><ele>83.29</ele><time>2026-08-29T13:09:00Z</time></trkpt><trkpt lat="60.2456325386" lon="30.4858575761"><ele>83.77</ele><time>2026-08-29T13:09:22Z</time></trkpt><trkpt lat="60.2456286829" lon="30.4858651198"><ele>83.77</ele><time>2026-08-29T13:09:48Z</time></trkpt><trkpt lat="60.2456249110" lon="30.4858833924"><ele>83.77</ele><time>2026-08-29T13:10:04Z</time></trkpt><trkpt lat="60.2456161100" lon="30.4858991504"><ele>84.25</ele><time>2026-08-29T13:10:31Z</time></trkpt><trkpt lat="60.2456133440" lon="30.4858898465"><ele>84.73</ele><time>2026-08-29T13:10:45Z</time></trkpt><trkpt lat="60.2455525752" lon="30.4857852403"><ele>84.73</ele><time>2026-08-29T13:10:55Z</time></trkpt><trkpt lat="60.2455058042" lon="30.4855998326"><ele>83.29</ele><time>2026-08-29T13:11:03Z</time></trkpt><trkpt lat="60.2454896271" lon="30.4854576755"><ele>82.81</ele><time>2026-08-29T13:11:15Z</time></trkpt><trkpt lat="60.2455149405" lon="30.4852768779"><ele>82.33</ele><time>2026-08-29T13:11:33Z</time></trkpt><trkpt lat="60.2455356438" lon="30.4851101618"><ele>82.33</ele><time>2026-08-29T13:11:46Z</time></trkpt><trkpt lat="60.2455524914" lon="30.4849876184"><ele>82.33</ele><time>2026-08-29T13:12:02Z</time></trkpt><trkpt lat="60.2455684170" lon="30.4848436173"><ele>82.33</ele><time>2026-08-29T13:12:19Z</time></trkpt><trkpt lat="60.2455756254" lon="30.4847673420"><ele>82.33</ele><time>2026-08-29T13:12:33Z</time></trkpt><trkpt lat="60.2455746196" lon="30.4846545216"><ele>81.85</ele><time>2026-08-29T13:12:47Z</time></trkpt><trkpt lat="60.2455807384" lon="30.4845667630"><ele>81.85</ele><time>2026-08-29T13:13:07Z</time></trkpt><trkpt lat="60.2455845103" lon="30.4844173137"><ele>81.85</ele><time>2026-08-29T13:13:29Z</time></trkpt><trkpt lat="60.2455654833" lon="30.4841982946"><ele>81.85</ele><time>2026-08-29T13:13:45Z</time></trkpt><trkpt lat="60.2455523238" lon="30.4839990567"><ele>81.37</ele><time>2026-08-29T13:14:01Z</time></trkpt><trkpt lat="60.2455557603" lon="30.4839028325"><ele>81.37</ele><time>2026-08-29T13:14:19Z</time></trkpt><trkpt lat="60.2455638070" lon="30.4837950412"><ele>81.85</ele><time>2026-08-29T13:14:33Z</time></trkpt><trkpt lat="60.2455990948" lon="30.4836150818"><ele>81.85</ele><time>2026-08-29T13:14:47Z</time></trkpt><trkpt lat="60.2456144337" lon="30.4834833182"><ele>81.37</ele><time>2026-08-29T13:15:00Z</time></trkpt><trkpt lat="60.2456148528" lon="30.4834404867"><ele>81.37</ele><time>2026-08-29T13:15:16Z</time></trkpt><trkpt lat="60.2456129249" lon="30.4834048636"><ele>81.37</ele><time>2026-08-29T13:15:32Z</time></trkpt><trkpt lat="60.2456269227" lon="30.4833345395"><ele>81.37</ele><time>2026-08-29T13:15:48Z</time></trkpt><trkpt lat="60.2456504758" lon="30.4832396563"><ele>81.37</ele><time>2026-08-29T13:16:02Z</time></trkpt><trkpt lat="60.2456519008" lon="30.4830858484"><ele>81.85</ele><time>2026-08-29T13:16:16Z</time></trkpt><trkpt lat="60.2456312813" lon="30.4830437712"><ele>81.85</ele><time>2026-08-29T13:16:34Z</time></trkpt><trkpt lat="60.2456341311" lon="30.4830238223"><ele>81.85</ele><time>2026-08-29T13:16:51Z</time></trkpt><trkpt lat="60.2456301916" lon="30.4828509036"><ele>81.85</ele><time>2026-08-29T13:17:07Z</time></trkpt><trkpt lat="60.2456247434" lon="30.4827020410"><ele>81.37</ele><time>2026-08-29T13:17:24Z</time></trkpt><trkpt lat="60.2456285153" lon="30.4826887976"><ele>81.37</ele><time>2026-08-29T13:17:43Z</time></trkpt><trkpt lat="60.2456375677" lon="30.4827110097"><ele>81.37</ele><time>2026-08-29T13:18:10Z</time></trkpt><trkpt lat="60.2456368133" lon="30.4827272706"><ele>81.85</ele><time>2026-08-29T13:18:36Z</time></trkpt><trkpt lat="60.2456307784" lon="30.4827321321"><ele>81.85</ele><time>2026-08-29T13:18:57Z</time></trkpt><trkpt lat="60.2456291858" lon="30.4827182181"><ele>81.85</ele><time>2026-08-29T13:19:23Z</time></trkpt><trkpt lat="60.2456295211" lon="30.4827068187"><ele>81.85</ele><time>2026-08-29T13:19:48Z</time></trkpt><trkpt lat="60.2456503082" lon="30.4827127699"><ele>81.85</ele><time>2026-08-29T13:20:04Z</time></trkpt><trkpt lat="60.2456413396" lon="30.4827271029"><ele>81.85</ele><time>2026-08-29T13:20:26Z</time></trkpt><trkpt lat="60.2456446923" lon="30.4827298690"><ele>82.33</ele><time>2026-08-29T13:20:42Z</time></trkpt><trkpt lat="60.2456247434" lon="30.4826534260"><ele>82.33</ele><time>2026-08-29T13:20:56Z</time></trkpt><trkpt lat="60.2456197981" lon="30.4826575331"><ele>82.33</ele><time>2026-08-29T13:21:18Z</time></trkpt><trkpt lat="60.2456239890" lon="30.4826549347"><ele>82.33</ele><time>2026-08-29T13:21:34Z</time></trkpt><trkpt lat="60.2456367295" lon="30.4826752190"><ele>82.33</ele><time>2026-08-29T13:21:50Z</time></trkpt><trkpt lat="60.2457135078" lon="30.4827173799"><ele>82.33</ele><time>2026-08-29T13:22:03Z</time></trkpt><trkpt lat="60.2457715105" lon="30.4827869497"><ele>82.33</ele><time>2026-08-29T13:22:18Z</time></trkpt><trkpt lat="60.2458429243" lon="30.4828283563"><ele>83.77</ele><time>2026-08-29T13:22:37Z</time></trkpt><trkpt lat="60.2458808105" lon="30.4828690924"><ele>83.77</ele><time>2026-08-29T13:22:57Z</time></trkpt><trkpt lat="60.2458888572" lon="30.4828986805"><ele>83.77</ele><time>2026-08-29T13:23:17Z</time></trkpt><trkpt lat="60.2459061239" lon="30.4829199705"><ele>84.73</ele><time>2026-08-29T13:23:30Z</time></trkpt><trkpt lat="60.2459491231" lon="30.4828946572"><ele>84.73</ele><time>2026-08-29T13:23:48Z</time></trkpt><trkpt lat="60.2459600195" lon="30.4829128459"><ele>84.73</ele><time>2026-08-29T13:24:04Z</time></trkpt><trkpt lat="60.2459559124" lon="30.4829227366"><ele>84.73</ele><time>2026-08-29T13:24:22Z</time></trkpt><trkpt lat="60.2459471952" lon="30.4828949925"><ele>84.73</ele><time>2026-08-29T13:24:34Z</time></trkpt><trkpt lat="60.2459298447" lon="30.4829010274"><ele>84.73</ele><time>2026-08-29T13:24:53Z</time></trkpt><trkpt lat="60.2459244803" lon="30.4828927293"><ele>84.73</ele><time>2026-08-29T13:25:08Z</time></trkpt><trkpt lat="60.2459210437" lon="30.4828948248"><ele>83.29</ele><time>2026-08-29T13:25:39Z</time></trkpt><trkpt lat="60.2459254023" lon="30.4828939028"><ele>83.77</ele><time>2026-08-29T13:26:13Z</time></trkpt><trkpt lat="60.2459243964" lon="30.4828726966"><ele>83.77</ele><time>2026-08-29T13:26:40Z</time></trkpt><trkpt lat="60.2459228039" lon="30.4828561842"><ele>83.77</ele><time>2026-08-29T13:27:03Z</time></trkpt><trkpt lat="60.2459213790" lon="30.4828660749"><ele>83.77</ele><time>2026-08-29T13:27:21Z</time></trkpt><trkpt lat="60.2459186129" lon="30.4828773905"><ele>84.73</ele><time>2026-08-29T13:27:43Z</time></trkpt><trkpt lat="60.2459330298" lon="30.4829170369"><ele>84.73</ele><time>2026-08-29T13:27:59Z</time></trkpt><trkpt lat="60.2459316887" lon="30.4829455353"><ele>84.73</ele><time>2026-08-29T13:28:14Z</time></trkpt><trkpt lat="60.2459317725" lon="30.4829756264"><ele>84.73</ele><time>2026-08-29T13:28:27Z</time></trkpt><trkpt lat="60.2459233068" lon="30.4829899594"><ele>84.73</ele><time>2026-08-29T13:28:45Z</time></trkpt><trkpt lat="60.2459247317" lon="30.4829990119"><ele>84.73</ele><time>2026-08-29T13:29:02Z</time></trkpt><trkpt lat="60.2459329460" lon="30.4830463696"><ele>84.73</ele><time>2026-08-29T13:29:22Z</time></trkpt><trkpt lat="60.2459235583" lon="30.4830710962"><ele>84.73</ele><time>2026-08-29T13:29:27Z</time></trkpt><trkpt lat="60.2459436748" lon="30.4829767160"><ele>84.73</ele><time>2026-08-29T13:29:38Z</time></trkpt><trkpt lat="60.2459342871" lon="30.4829379916"><ele>84.73</ele><time>2026-08-29T13:29:42Z</time></trkpt><trkpt lat="60.2459004242" lon="30.4828263447"><ele>84.73</ele><time>2026-08-29T13:29:53Z</time></trkpt><trkpt lat="60.2458901145" lon="30.4828037135"><ele>84.73</ele><time>2026-08-29T13:29:57Z</time></trkpt><trkpt lat="60.2458637115" lon="30.4827709403"><ele>84.73</ele><time>2026-08-29T13:30:00Z</time></trkpt><trkpt lat="60.2457834966" lon="30.4826153722"><ele>84.73</ele><time>2026-08-29T13:30:13Z</time></trkpt><trkpt lat="60.2457550820" lon="30.4825597163"><ele>84.73</ele><time>2026-08-29T13:30:16Z</time></trkpt><trkpt lat="60.2456464525" lon="30.4823743086"><ele>83.77</ele><time>2026-08-29T13:30:26Z</time></trkpt><trkpt lat="60.2456278447" lon="30.4823095165"><ele>83.77</ele><time>2026-08-29T13:30:29Z</time></trkpt><trkpt lat="60.2456070576" lon="30.4821339156"><ele>82.81</ele><time>2026-08-29T13:30:37Z</time></trkpt><trkpt lat="60.2456111647" lon="30.4820222687"><ele>82.81</ele><time>2026-08-29T13:30:42Z</time></trkpt><trkpt lat="60.2456146013" lon="30.4817171674"><ele>82.33</ele><time>2026-08-29T13:30:55Z</time></trkpt><trkpt lat="60.2456236538" lon="30.4814611841"><ele>82.81</ele><time>2026-08-29T13:31:08Z</time></trkpt><trkpt lat="60.2455944847" lon="30.4811271653"><ele>82.81</ele><time>2026-08-29T13:31:23Z</time></trkpt><trkpt lat="60.2455437742" lon="30.4807327967"><ele>82.81</ele><time>2026-08-29T13:31:38Z</time></trkpt><trkpt lat="60.2455091570" lon="30.4804784060"><ele>82.81</ele><time>2026-08-29T13:31:51Z</time></trkpt><trkpt lat="60.2454778086" lon="30.4803179763"><ele>82.81</ele><time>2026-08-29T13:31:59Z</time></trkpt><trkpt lat="60.2454358153" lon="30.4800862167"><ele>82.81</ele><time>2026-08-29T13:32:13Z</time></trkpt><trkpt lat="60.2454406768" lon="30.4797293153"><ele>82.81</ele><time>2026-08-29T13:32:29Z</time></trkpt><trkpt lat="60.2454960812" lon="30.4794039298"><ele>84.73</ele><time>2026-08-29T13:32:43Z</time></trkpt><trkpt lat="60.2455178741" lon="30.4791830666"><ele>88.58</ele><time>2026-08-29T13:32:56Z</time></trkpt><trkpt lat="60.2455350570" lon="30.4790816456"><ele>91.94</ele><time>2026-08-29T13:33:01Z</time></trkpt><trkpt lat="60.2455695067" lon="30.4788723495"><ele>92.42</ele><time>2026-08-29T13:33:14Z</time></trkpt><trkpt lat="60.2456279285" lon="30.4786347225"><ele>94.35</ele><time>2026-08-29T13:33:27Z</time></trkpt><trkpt lat="60.2456482127" lon="30.4784930684"><ele>98.19</ele><time>2026-08-29T13:33:34Z</time></trkpt><trkpt lat="60.2456762083" lon="30.4782263562"><ele>99.63</ele><time>2026-08-29T13:33:47Z</time></trkpt><trkpt lat="60.2457051259" lon="30.4778993782"><ele>99.63</ele><time>2026-08-29T13:34:02Z</time></trkpt><trkpt lat="60.2457199618" lon="30.4778151400"><ele>99.63</ele><time>2026-08-29T13:34:06Z</time></trkpt><trkpt lat="60.2458317764" lon="30.4775796924"><ele>99.63</ele><time>2026-08-29T13:34:21Z</time></trkpt><trkpt lat="60.2459535655" lon="30.4774020799"><ele>99.63</ele><time>2026-08-29T13:34:34Z</time></trkpt><trkpt lat="60.2460567467" lon="30.4771732539"><ele>99.63</ele><time>2026-08-29T13:34:48Z</time></trkpt><trkpt lat="60.2461118996" lon="30.4770388920"><ele>99.63</ele><time>2026-08-29T13:35:04Z</time></trkpt></trkseg></trk></gpx>